<?xml version="1.0" encoding="UTF-8" standalone="no" ?>
<gpx xmlns="http://www.topografix.com/GPX/1/1" xmlns:xsi="http://www.w3.org/2001/XMLSchema-instance" xsi:schemaLocation="http://www.topografix.com/GPX/1/1 http://www.topografix.com/GPX/1/1/gpx.xsd" version="1.1" creator="VisuGPX - https://www.visugpx.com">
  <metadata>
    <name>st martin d'abbat 2017</name>
    <desc><![CDATA[parcours roulant entre bord de loire et canal d'orléans ]]></desc>
  </metadata>
  <trk>
    <name><![CDATA[ABBAT2017]]></name>
    <trkseg>
      <trkpt lat="47.85972" lon="2.27787">
        <ele>128</ele>
        <time>2017-10-15T06:26:34.000Z</time>
      </trkpt>
      <trkpt lat="47.85978" lon="2.27794">
        <ele>128</ele>
        <time>2017-10-15T06:27:22.000Z</time>
      </trkpt>
      <trkpt lat="47.85983" lon="2.27794">
        <ele>127</ele>
        <time>2017-10-15T06:28:44.000Z</time>
      </trkpt>
      <trkpt lat="47.85987" lon="2.27784">
        <ele>126</ele>
        <time>2017-10-15T06:28:49.000Z</time>
      </trkpt>
      <trkpt lat="47.86009" lon="2.27731">
        <ele>126</ele>
        <time>2017-10-15T06:29:02.000Z</time>
      </trkpt>
      <trkpt lat="47.86022" lon="2.27687">
        <ele>125</ele>
        <time>2017-10-15T06:29:12.000Z</time>
      </trkpt>
      <trkpt lat="47.86037" lon="2.27649">
        <ele>125</ele>
        <time>2017-10-15T06:29:22.000Z</time>
      </trkpt>
      <trkpt lat="47.86058" lon="2.27608">
        <ele>124</ele>
        <time>2017-10-15T06:29:32.000Z</time>
      </trkpt>
      <trkpt lat="47.86065" lon="2.27589">
        <ele>124</ele>
        <time>2017-10-15T06:29:36.000Z</time>
      </trkpt>
      <trkpt lat="47.86073" lon="2.27554">
        <ele>124</ele>
        <time>2017-10-15T06:29:43.000Z</time>
      </trkpt>
      <trkpt lat="47.8608" lon="2.27511">
        <ele>124</ele>
        <time>2017-10-15T06:29:51.000Z</time>
      </trkpt>
      <trkpt lat="47.86084" lon="2.27486">
        <ele>124</ele>
        <time>2017-10-15T06:29:56.000Z</time>
      </trkpt>
      <trkpt lat="47.86079" lon="2.2747">
        <ele>123</ele>
        <time>2017-10-15T06:30:01.000Z</time>
      </trkpt>
      <trkpt lat="47.86074" lon="2.27472">
        <ele>124</ele>
        <time>2017-10-15T06:30:08.000Z</time>
      </trkpt>
      <trkpt lat="47.86057" lon="2.27472">
        <ele>125</ele>
        <time>2017-10-15T06:30:16.000Z</time>
      </trkpt>
      <trkpt lat="47.86047" lon="2.27474">
        <ele>127</ele>
        <time>2017-10-15T06:30:22.000Z</time>
      </trkpt>
      <trkpt lat="47.86034" lon="2.27465">
        <ele>126</ele>
        <time>2017-10-15T06:30:37.000Z</time>
      </trkpt>
      <trkpt lat="47.86027" lon="2.27465">
        <ele>126</ele>
        <time>2017-10-15T06:30:44.000Z</time>
      </trkpt>
      <trkpt lat="47.8602" lon="2.27463">
        <ele>127</ele>
        <time>2017-10-15T06:30:48.000Z</time>
      </trkpt>
      <trkpt lat="47.8601" lon="2.27453">
        <ele>126</ele>
        <time>2017-10-15T06:30:55.000Z</time>
      </trkpt>
      <trkpt lat="47.8601" lon="2.27444">
        <ele>126</ele>
        <time>2017-10-15T06:30:59.000Z</time>
      </trkpt>
      <trkpt lat="47.8601" lon="2.27437">
        <ele>128</ele>
        <time>2017-10-15T06:32:46.000Z</time>
      </trkpt>
      <trkpt lat="47.86006" lon="2.27435">
        <ele>132</ele>
        <time>2017-10-15T06:37:54.000Z</time>
      </trkpt>
      <trkpt lat="47.86004" lon="2.27444">
        <ele>132</ele>
        <time>2017-10-15T06:38:24.000Z</time>
      </trkpt>
      <trkpt lat="47.86004" lon="2.27454">
        <ele>131</ele>
        <time>2017-10-15T06:38:28.000Z</time>
      </trkpt>
      <trkpt lat="47.86012" lon="2.27459">
        <ele>132</ele>
        <time>2017-10-15T06:38:32.000Z</time>
      </trkpt>
      <trkpt lat="47.86059" lon="2.27471">
        <ele>130</ele>
        <time>2017-10-15T06:38:49.000Z</time>
      </trkpt>
      <trkpt lat="47.86061" lon="2.27471">
        <ele>130</ele>
        <time>2017-10-15T06:38:50.000Z</time>
      </trkpt>
      <trkpt lat="47.86064" lon="2.27471">
        <ele>130</ele>
        <time>2017-10-15T06:38:51.000Z</time>
      </trkpt>
      <trkpt lat="47.86074" lon="2.27467">
        <ele>129</ele>
        <time>2017-10-15T06:38:57.000Z</time>
      </trkpt>
      <trkpt lat="47.86084" lon="2.27469">
        <ele>128</ele>
        <time>2017-10-15T06:39:03.000Z</time>
      </trkpt>
      <trkpt lat="47.86113" lon="2.27477">
        <ele>127</ele>
        <time>2017-10-15T06:39:11.000Z</time>
      </trkpt>
      <trkpt lat="47.86159" lon="2.27505">
        <ele>128</ele>
        <time>2017-10-15T06:39:21.000Z</time>
      </trkpt>
      <trkpt lat="47.86163" lon="2.27508">
        <ele>128</ele>
        <time>2017-10-15T06:39:22.000Z</time>
      </trkpt>
      <trkpt lat="47.86208" lon="2.27538">
        <ele>129</ele>
        <time>2017-10-15T06:39:31.000Z</time>
      </trkpt>
      <trkpt lat="47.86213" lon="2.27542">
        <ele>129</ele>
        <time>2017-10-15T06:39:32.000Z</time>
      </trkpt>
      <trkpt lat="47.86254" lon="2.27569">
        <ele>129</ele>
        <time>2017-10-15T06:39:40.000Z</time>
      </trkpt>
      <trkpt lat="47.86259" lon="2.27572">
        <ele>129</ele>
        <time>2017-10-15T06:39:41.000Z</time>
      </trkpt>
      <trkpt lat="47.86305" lon="2.27604">
        <ele>128</ele>
        <time>2017-10-15T06:39:50.000Z</time>
      </trkpt>
      <trkpt lat="47.8631" lon="2.27607">
        <ele>128</ele>
        <time>2017-10-15T06:39:51.000Z</time>
      </trkpt>
      <trkpt lat="47.86351" lon="2.27635">
        <ele>127</ele>
        <time>2017-10-15T06:39:59.000Z</time>
      </trkpt>
      <trkpt lat="47.86356" lon="2.27638">
        <ele>127</ele>
        <time>2017-10-15T06:40:00.000Z</time>
      </trkpt>
      <trkpt lat="47.86367" lon="2.2764">
        <ele>127</ele>
        <time>2017-10-15T06:40:02.000Z</time>
      </trkpt>
      <trkpt lat="47.86374" lon="2.27631">
        <ele>127</ele>
        <time>2017-10-15T06:40:04.000Z</time>
      </trkpt>
      <trkpt lat="47.86379" lon="2.27611">
        <ele>126</ele>
        <time>2017-10-15T06:40:07.000Z</time>
      </trkpt>
      <trkpt lat="47.86382" lon="2.27589">
        <ele>126</ele>
        <time>2017-10-15T06:40:10.000Z</time>
      </trkpt>
      <trkpt lat="47.86389" lon="2.27519">
        <ele>125</ele>
        <time>2017-10-15T06:40:20.000Z</time>
      </trkpt>
      <trkpt lat="47.8639" lon="2.27512">
        <ele>125</ele>
        <time>2017-10-15T06:40:21.000Z</time>
      </trkpt>
      <trkpt lat="47.86397" lon="2.27445">
        <ele>125</ele>
        <time>2017-10-15T06:40:30.000Z</time>
      </trkpt>
      <trkpt lat="47.86397" lon="2.27437">
        <ele>124</ele>
        <time>2017-10-15T06:40:31.000Z</time>
      </trkpt>
      <trkpt lat="47.86404" lon="2.27368">
        <ele>124</ele>
        <time>2017-10-15T06:40:40.000Z</time>
      </trkpt>
      <trkpt lat="47.86404" lon="2.27361">
        <ele>124</ele>
        <time>2017-10-15T06:40:41.000Z</time>
      </trkpt>
      <trkpt lat="47.86414" lon="2.27301">
        <ele>124</ele>
        <time>2017-10-15T06:40:49.000Z</time>
      </trkpt>
      <trkpt lat="47.86417" lon="2.27295">
        <ele>124</ele>
        <time>2017-10-15T06:40:50.000Z</time>
      </trkpt>
      <trkpt lat="47.86449" lon="2.2724">
        <ele>123</ele>
        <time>2017-10-15T06:40:59.000Z</time>
      </trkpt>
      <trkpt lat="47.86452" lon="2.27233">
        <ele>123</ele>
        <time>2017-10-15T06:41:00.000Z</time>
      </trkpt>
      <trkpt lat="47.86464" lon="2.27205">
        <ele>123</ele>
        <time>2017-10-15T06:41:04.000Z</time>
      </trkpt>
      <trkpt lat="47.86477" lon="2.27165">
        <ele>124</ele>
        <time>2017-10-15T06:41:09.000Z</time>
      </trkpt>
      <trkpt lat="47.86481" lon="2.27131">
        <ele>125</ele>
        <time>2017-10-15T06:41:13.000Z</time>
      </trkpt>
      <trkpt lat="47.86477" lon="2.27105">
        <ele>125</ele>
        <time>2017-10-15T06:41:16.000Z</time>
      </trkpt>
      <trkpt lat="47.86462" lon="2.27056">
        <ele>125</ele>
        <time>2017-10-15T06:41:22.000Z</time>
      </trkpt>
      <trkpt lat="47.86455" lon="2.2702">
        <ele>125</ele>
        <time>2017-10-15T06:41:26.000Z</time>
      </trkpt>
      <trkpt lat="47.86465" lon="2.26998">
        <ele>125</ele>
        <time>2017-10-15T06:41:29.000Z</time>
      </trkpt>
      <trkpt lat="47.86504" lon="2.26949">
        <ele>125</ele>
        <time>2017-10-15T06:41:37.000Z</time>
      </trkpt>
      <trkpt lat="47.86509" lon="2.26942">
        <ele>125</ele>
        <time>2017-10-15T06:41:38.000Z</time>
      </trkpt>
      <trkpt lat="47.86543" lon="2.26897">
        <ele>125</ele>
        <time>2017-10-15T06:41:45.000Z</time>
      </trkpt>
      <trkpt lat="47.86548" lon="2.26891">
        <ele>125</ele>
        <time>2017-10-15T06:41:46.000Z</time>
      </trkpt>
      <trkpt lat="47.86582" lon="2.26844">
        <ele>125</ele>
        <time>2017-10-15T06:41:53.000Z</time>
      </trkpt>
      <trkpt lat="47.86587" lon="2.26837">
        <ele>125</ele>
        <time>2017-10-15T06:41:54.000Z</time>
      </trkpt>
      <trkpt lat="47.86595" lon="2.26821">
        <ele>125</ele>
        <time>2017-10-15T06:41:56.000Z</time>
      </trkpt>
      <trkpt lat="47.86622" lon="2.26764">
        <ele>124</ele>
        <time>2017-10-15T06:42:03.000Z</time>
      </trkpt>
      <trkpt lat="47.86626" lon="2.26756">
        <ele>124</ele>
        <time>2017-10-15T06:42:04.000Z</time>
      </trkpt>
      <trkpt lat="47.86653" lon="2.26697">
        <ele>122</ele>
        <time>2017-10-15T06:42:11.000Z</time>
      </trkpt>
      <trkpt lat="47.86657" lon="2.2669">
        <ele>122</ele>
        <time>2017-10-15T06:42:12.000Z</time>
      </trkpt>
      <trkpt lat="47.86664" lon="2.26666">
        <ele>122</ele>
        <time>2017-10-15T06:42:15.000Z</time>
      </trkpt>
      <trkpt lat="47.86662" lon="2.26621">
        <ele>122</ele>
        <time>2017-10-15T06:42:20.000Z</time>
      </trkpt>
      <trkpt lat="47.86652" lon="2.26554">
        <ele>123</ele>
        <time>2017-10-15T06:42:27.000Z</time>
      </trkpt>
      <trkpt lat="47.86651" lon="2.26545">
        <ele>123</ele>
        <time>2017-10-15T06:42:28.000Z</time>
      </trkpt>
      <trkpt lat="47.86641" lon="2.26476">
        <ele>124</ele>
        <time>2017-10-15T06:42:35.000Z</time>
      </trkpt>
      <trkpt lat="47.86639" lon="2.26466">
        <ele>124</ele>
        <time>2017-10-15T06:42:36.000Z</time>
      </trkpt>
      <trkpt lat="47.86628" lon="2.26397">
        <ele>124</ele>
        <time>2017-10-15T06:42:43.000Z</time>
      </trkpt>
      <trkpt lat="47.86626" lon="2.26387">
        <ele>124</ele>
        <time>2017-10-15T06:42:44.000Z</time>
      </trkpt>
      <trkpt lat="47.86625" lon="2.26367">
        <ele>125</ele>
        <time>2017-10-15T06:42:46.000Z</time>
      </trkpt>
      <trkpt lat="47.86631" lon="2.26351">
        <ele>124</ele>
        <time>2017-10-15T06:42:48.000Z</time>
      </trkpt>
      <trkpt lat="47.86649" lon="2.26337">
        <ele>124</ele>
        <time>2017-10-15T06:42:51.000Z</time>
      </trkpt>
      <trkpt lat="47.86693" lon="2.26308">
        <ele>124</ele>
        <time>2017-10-15T06:42:58.000Z</time>
      </trkpt>
      <trkpt lat="47.86698" lon="2.26301">
        <ele>124</ele>
        <time>2017-10-15T06:42:59.000Z</time>
      </trkpt>
      <trkpt lat="47.86706" lon="2.26284">
        <ele>124</ele>
        <time>2017-10-15T06:43:01.000Z</time>
      </trkpt>
      <trkpt lat="47.86718" lon="2.26214">
        <ele>124</ele>
        <time>2017-10-15T06:43:08.000Z</time>
      </trkpt>
      <trkpt lat="47.86719" lon="2.26204">
        <ele>124</ele>
        <time>2017-10-15T06:43:09.000Z</time>
      </trkpt>
      <trkpt lat="47.86729" lon="2.26134">
        <ele>124</ele>
        <time>2017-10-15T06:43:16.000Z</time>
      </trkpt>
      <trkpt lat="47.86731" lon="2.26123">
        <ele>124</ele>
        <time>2017-10-15T06:43:17.000Z</time>
      </trkpt>
      <trkpt lat="47.86739" lon="2.26052">
        <ele>123</ele>
        <time>2017-10-15T06:43:24.000Z</time>
      </trkpt>
      <trkpt lat="47.8674" lon="2.26042">
        <ele>123</ele>
        <time>2017-10-15T06:43:25.000Z</time>
      </trkpt>
      <trkpt lat="47.86753" lon="2.25983">
        <ele>123</ele>
        <time>2017-10-15T06:43:31.000Z</time>
      </trkpt>
      <trkpt lat="47.86757" lon="2.25975">
        <ele>123</ele>
        <time>2017-10-15T06:43:32.000Z</time>
      </trkpt>
      <trkpt lat="47.86767" lon="2.25961">
        <ele>123</ele>
        <time>2017-10-15T06:43:34.000Z</time>
      </trkpt>
      <trkpt lat="47.86796" lon="2.25935">
        <ele>122</ele>
        <time>2017-10-15T06:43:39.000Z</time>
      </trkpt>
      <trkpt lat="47.86844" lon="2.25921">
        <ele>122</ele>
        <time>2017-10-15T06:43:46.000Z</time>
      </trkpt>
      <trkpt lat="47.86851" lon="2.25919">
        <ele>122</ele>
        <time>2017-10-15T06:43:47.000Z</time>
      </trkpt>
      <trkpt lat="47.86899" lon="2.25905">
        <ele>123</ele>
        <time>2017-10-15T06:43:54.000Z</time>
      </trkpt>
      <trkpt lat="47.86906" lon="2.25903">
        <ele>123</ele>
        <time>2017-10-15T06:43:55.000Z</time>
      </trkpt>
      <trkpt lat="47.86954" lon="2.2589">
        <ele>122</ele>
        <time>2017-10-15T06:44:02.000Z</time>
      </trkpt>
      <trkpt lat="47.86961" lon="2.25889">
        <ele>122</ele>
        <time>2017-10-15T06:44:03.000Z</time>
      </trkpt>
      <trkpt lat="47.86968" lon="2.25889">
        <ele>122</ele>
        <time>2017-10-15T06:44:04.000Z</time>
      </trkpt>
      <trkpt lat="47.87016" lon="2.25893">
        <ele>122</ele>
        <time>2017-10-15T06:44:11.000Z</time>
      </trkpt>
      <trkpt lat="47.87023" lon="2.25894">
        <ele>122</ele>
        <time>2017-10-15T06:44:12.000Z</time>
      </trkpt>
      <trkpt lat="47.87066" lon="2.25887">
        <ele>122</ele>
        <time>2017-10-15T06:44:18.000Z</time>
      </trkpt>
      <trkpt lat="47.87073" lon="2.25885">
        <ele>122</ele>
        <time>2017-10-15T06:44:19.000Z</time>
      </trkpt>
      <trkpt lat="47.87123" lon="2.25866">
        <ele>122</ele>
        <time>2017-10-15T06:44:26.000Z</time>
      </trkpt>
      <trkpt lat="47.8713" lon="2.25864">
        <ele>122</ele>
        <time>2017-10-15T06:44:27.000Z</time>
      </trkpt>
      <trkpt lat="47.87179" lon="2.25844">
        <ele>121</ele>
        <time>2017-10-15T06:44:34.000Z</time>
      </trkpt>
      <trkpt lat="47.87186" lon="2.25841">
        <ele>121</ele>
        <time>2017-10-15T06:44:35.000Z</time>
      </trkpt>
      <trkpt lat="47.8722" lon="2.25834">
        <ele>121</ele>
        <time>2017-10-15T06:44:40.000Z</time>
      </trkpt>
      <trkpt lat="47.87268" lon="2.25845">
        <ele>121</ele>
        <time>2017-10-15T06:44:47.000Z</time>
      </trkpt>
      <trkpt lat="47.87275" lon="2.25848">
        <ele>121</ele>
        <time>2017-10-15T06:44:48.000Z</time>
      </trkpt>
      <trkpt lat="47.87289" lon="2.25853">
        <ele>121</ele>
        <time>2017-10-15T06:44:50.000Z</time>
      </trkpt>
      <trkpt lat="47.87328" lon="2.25881">
        <ele>121</ele>
        <time>2017-10-15T06:44:56.000Z</time>
      </trkpt>
      <trkpt lat="47.87334" lon="2.25886">
        <ele>121</ele>
        <time>2017-10-15T06:44:57.000Z</time>
      </trkpt>
      <trkpt lat="47.87378" lon="2.25925">
        <ele>122</ele>
        <time>2017-10-15T06:45:04.000Z</time>
      </trkpt>
      <trkpt lat="47.87384" lon="2.25931">
        <ele>122</ele>
        <time>2017-10-15T06:45:05.000Z</time>
      </trkpt>
      <trkpt lat="47.8741" lon="2.25949">
        <ele>123</ele>
        <time>2017-10-15T06:45:09.000Z</time>
      </trkpt>
      <trkpt lat="47.87431" lon="2.2595">
        <ele>123</ele>
        <time>2017-10-15T06:45:12.000Z</time>
      </trkpt>
      <trkpt lat="47.8748" lon="2.25935">
        <ele>123</ele>
        <time>2017-10-15T06:45:19.000Z</time>
      </trkpt>
      <trkpt lat="47.87487" lon="2.25932">
        <ele>123</ele>
        <time>2017-10-15T06:45:20.000Z</time>
      </trkpt>
      <trkpt lat="47.87537" lon="2.25911">
        <ele>123</ele>
        <time>2017-10-15T06:45:27.000Z</time>
      </trkpt>
      <trkpt lat="47.87544" lon="2.25908">
        <ele>123</ele>
        <time>2017-10-15T06:45:28.000Z</time>
      </trkpt>
      <trkpt lat="47.87592" lon="2.25888">
        <ele>123</ele>
        <time>2017-10-15T06:45:35.000Z</time>
      </trkpt>
      <trkpt lat="47.87599" lon="2.25885">
        <ele>123</ele>
        <time>2017-10-15T06:45:36.000Z</time>
      </trkpt>
      <trkpt lat="47.87645" lon="2.25864">
        <ele>122</ele>
        <time>2017-10-15T06:45:43.000Z</time>
      </trkpt>
      <trkpt lat="47.87651" lon="2.2586">
        <ele>122</ele>
        <time>2017-10-15T06:45:44.000Z</time>
      </trkpt>
      <trkpt lat="47.87664" lon="2.25853">
        <ele>122</ele>
        <time>2017-10-15T06:45:46.000Z</time>
      </trkpt>
      <trkpt lat="47.87711" lon="2.2583">
        <ele>121</ele>
        <time>2017-10-15T06:45:53.000Z</time>
      </trkpt>
      <trkpt lat="47.87717" lon="2.25827">
        <ele>121</ele>
        <time>2017-10-15T06:45:54.000Z</time>
      </trkpt>
      <trkpt lat="47.87765" lon="2.25804">
        <ele>121</ele>
        <time>2017-10-15T06:46:01.000Z</time>
      </trkpt>
      <trkpt lat="47.87772" lon="2.25802">
        <ele>121</ele>
        <time>2017-10-15T06:46:02.000Z</time>
      </trkpt>
      <trkpt lat="47.87818" lon="2.25779">
        <ele>120</ele>
        <time>2017-10-15T06:46:09.000Z</time>
      </trkpt>
      <trkpt lat="47.87824" lon="2.25773">
        <ele>120</ele>
        <time>2017-10-15T06:46:10.000Z</time>
      </trkpt>
      <trkpt lat="47.87862" lon="2.2573">
        <ele>120</ele>
        <time>2017-10-15T06:46:17.000Z</time>
      </trkpt>
      <trkpt lat="47.87868" lon="2.25723">
        <ele>120</ele>
        <time>2017-10-15T06:46:18.000Z</time>
      </trkpt>
      <trkpt lat="47.87883" lon="2.25703">
        <ele>120</ele>
        <time>2017-10-15T06:46:21.000Z</time>
      </trkpt>
      <trkpt lat="47.87911" lon="2.25648">
        <ele>120</ele>
        <time>2017-10-15T06:46:28.000Z</time>
      </trkpt>
      <trkpt lat="47.87915" lon="2.2564">
        <ele>120</ele>
        <time>2017-10-15T06:46:29.000Z</time>
      </trkpt>
      <trkpt lat="47.87943" lon="2.2558">
        <ele>120</ele>
        <time>2017-10-15T06:46:36.000Z</time>
      </trkpt>
      <trkpt lat="47.87946" lon="2.25572">
        <ele>120</ele>
        <time>2017-10-15T06:46:37.000Z</time>
      </trkpt>
      <trkpt lat="47.87962" lon="2.25537">
        <ele>120</ele>
        <time>2017-10-15T06:46:41.000Z</time>
      </trkpt>
      <trkpt lat="47.87986" lon="2.25475">
        <ele>120</ele>
        <time>2017-10-15T06:46:48.000Z</time>
      </trkpt>
      <trkpt lat="47.87989" lon="2.25466">
        <ele>120</ele>
        <time>2017-10-15T06:46:49.000Z</time>
      </trkpt>
      <trkpt lat="47.88013" lon="2.25405">
        <ele>121</ele>
        <time>2017-10-15T06:46:56.000Z</time>
      </trkpt>
      <trkpt lat="47.88017" lon="2.25396">
        <ele>120</ele>
        <time>2017-10-15T06:46:57.000Z</time>
      </trkpt>
      <trkpt lat="47.88044" lon="2.25338">
        <ele>120</ele>
        <time>2017-10-15T06:47:04.000Z</time>
      </trkpt>
      <trkpt lat="47.88048" lon="2.2533">
        <ele>120</ele>
        <time>2017-10-15T06:47:05.000Z</time>
      </trkpt>
      <trkpt lat="47.88057" lon="2.25314">
        <ele>120</ele>
        <time>2017-10-15T06:47:07.000Z</time>
      </trkpt>
      <trkpt lat="47.88091" lon="2.2526">
        <ele>120</ele>
        <time>2017-10-15T06:47:14.000Z</time>
      </trkpt>
      <trkpt lat="47.88095" lon="2.25252">
        <ele>120</ele>
        <time>2017-10-15T06:47:15.000Z</time>
      </trkpt>
      <trkpt lat="47.88125" lon="2.25195">
        <ele>119</ele>
        <time>2017-10-15T06:47:22.000Z</time>
      </trkpt>
      <trkpt lat="47.88129" lon="2.25187">
        <ele>119</ele>
        <time>2017-10-15T06:47:23.000Z</time>
      </trkpt>
      <trkpt lat="47.88131" lon="2.25179">
        <ele>119</ele>
        <time>2017-10-15T06:47:24.000Z</time>
      </trkpt>
      <trkpt lat="47.8813" lon="2.25161">
        <ele>119</ele>
        <time>2017-10-15T06:47:26.000Z</time>
      </trkpt>
      <trkpt lat="47.88107" lon="2.25113">
        <ele>119</ele>
        <time>2017-10-15T06:47:32.000Z</time>
      </trkpt>
      <trkpt lat="47.88102" lon="2.25105">
        <ele>119</ele>
        <time>2017-10-15T06:47:33.000Z</time>
      </trkpt>
      <trkpt lat="47.88067" lon="2.25057">
        <ele>120</ele>
        <time>2017-10-15T06:47:40.000Z</time>
      </trkpt>
      <trkpt lat="47.88062" lon="2.25051">
        <ele>120</ele>
        <time>2017-10-15T06:47:41.000Z</time>
      </trkpt>
      <trkpt lat="47.8805" lon="2.25027">
        <ele>120</ele>
        <time>2017-10-15T06:47:44.000Z</time>
      </trkpt>
      <trkpt lat="47.8805" lon="2.25008">
        <ele>120</ele>
        <time>2017-10-15T06:47:46.000Z</time>
      </trkpt>
      <trkpt lat="47.88068" lon="2.24941">
        <ele>121</ele>
        <time>2017-10-15T06:47:53.000Z</time>
      </trkpt>
      <trkpt lat="47.88071" lon="2.24932">
        <ele>121</ele>
        <time>2017-10-15T06:47:54.000Z</time>
      </trkpt>
      <trkpt lat="47.88074" lon="2.24912">
        <ele>121</ele>
        <time>2017-10-15T06:47:56.000Z</time>
      </trkpt>
      <trkpt lat="47.88083" lon="2.24844">
        <ele>121</ele>
        <time>2017-10-15T06:48:03.000Z</time>
      </trkpt>
      <trkpt lat="47.88084" lon="2.24834">
        <ele>121</ele>
        <time>2017-10-15T06:48:04.000Z</time>
      </trkpt>
      <trkpt lat="47.88086" lon="2.24804">
        <ele>121</ele>
        <time>2017-10-15T06:48:07.000Z</time>
      </trkpt>
      <trkpt lat="47.88092" lon="2.24728">
        <ele>122</ele>
        <time>2017-10-15T06:48:14.000Z</time>
      </trkpt>
      <trkpt lat="47.88093" lon="2.24718">
        <ele>122</ele>
        <time>2017-10-15T06:48:15.000Z</time>
      </trkpt>
      <trkpt lat="47.88098" lon="2.24645">
        <ele>123</ele>
        <time>2017-10-15T06:48:22.000Z</time>
      </trkpt>
      <trkpt lat="47.881" lon="2.24635">
        <ele>123</ele>
        <time>2017-10-15T06:48:23.000Z</time>
      </trkpt>
      <trkpt lat="47.88113" lon="2.24565">
        <ele>123</ele>
        <time>2017-10-15T06:48:30.000Z</time>
      </trkpt>
      <trkpt lat="47.88115" lon="2.24555">
        <ele>123</ele>
        <time>2017-10-15T06:48:31.000Z</time>
      </trkpt>
      <trkpt lat="47.88133" lon="2.24484">
        <ele>124</ele>
        <time>2017-10-15T06:48:38.000Z</time>
      </trkpt>
      <trkpt lat="47.88136" lon="2.24474">
        <ele>124</ele>
        <time>2017-10-15T06:48:39.000Z</time>
      </trkpt>
      <trkpt lat="47.88154" lon="2.24404">
        <ele>124</ele>
        <time>2017-10-15T06:48:46.000Z</time>
      </trkpt>
      <trkpt lat="47.88157" lon="2.24394">
        <ele>125</ele>
        <time>2017-10-15T06:48:47.000Z</time>
      </trkpt>
      <trkpt lat="47.88177" lon="2.24326">
        <ele>124</ele>
        <time>2017-10-15T06:48:54.000Z</time>
      </trkpt>
      <trkpt lat="47.88179" lon="2.24317">
        <ele>124</ele>
        <time>2017-10-15T06:48:55.000Z</time>
      </trkpt>
      <trkpt lat="47.88198" lon="2.24261">
        <ele>123</ele>
        <time>2017-10-15T06:49:01.000Z</time>
      </trkpt>
      <trkpt lat="47.88202" lon="2.24253">
        <ele>123</ele>
        <time>2017-10-15T06:49:02.000Z</time>
      </trkpt>
      <trkpt lat="47.88225" lon="2.24191">
        <ele>123</ele>
        <time>2017-10-15T06:49:09.000Z</time>
      </trkpt>
      <trkpt lat="47.88227" lon="2.24182">
        <ele>122</ele>
        <time>2017-10-15T06:49:10.000Z</time>
      </trkpt>
      <trkpt lat="47.88237" lon="2.24143">
        <ele>122</ele>
        <time>2017-10-15T06:49:14.000Z</time>
      </trkpt>
      <trkpt lat="47.8825" lon="2.24079">
        <ele>122</ele>
        <time>2017-10-15T06:49:21.000Z</time>
      </trkpt>
      <trkpt lat="47.88253" lon="2.2407">
        <ele>121</ele>
        <time>2017-10-15T06:49:22.000Z</time>
      </trkpt>
      <trkpt lat="47.88269" lon="2.23999">
        <ele>120</ele>
        <time>2017-10-15T06:49:30.000Z</time>
      </trkpt>
      <trkpt lat="47.88271" lon="2.2399">
        <ele>120</ele>
        <time>2017-10-15T06:49:31.000Z</time>
      </trkpt>
      <trkpt lat="47.88275" lon="2.23962">
        <ele>120</ele>
        <time>2017-10-15T06:49:34.000Z</time>
      </trkpt>
      <trkpt lat="47.88267" lon="2.23925">
        <ele>120</ele>
        <time>2017-10-15T06:49:38.000Z</time>
      </trkpt>
      <trkpt lat="47.88246" lon="2.23864">
        <ele>119</ele>
        <time>2017-10-15T06:49:45.000Z</time>
      </trkpt>
      <trkpt lat="47.88243" lon="2.23856">
        <ele>119</ele>
        <time>2017-10-15T06:49:46.000Z</time>
      </trkpt>
      <trkpt lat="47.88232" lon="2.23832">
        <ele>119</ele>
        <time>2017-10-15T06:49:49.000Z</time>
      </trkpt>
      <trkpt lat="47.88203" lon="2.23771">
        <ele>118</ele>
        <time>2017-10-15T06:49:57.000Z</time>
      </trkpt>
      <trkpt lat="47.88199" lon="2.23763">
        <ele>118</ele>
        <time>2017-10-15T06:49:58.000Z</time>
      </trkpt>
      <trkpt lat="47.88173" lon="2.23702">
        <ele>118</ele>
        <time>2017-10-15T06:50:06.000Z</time>
      </trkpt>
      <trkpt lat="47.8817" lon="2.23694">
        <ele>118</ele>
        <time>2017-10-15T06:50:07.000Z</time>
      </trkpt>
      <trkpt lat="47.88157" lon="2.23675">
        <ele>117</ele>
        <time>2017-10-15T06:50:10.000Z</time>
      </trkpt>
      <trkpt lat="47.88139" lon="2.23667">
        <ele>117</ele>
        <time>2017-10-15T06:50:13.000Z</time>
      </trkpt>
      <trkpt lat="47.88107" lon="2.23674">
        <ele>116</ele>
        <time>2017-10-15T06:50:18.000Z</time>
      </trkpt>
      <trkpt lat="47.88062" lon="2.23693">
        <ele>115</ele>
        <time>2017-10-15T06:50:24.000Z</time>
      </trkpt>
      <trkpt lat="47.88055" lon="2.23696">
        <ele>115</ele>
        <time>2017-10-15T06:50:25.000Z</time>
      </trkpt>
      <trkpt lat="47.88015" lon="2.23709">
        <ele>116</ele>
        <time>2017-10-15T06:50:32.000Z</time>
      </trkpt>
      <trkpt lat="47.88008" lon="2.23699">
        <ele>118</ele>
        <time>2017-10-15T06:50:37.000Z</time>
      </trkpt>
      <trkpt lat="47.88008" lon="2.23688">
        <ele>119</ele>
        <time>2017-10-15T06:50:41.000Z</time>
      </trkpt>
      <trkpt lat="47.88009" lon="2.23647">
        <ele>119</ele>
        <time>2017-10-15T06:50:47.000Z</time>
      </trkpt>
      <trkpt lat="47.87996" lon="2.23575">
        <ele>119</ele>
        <time>2017-10-15T06:50:55.000Z</time>
      </trkpt>
      <trkpt lat="47.87995" lon="2.23565">
        <ele>119</ele>
        <time>2017-10-15T06:50:56.000Z</time>
      </trkpt>
      <trkpt lat="47.8798" lon="2.23492">
        <ele>120</ele>
        <time>2017-10-15T06:51:04.000Z</time>
      </trkpt>
      <trkpt lat="47.87979" lon="2.23483">
        <ele>120</ele>
        <time>2017-10-15T06:51:05.000Z</time>
      </trkpt>
      <trkpt lat="47.87965" lon="2.23428">
        <ele>121</ele>
        <time>2017-10-15T06:51:11.000Z</time>
      </trkpt>
      <trkpt lat="47.87962" lon="2.23419">
        <ele>121</ele>
        <time>2017-10-15T06:51:12.000Z</time>
      </trkpt>
      <trkpt lat="47.87956" lon="2.23392">
        <ele>121</ele>
        <time>2017-10-15T06:51:15.000Z</time>
      </trkpt>
      <trkpt lat="47.87964" lon="2.23376">
        <ele>121</ele>
        <time>2017-10-15T06:51:17.000Z</time>
      </trkpt>
      <trkpt lat="47.87971" lon="2.23357">
        <ele>121</ele>
        <time>2017-10-15T06:51:19.000Z</time>
      </trkpt>
      <trkpt lat="47.87974" lon="2.23288">
        <ele>119</ele>
        <time>2017-10-15T06:51:25.000Z</time>
      </trkpt>
      <trkpt lat="47.87974" lon="2.23277">
        <ele>119</ele>
        <time>2017-10-15T06:51:26.000Z</time>
      </trkpt>
      <trkpt lat="47.87975" lon="2.23206">
        <ele>120</ele>
        <time>2017-10-15T06:51:33.000Z</time>
      </trkpt>
      <trkpt lat="47.87975" lon="2.23195">
        <ele>120</ele>
        <time>2017-10-15T06:51:34.000Z</time>
      </trkpt>
      <trkpt lat="47.87977" lon="2.2312">
        <ele>119</ele>
        <time>2017-10-15T06:51:41.000Z</time>
      </trkpt>
      <trkpt lat="47.87977" lon="2.2311">
        <ele>119</ele>
        <time>2017-10-15T06:51:42.000Z</time>
      </trkpt>
      <trkpt lat="47.87978" lon="2.23037">
        <ele>119</ele>
        <time>2017-10-15T06:51:49.000Z</time>
      </trkpt>
      <trkpt lat="47.87979" lon="2.23027">
        <ele>119</ele>
        <time>2017-10-15T06:51:50.000Z</time>
      </trkpt>
      <trkpt lat="47.87979" lon="2.22966">
        <ele>119</ele>
        <time>2017-10-15T06:51:56.000Z</time>
      </trkpt>
      <trkpt lat="47.87979" lon="2.22956">
        <ele>119</ele>
        <time>2017-10-15T06:51:57.000Z</time>
      </trkpt>
      <trkpt lat="47.87977" lon="2.22883">
        <ele>119</ele>
        <time>2017-10-15T06:52:04.000Z</time>
      </trkpt>
      <trkpt lat="47.87977" lon="2.22873">
        <ele>119</ele>
        <time>2017-10-15T06:52:05.000Z</time>
      </trkpt>
      <trkpt lat="47.87975" lon="2.22802">
        <ele>119</ele>
        <time>2017-10-15T06:52:12.000Z</time>
      </trkpt>
      <trkpt lat="47.87975" lon="2.22792">
        <ele>119</ele>
        <time>2017-10-15T06:52:13.000Z</time>
      </trkpt>
      <trkpt lat="47.87973" lon="2.2272">
        <ele>120</ele>
        <time>2017-10-15T06:52:20.000Z</time>
      </trkpt>
      <trkpt lat="47.87973" lon="2.2271">
        <ele>119</ele>
        <time>2017-10-15T06:52:21.000Z</time>
      </trkpt>
      <trkpt lat="47.8797" lon="2.22672">
        <ele>119</ele>
        <time>2017-10-15T06:52:25.000Z</time>
      </trkpt>
      <trkpt lat="47.87962" lon="2.22658">
        <ele>119</ele>
        <time>2017-10-15T06:52:27.000Z</time>
      </trkpt>
      <trkpt lat="47.87943" lon="2.22652">
        <ele>119</ele>
        <time>2017-10-15T06:52:30.000Z</time>
      </trkpt>
      <trkpt lat="47.87931" lon="2.22648">
        <ele>119</ele>
        <time>2017-10-15T06:52:32.000Z</time>
      </trkpt>
      <trkpt lat="47.87924" lon="2.22634">
        <ele>119</ele>
        <time>2017-10-15T06:52:34.000Z</time>
      </trkpt>
      <trkpt lat="47.87924" lon="2.22595">
        <ele>120</ele>
        <time>2017-10-15T06:52:38.000Z</time>
      </trkpt>
      <trkpt lat="47.87924" lon="2.22526">
        <ele>120</ele>
        <time>2017-10-15T06:52:45.000Z</time>
      </trkpt>
      <trkpt lat="47.87923" lon="2.22516">
        <ele>120</ele>
        <time>2017-10-15T06:52:46.000Z</time>
      </trkpt>
      <trkpt lat="47.87922" lon="2.22506">
        <ele>120</ele>
        <time>2017-10-15T06:52:47.000Z</time>
      </trkpt>
      <trkpt lat="47.87914" lon="2.22438">
        <ele>120</ele>
        <time>2017-10-15T06:52:54.000Z</time>
      </trkpt>
      <trkpt lat="47.87913" lon="2.22428">
        <ele>120</ele>
        <time>2017-10-15T06:52:55.000Z</time>
      </trkpt>
      <trkpt lat="47.87902" lon="2.22358">
        <ele>120</ele>
        <time>2017-10-15T06:53:02.000Z</time>
      </trkpt>
      <trkpt lat="47.879" lon="2.22347">
        <ele>120</ele>
        <time>2017-10-15T06:53:03.000Z</time>
      </trkpt>
      <trkpt lat="47.87893" lon="2.22318">
        <ele>120</ele>
        <time>2017-10-15T06:53:06.000Z</time>
      </trkpt>
      <trkpt lat="47.87868" lon="2.22256">
        <ele>120</ele>
        <time>2017-10-15T06:53:13.000Z</time>
      </trkpt>
      <trkpt lat="47.87865" lon="2.22247">
        <ele>120</ele>
        <time>2017-10-15T06:53:14.000Z</time>
      </trkpt>
      <trkpt lat="47.87841" lon="2.22186">
        <ele>120</ele>
        <time>2017-10-15T06:53:21.000Z</time>
      </trkpt>
      <trkpt lat="47.87837" lon="2.22177">
        <ele>120</ele>
        <time>2017-10-15T06:53:22.000Z</time>
      </trkpt>
      <trkpt lat="47.87811" lon="2.22113">
        <ele>119</ele>
        <time>2017-10-15T06:53:29.000Z</time>
      </trkpt>
      <trkpt lat="47.87807" lon="2.22104">
        <ele>119</ele>
        <time>2017-10-15T06:53:30.000Z</time>
      </trkpt>
      <trkpt lat="47.87786" lon="2.22038">
        <ele>119</ele>
        <time>2017-10-15T06:53:37.000Z</time>
      </trkpt>
      <trkpt lat="47.87784" lon="2.22028">
        <ele>119</ele>
        <time>2017-10-15T06:53:38.000Z</time>
      </trkpt>
      <trkpt lat="47.87782" lon="2.22019">
        <ele>119</ele>
        <time>2017-10-15T06:53:39.000Z</time>
      </trkpt>
      <trkpt lat="47.87766" lon="2.21947">
        <ele>119</ele>
        <time>2017-10-15T06:53:46.000Z</time>
      </trkpt>
      <trkpt lat="47.87764" lon="2.21936">
        <ele>119</ele>
        <time>2017-10-15T06:53:47.000Z</time>
      </trkpt>
      <trkpt lat="47.87745" lon="2.21873">
        <ele>119</ele>
        <time>2017-10-15T06:53:53.000Z</time>
      </trkpt>
      <trkpt lat="47.8774" lon="2.21865">
        <ele>119</ele>
        <time>2017-10-15T06:53:54.000Z</time>
      </trkpt>
      <trkpt lat="47.87724" lon="2.21844">
        <ele>119</ele>
        <time>2017-10-15T06:53:57.000Z</time>
      </trkpt>
      <trkpt lat="47.87685" lon="2.21803">
        <ele>120</ele>
        <time>2017-10-15T06:54:04.000Z</time>
      </trkpt>
      <trkpt lat="47.87683" lon="2.21794">
        <ele>120</ele>
        <time>2017-10-15T06:54:05.000Z</time>
      </trkpt>
      <trkpt lat="47.87682" lon="2.21784">
        <ele>120</ele>
        <time>2017-10-15T06:54:06.000Z</time>
      </trkpt>
      <trkpt lat="47.8768" lon="2.21711">
        <ele>120</ele>
        <time>2017-10-15T06:54:13.000Z</time>
      </trkpt>
      <trkpt lat="47.8768" lon="2.21701">
        <ele>120</ele>
        <time>2017-10-15T06:54:14.000Z</time>
      </trkpt>
      <trkpt lat="47.8768" lon="2.2167">
        <ele>119</ele>
        <time>2017-10-15T06:54:17.000Z</time>
      </trkpt>
      <trkpt lat="47.8769" lon="2.21655">
        <ele>119</ele>
        <time>2017-10-15T06:54:19.000Z</time>
      </trkpt>
      <trkpt lat="47.8774" lon="2.21634">
        <ele>117</ele>
        <time>2017-10-15T06:54:26.000Z</time>
      </trkpt>
      <trkpt lat="47.87747" lon="2.2163">
        <ele>117</ele>
        <time>2017-10-15T06:54:27.000Z</time>
      </trkpt>
      <trkpt lat="47.87793" lon="2.21611">
        <ele>115</ele>
        <time>2017-10-15T06:54:33.000Z</time>
      </trkpt>
      <trkpt lat="47.878" lon="2.21608">
        <ele>115</ele>
        <time>2017-10-15T06:54:34.000Z</time>
      </trkpt>
      <trkpt lat="47.87846" lon="2.21588">
        <ele>114</ele>
        <time>2017-10-15T06:54:40.000Z</time>
      </trkpt>
      <trkpt lat="47.87854" lon="2.21585">
        <ele>114</ele>
        <time>2017-10-15T06:54:41.000Z</time>
      </trkpt>
      <trkpt lat="47.87902" lon="2.21567">
        <ele>114</ele>
        <time>2017-10-15T06:54:48.000Z</time>
      </trkpt>
      <trkpt lat="47.87909" lon="2.21564">
        <ele>115</ele>
        <time>2017-10-15T06:54:49.000Z</time>
      </trkpt>
      <trkpt lat="47.87954" lon="2.21545">
        <ele>117</ele>
        <time>2017-10-15T06:54:56.000Z</time>
      </trkpt>
      <trkpt lat="47.8796" lon="2.21542">
        <ele>118</ele>
        <time>2017-10-15T06:54:57.000Z</time>
      </trkpt>
      <trkpt lat="47.88007" lon="2.21522">
        <ele>119</ele>
        <time>2017-10-15T06:55:04.000Z</time>
      </trkpt>
      <trkpt lat="47.88013" lon="2.2152">
        <ele>120</ele>
        <time>2017-10-15T06:55:05.000Z</time>
      </trkpt>
      <trkpt lat="47.88061" lon="2.21501">
        <ele>120</ele>
        <time>2017-10-15T06:55:12.000Z</time>
      </trkpt>
      <trkpt lat="47.88068" lon="2.21498">
        <ele>121</ele>
        <time>2017-10-15T06:55:13.000Z</time>
      </trkpt>
      <trkpt lat="47.88113" lon="2.21481">
        <ele>121</ele>
        <time>2017-10-15T06:55:20.000Z</time>
      </trkpt>
      <trkpt lat="47.8812" lon="2.21478">
        <ele>121</ele>
        <time>2017-10-15T06:55:21.000Z</time>
      </trkpt>
      <trkpt lat="47.88165" lon="2.21457">
        <ele>121</ele>
        <time>2017-10-15T06:55:28.000Z</time>
      </trkpt>
      <trkpt lat="47.88171" lon="2.21453">
        <ele>121</ele>
        <time>2017-10-15T06:55:29.000Z</time>
      </trkpt>
      <trkpt lat="47.88216" lon="2.21427">
        <ele>122</ele>
        <time>2017-10-15T06:55:36.000Z</time>
      </trkpt>
      <trkpt lat="47.88222" lon="2.21423">
        <ele>122</ele>
        <time>2017-10-15T06:55:37.000Z</time>
      </trkpt>
      <trkpt lat="47.88266" lon="2.21398">
        <ele>122</ele>
        <time>2017-10-15T06:55:44.000Z</time>
      </trkpt>
      <trkpt lat="47.88273" lon="2.21394">
        <ele>122</ele>
        <time>2017-10-15T06:55:45.000Z</time>
      </trkpt>
      <trkpt lat="47.88318" lon="2.21372">
        <ele>122</ele>
        <time>2017-10-15T06:55:52.000Z</time>
      </trkpt>
      <trkpt lat="47.88324" lon="2.21369">
        <ele>122</ele>
        <time>2017-10-15T06:55:53.000Z</time>
      </trkpt>
      <trkpt lat="47.88369" lon="2.21348">
        <ele>122</ele>
        <time>2017-10-15T06:56:00.000Z</time>
      </trkpt>
      <trkpt lat="47.88375" lon="2.21345">
        <ele>122</ele>
        <time>2017-10-15T06:56:01.000Z</time>
      </trkpt>
      <trkpt lat="47.88421" lon="2.2133">
        <ele>122</ele>
        <time>2017-10-15T06:56:08.000Z</time>
      </trkpt>
      <trkpt lat="47.88428" lon="2.21329">
        <ele>122</ele>
        <time>2017-10-15T06:56:09.000Z</time>
      </trkpt>
      <trkpt lat="47.88476" lon="2.21321">
        <ele>122</ele>
        <time>2017-10-15T06:56:16.000Z</time>
      </trkpt>
      <trkpt lat="47.88483" lon="2.2132">
        <ele>122</ele>
        <time>2017-10-15T06:56:17.000Z</time>
      </trkpt>
      <trkpt lat="47.8853" lon="2.21312">
        <ele>123</ele>
        <time>2017-10-15T06:56:24.000Z</time>
      </trkpt>
      <trkpt lat="47.88537" lon="2.21311">
        <ele>123</ele>
        <time>2017-10-15T06:56:25.000Z</time>
      </trkpt>
      <trkpt lat="47.88585" lon="2.21302">
        <ele>123</ele>
        <time>2017-10-15T06:56:32.000Z</time>
      </trkpt>
      <trkpt lat="47.88591" lon="2.21301">
        <ele>123</ele>
        <time>2017-10-15T06:56:33.000Z</time>
      </trkpt>
      <trkpt lat="47.88638" lon="2.21292">
        <ele>123</ele>
        <time>2017-10-15T06:56:40.000Z</time>
      </trkpt>
      <trkpt lat="47.88644" lon="2.21288">
        <ele>123</ele>
        <time>2017-10-15T06:56:41.000Z</time>
      </trkpt>
      <trkpt lat="47.88652" lon="2.21272">
        <ele>123</ele>
        <time>2017-10-15T06:56:43.000Z</time>
      </trkpt>
      <trkpt lat="47.88649" lon="2.21243">
        <ele>123</ele>
        <time>2017-10-15T06:56:46.000Z</time>
      </trkpt>
      <trkpt lat="47.88631" lon="2.21179">
        <ele>124</ele>
        <time>2017-10-15T06:56:53.000Z</time>
      </trkpt>
      <trkpt lat="47.88628" lon="2.2117">
        <ele>124</ele>
        <time>2017-10-15T06:56:54.000Z</time>
      </trkpt>
      <trkpt lat="47.88618" lon="2.21144">
        <ele>124</ele>
        <time>2017-10-15T06:56:57.000Z</time>
      </trkpt>
      <trkpt lat="47.88596" lon="2.21083">
        <ele>125</ele>
        <time>2017-10-15T06:57:04.000Z</time>
      </trkpt>
      <trkpt lat="47.88593" lon="2.21074">
        <ele>125</ele>
        <time>2017-10-15T06:57:05.000Z</time>
      </trkpt>
      <trkpt lat="47.88572" lon="2.21012">
        <ele>125</ele>
        <time>2017-10-15T06:57:12.000Z</time>
      </trkpt>
      <trkpt lat="47.88569" lon="2.21003">
        <ele>125</ele>
        <time>2017-10-15T06:57:13.000Z</time>
      </trkpt>
      <trkpt lat="47.88548" lon="2.2094">
        <ele>126</ele>
        <time>2017-10-15T06:57:20.000Z</time>
      </trkpt>
      <trkpt lat="47.88545" lon="2.20932">
        <ele>126</ele>
        <time>2017-10-15T06:57:21.000Z</time>
      </trkpt>
      <trkpt lat="47.88526" lon="2.20871">
        <ele>126</ele>
        <time>2017-10-15T06:57:28.000Z</time>
      </trkpt>
      <trkpt lat="47.88523" lon="2.20862">
        <ele>126</ele>
        <time>2017-10-15T06:57:29.000Z</time>
      </trkpt>
      <trkpt lat="47.88504" lon="2.20801">
        <ele>126</ele>
        <time>2017-10-15T06:57:36.000Z</time>
      </trkpt>
      <trkpt lat="47.88501" lon="2.20792">
        <ele>126</ele>
        <time>2017-10-15T06:57:37.000Z</time>
      </trkpt>
      <trkpt lat="47.88478" lon="2.20731">
        <ele>127</ele>
        <time>2017-10-15T06:57:44.000Z</time>
      </trkpt>
      <trkpt lat="47.88474" lon="2.20723">
        <ele>127</ele>
        <time>2017-10-15T06:57:45.000Z</time>
      </trkpt>
      <trkpt lat="47.88446" lon="2.20669">
        <ele>128</ele>
        <time>2017-10-15T06:57:52.000Z</time>
      </trkpt>
      <trkpt lat="47.88442" lon="2.20661">
        <ele>128</ele>
        <time>2017-10-15T06:57:53.000Z</time>
      </trkpt>
      <trkpt lat="47.88415" lon="2.20598">
        <ele>130</ele>
        <time>2017-10-15T06:58:01.000Z</time>
      </trkpt>
      <trkpt lat="47.88412" lon="2.20589">
        <ele>130</ele>
        <time>2017-10-15T06:58:02.000Z</time>
      </trkpt>
      <trkpt lat="47.88397" lon="2.20536">
        <ele>131</ele>
        <time>2017-10-15T06:58:08.000Z</time>
      </trkpt>
      <trkpt lat="47.88388" lon="2.20467">
        <ele>131</ele>
        <time>2017-10-15T06:58:15.000Z</time>
      </trkpt>
      <trkpt lat="47.88388" lon="2.20457">
        <ele>131</ele>
        <time>2017-10-15T06:58:16.000Z</time>
      </trkpt>
      <trkpt lat="47.88382" lon="2.20387">
        <ele>131</ele>
        <time>2017-10-15T06:58:23.000Z</time>
      </trkpt>
      <trkpt lat="47.88381" lon="2.20376">
        <ele>131</ele>
        <time>2017-10-15T06:58:24.000Z</time>
      </trkpt>
      <trkpt lat="47.88374" lon="2.20304">
        <ele>130</ele>
        <time>2017-10-15T06:58:31.000Z</time>
      </trkpt>
      <trkpt lat="47.88372" lon="2.20294">
        <ele>129</ele>
        <time>2017-10-15T06:58:32.000Z</time>
      </trkpt>
      <trkpt lat="47.88365" lon="2.20224">
        <ele>127</ele>
        <time>2017-10-15T06:58:39.000Z</time>
      </trkpt>
      <trkpt lat="47.88364" lon="2.20215">
        <ele>127</ele>
        <time>2017-10-15T06:58:40.000Z</time>
      </trkpt>
      <trkpt lat="47.88358" lon="2.20147">
        <ele>125</ele>
        <time>2017-10-15T06:58:47.000Z</time>
      </trkpt>
      <trkpt lat="47.88356" lon="2.20137">
        <ele>125</ele>
        <time>2017-10-15T06:58:48.000Z</time>
      </trkpt>
      <trkpt lat="47.88348" lon="2.20067">
        <ele>123</ele>
        <time>2017-10-15T06:58:55.000Z</time>
      </trkpt>
      <trkpt lat="47.88347" lon="2.20057">
        <ele>123</ele>
        <time>2017-10-15T06:58:56.000Z</time>
      </trkpt>
      <trkpt lat="47.8834" lon="2.19987">
        <ele>123</ele>
        <time>2017-10-15T06:59:03.000Z</time>
      </trkpt>
      <trkpt lat="47.88338" lon="2.19977">
        <ele>123</ele>
        <time>2017-10-15T06:59:04.000Z</time>
      </trkpt>
      <trkpt lat="47.88331" lon="2.19911">
        <ele>123</ele>
        <time>2017-10-15T06:59:11.000Z</time>
      </trkpt>
      <trkpt lat="47.8833" lon="2.19901">
        <ele>123</ele>
        <time>2017-10-15T06:59:12.000Z</time>
      </trkpt>
      <trkpt lat="47.88325" lon="2.19858">
        <ele>123</ele>
        <time>2017-10-15T06:59:18.000Z</time>
      </trkpt>
      <trkpt lat="47.88309" lon="2.19794">
        <ele>123</ele>
        <time>2017-10-15T06:59:26.000Z</time>
      </trkpt>
      <trkpt lat="47.88307" lon="2.19785">
        <ele>123</ele>
        <time>2017-10-15T06:59:27.000Z</time>
      </trkpt>
      <trkpt lat="47.8829" lon="2.19718">
        <ele>123</ele>
        <time>2017-10-15T06:59:34.000Z</time>
      </trkpt>
      <trkpt lat="47.88287" lon="2.19708">
        <ele>123</ele>
        <time>2017-10-15T06:59:35.000Z</time>
      </trkpt>
      <trkpt lat="47.8827" lon="2.19642">
        <ele>123</ele>
        <time>2017-10-15T06:59:42.000Z</time>
      </trkpt>
      <trkpt lat="47.88268" lon="2.19632">
        <ele>123</ele>
        <time>2017-10-15T06:59:43.000Z</time>
      </trkpt>
      <trkpt lat="47.88253" lon="2.19568">
        <ele>123</ele>
        <time>2017-10-15T06:59:50.000Z</time>
      </trkpt>
      <trkpt lat="47.8825" lon="2.19559">
        <ele>123</ele>
        <time>2017-10-15T06:59:51.000Z</time>
      </trkpt>
      <trkpt lat="47.88234" lon="2.19492">
        <ele>123</ele>
        <time>2017-10-15T06:59:58.000Z</time>
      </trkpt>
      <trkpt lat="47.88232" lon="2.19482">
        <ele>123</ele>
        <time>2017-10-15T06:59:59.000Z</time>
      </trkpt>
      <trkpt lat="47.88214" lon="2.19416">
        <ele>123</ele>
        <time>2017-10-15T07:00:06.000Z</time>
      </trkpt>
      <trkpt lat="47.88212" lon="2.19406">
        <ele>123</ele>
        <time>2017-10-15T07:00:07.000Z</time>
      </trkpt>
      <trkpt lat="47.88196" lon="2.19338">
        <ele>122</ele>
        <time>2017-10-15T07:00:14.000Z</time>
      </trkpt>
      <trkpt lat="47.88194" lon="2.19329">
        <ele>123</ele>
        <time>2017-10-15T07:00:15.000Z</time>
      </trkpt>
      <trkpt lat="47.88178" lon="2.19264">
        <ele>124</ele>
        <time>2017-10-15T07:00:22.000Z</time>
      </trkpt>
      <trkpt lat="47.88176" lon="2.19255">
        <ele>124</ele>
        <time>2017-10-15T07:00:23.000Z</time>
      </trkpt>
      <trkpt lat="47.88158" lon="2.1919">
        <ele>125</ele>
        <time>2017-10-15T07:00:30.000Z</time>
      </trkpt>
      <trkpt lat="47.88156" lon="2.19181">
        <ele>125</ele>
        <time>2017-10-15T07:00:31.000Z</time>
      </trkpt>
      <trkpt lat="47.88141" lon="2.19114">
        <ele>126</ele>
        <time>2017-10-15T07:00:38.000Z</time>
      </trkpt>
      <trkpt lat="47.88139" lon="2.19105">
        <ele>126</ele>
        <time>2017-10-15T07:00:39.000Z</time>
      </trkpt>
      <trkpt lat="47.88121" lon="2.19038">
        <ele>125</ele>
        <time>2017-10-15T07:00:46.000Z</time>
      </trkpt>
      <trkpt lat="47.8812" lon="2.19028">
        <ele>125</ele>
        <time>2017-10-15T07:00:47.000Z</time>
      </trkpt>
      <trkpt lat="47.88103" lon="2.18965">
        <ele>125</ele>
        <time>2017-10-15T07:00:54.000Z</time>
      </trkpt>
      <trkpt lat="47.88101" lon="2.18956">
        <ele>125</ele>
        <time>2017-10-15T07:00:55.000Z</time>
      </trkpt>
      <trkpt lat="47.88085" lon="2.18883">
        <ele>126</ele>
        <time>2017-10-15T07:01:03.000Z</time>
      </trkpt>
      <trkpt lat="47.88082" lon="2.18874">
        <ele>126</ele>
        <time>2017-10-15T07:01:04.000Z</time>
      </trkpt>
      <trkpt lat="47.88065" lon="2.1881">
        <ele>128</ele>
        <time>2017-10-15T07:01:11.000Z</time>
      </trkpt>
      <trkpt lat="47.88063" lon="2.18801">
        <ele>128</ele>
        <time>2017-10-15T07:01:12.000Z</time>
      </trkpt>
      <trkpt lat="47.88047" lon="2.18738">
        <ele>130</ele>
        <time>2017-10-15T07:01:19.000Z</time>
      </trkpt>
      <trkpt lat="47.88044" lon="2.18729">
        <ele>130</ele>
        <time>2017-10-15T07:01:20.000Z</time>
      </trkpt>
      <trkpt lat="47.88028" lon="2.18656">
        <ele>132</ele>
        <time>2017-10-15T07:01:28.000Z</time>
      </trkpt>
      <trkpt lat="47.88026" lon="2.18647">
        <ele>132</ele>
        <time>2017-10-15T07:01:29.000Z</time>
      </trkpt>
      <trkpt lat="47.8801" lon="2.18583">
        <ele>132</ele>
        <time>2017-10-15T07:01:36.000Z</time>
      </trkpt>
      <trkpt lat="47.88008" lon="2.18573">
        <ele>132</ele>
        <time>2017-10-15T07:01:37.000Z</time>
      </trkpt>
      <trkpt lat="47.87991" lon="2.1851">
        <ele>133</ele>
        <time>2017-10-15T07:01:44.000Z</time>
      </trkpt>
      <trkpt lat="47.87988" lon="2.18501">
        <ele>133</ele>
        <time>2017-10-15T07:01:45.000Z</time>
      </trkpt>
      <trkpt lat="47.87972" lon="2.18438">
        <ele>134</ele>
        <time>2017-10-15T07:01:52.000Z</time>
      </trkpt>
      <trkpt lat="47.8797" lon="2.1843">
        <ele>134</ele>
        <time>2017-10-15T07:01:53.000Z</time>
      </trkpt>
      <trkpt lat="47.87954" lon="2.18359">
        <ele>135</ele>
        <time>2017-10-15T07:02:01.000Z</time>
      </trkpt>
      <trkpt lat="47.87951" lon="2.1835">
        <ele>135</ele>
        <time>2017-10-15T07:02:02.000Z</time>
      </trkpt>
      <trkpt lat="47.87936" lon="2.18286">
        <ele>135</ele>
        <time>2017-10-15T07:02:09.000Z</time>
      </trkpt>
      <trkpt lat="47.87934" lon="2.18276">
        <ele>135</ele>
        <time>2017-10-15T07:02:10.000Z</time>
      </trkpt>
      <trkpt lat="47.87919" lon="2.18212">
        <ele>136</ele>
        <time>2017-10-15T07:02:17.000Z</time>
      </trkpt>
      <trkpt lat="47.87916" lon="2.18202">
        <ele>136</ele>
        <time>2017-10-15T07:02:18.000Z</time>
      </trkpt>
      <trkpt lat="47.87901" lon="2.18139">
        <ele>138</ele>
        <time>2017-10-15T07:02:25.000Z</time>
      </trkpt>
      <trkpt lat="47.87898" lon="2.18129">
        <ele>138</ele>
        <time>2017-10-15T07:02:26.000Z</time>
      </trkpt>
      <trkpt lat="47.87883" lon="2.18062">
        <ele>136</ele>
        <time>2017-10-15T07:02:33.000Z</time>
      </trkpt>
      <trkpt lat="47.8788" lon="2.18052">
        <ele>136</ele>
        <time>2017-10-15T07:02:34.000Z</time>
      </trkpt>
      <trkpt lat="47.87864" lon="2.17987">
        <ele>133</ele>
        <time>2017-10-15T07:02:41.000Z</time>
      </trkpt>
      <trkpt lat="47.87862" lon="2.17978">
        <ele>132</ele>
        <time>2017-10-15T07:02:42.000Z</time>
      </trkpt>
      <trkpt lat="47.87846" lon="2.17911">
        <ele>131</ele>
        <time>2017-10-15T07:02:49.000Z</time>
      </trkpt>
      <trkpt lat="47.87843" lon="2.17902">
        <ele>131</ele>
        <time>2017-10-15T07:02:50.000Z</time>
      </trkpt>
      <trkpt lat="47.87827" lon="2.17835">
        <ele>130</ele>
        <time>2017-10-15T07:02:57.000Z</time>
      </trkpt>
      <trkpt lat="47.87825" lon="2.17826">
        <ele>129</ele>
        <time>2017-10-15T07:02:58.000Z</time>
      </trkpt>
      <trkpt lat="47.87809" lon="2.17753">
        <ele>128</ele>
        <time>2017-10-15T07:03:06.000Z</time>
      </trkpt>
      <trkpt lat="47.87807" lon="2.17744">
        <ele>128</ele>
        <time>2017-10-15T07:03:07.000Z</time>
      </trkpt>
      <trkpt lat="47.87788" lon="2.17672">
        <ele>128</ele>
        <time>2017-10-15T07:03:15.000Z</time>
      </trkpt>
      <trkpt lat="47.87786" lon="2.17664">
        <ele>128</ele>
        <time>2017-10-15T07:03:16.000Z</time>
      </trkpt>
      <trkpt lat="47.87767" lon="2.17593">
        <ele>129</ele>
        <time>2017-10-15T07:03:24.000Z</time>
      </trkpt>
      <trkpt lat="47.87766" lon="2.17583">
        <ele>129</ele>
        <time>2017-10-15T07:03:25.000Z</time>
      </trkpt>
      <trkpt lat="47.87751" lon="2.17516">
        <ele>129</ele>
        <time>2017-10-15T07:03:32.000Z</time>
      </trkpt>
      <trkpt lat="47.87749" lon="2.17507">
        <ele>129</ele>
        <time>2017-10-15T07:03:33.000Z</time>
      </trkpt>
      <trkpt lat="47.87731" lon="2.17443">
        <ele>129</ele>
        <time>2017-10-15T07:03:40.000Z</time>
      </trkpt>
      <trkpt lat="47.87729" lon="2.17434">
        <ele>129</ele>
        <time>2017-10-15T07:03:41.000Z</time>
      </trkpt>
      <trkpt lat="47.87712" lon="2.1737">
        <ele>128</ele>
        <time>2017-10-15T07:03:48.000Z</time>
      </trkpt>
      <trkpt lat="47.87711" lon="2.17361">
        <ele>128</ele>
        <time>2017-10-15T07:03:49.000Z</time>
      </trkpt>
      <trkpt lat="47.87693" lon="2.17289">
        <ele>127</ele>
        <time>2017-10-15T07:03:57.000Z</time>
      </trkpt>
      <trkpt lat="47.87691" lon="2.1728">
        <ele>127</ele>
        <time>2017-10-15T07:03:58.000Z</time>
      </trkpt>
      <trkpt lat="47.87674" lon="2.17216">
        <ele>127</ele>
        <time>2017-10-15T07:04:05.000Z</time>
      </trkpt>
      <trkpt lat="47.87672" lon="2.17207">
        <ele>127</ele>
        <time>2017-10-15T07:04:06.000Z</time>
      </trkpt>
      <trkpt lat="47.87657" lon="2.17143">
        <ele>127</ele>
        <time>2017-10-15T07:04:13.000Z</time>
      </trkpt>
      <trkpt lat="47.87655" lon="2.17134">
        <ele>127</ele>
        <time>2017-10-15T07:04:14.000Z</time>
      </trkpt>
      <trkpt lat="47.87639" lon="2.17068">
        <ele>127</ele>
        <time>2017-10-15T07:04:21.000Z</time>
      </trkpt>
      <trkpt lat="47.87637" lon="2.17059">
        <ele>127</ele>
        <time>2017-10-15T07:04:22.000Z</time>
      </trkpt>
      <trkpt lat="47.87622" lon="2.16996">
        <ele>126</ele>
        <time>2017-10-15T07:04:29.000Z</time>
      </trkpt>
      <trkpt lat="47.8762" lon="2.16986">
        <ele>126</ele>
        <time>2017-10-15T07:04:30.000Z</time>
      </trkpt>
      <trkpt lat="47.87605" lon="2.1692">
        <ele>126</ele>
        <time>2017-10-15T07:04:37.000Z</time>
      </trkpt>
      <trkpt lat="47.87603" lon="2.16911">
        <ele>126</ele>
        <time>2017-10-15T07:04:38.000Z</time>
      </trkpt>
      <trkpt lat="47.87586" lon="2.16844">
        <ele>126</ele>
        <time>2017-10-15T07:04:45.000Z</time>
      </trkpt>
      <trkpt lat="47.87584" lon="2.16834">
        <ele>126</ele>
        <time>2017-10-15T07:04:46.000Z</time>
      </trkpt>
      <trkpt lat="47.87568" lon="2.16768">
        <ele>126</ele>
        <time>2017-10-15T07:04:53.000Z</time>
      </trkpt>
      <trkpt lat="47.87565" lon="2.16759">
        <ele>126</ele>
        <time>2017-10-15T07:04:54.000Z</time>
      </trkpt>
      <trkpt lat="47.87546" lon="2.16688">
        <ele>125</ele>
        <time>2017-10-15T07:05:02.000Z</time>
      </trkpt>
      <trkpt lat="47.87544" lon="2.16679">
        <ele>125</ele>
        <time>2017-10-15T07:05:03.000Z</time>
      </trkpt>
      <trkpt lat="47.87528" lon="2.16612">
        <ele>123</ele>
        <time>2017-10-15T07:05:10.000Z</time>
      </trkpt>
      <trkpt lat="47.87526" lon="2.16602">
        <ele>123</ele>
        <time>2017-10-15T07:05:11.000Z</time>
      </trkpt>
      <trkpt lat="47.8751" lon="2.16536">
        <ele>121</ele>
        <time>2017-10-15T07:05:18.000Z</time>
      </trkpt>
      <trkpt lat="47.87508" lon="2.16527">
        <ele>121</ele>
        <time>2017-10-15T07:05:19.000Z</time>
      </trkpt>
      <trkpt lat="47.87492" lon="2.16464">
        <ele>121</ele>
        <time>2017-10-15T07:05:26.000Z</time>
      </trkpt>
      <trkpt lat="47.87489" lon="2.16455">
        <ele>121</ele>
        <time>2017-10-15T07:05:27.000Z</time>
      </trkpt>
      <trkpt lat="47.87473" lon="2.16383">
        <ele>123</ele>
        <time>2017-10-15T07:05:35.000Z</time>
      </trkpt>
      <trkpt lat="47.8747" lon="2.16373">
        <ele>123</ele>
        <time>2017-10-15T07:05:36.000Z</time>
      </trkpt>
      <trkpt lat="47.87455" lon="2.16306">
        <ele>122</ele>
        <time>2017-10-15T07:05:43.000Z</time>
      </trkpt>
      <trkpt lat="47.87452" lon="2.16297">
        <ele>122</ele>
        <time>2017-10-15T07:05:44.000Z</time>
      </trkpt>
      <trkpt lat="47.87436" lon="2.16229">
        <ele>122</ele>
        <time>2017-10-15T07:05:51.000Z</time>
      </trkpt>
      <trkpt lat="47.87434" lon="2.1622">
        <ele>122</ele>
        <time>2017-10-15T07:05:52.000Z</time>
      </trkpt>
      <trkpt lat="47.87418" lon="2.16156">
        <ele>121</ele>
        <time>2017-10-15T07:05:59.000Z</time>
      </trkpt>
      <trkpt lat="47.87416" lon="2.16147">
        <ele>121</ele>
        <time>2017-10-15T07:06:00.000Z</time>
      </trkpt>
      <trkpt lat="47.874" lon="2.1608">
        <ele>120</ele>
        <time>2017-10-15T07:06:07.000Z</time>
      </trkpt>
      <trkpt lat="47.87397" lon="2.1607">
        <ele>120</ele>
        <time>2017-10-15T07:06:08.000Z</time>
      </trkpt>
      <trkpt lat="47.87387" lon="2.16015">
        <ele>119</ele>
        <time>2017-10-15T07:06:14.000Z</time>
      </trkpt>
      <trkpt lat="47.87392" lon="2.15988">
        <ele>118</ele>
        <time>2017-10-15T07:06:17.000Z</time>
      </trkpt>
      <trkpt lat="47.87411" lon="2.15925">
        <ele>117</ele>
        <time>2017-10-15T07:06:24.000Z</time>
      </trkpt>
      <trkpt lat="47.87414" lon="2.15915">
        <ele>117</ele>
        <time>2017-10-15T07:06:25.000Z</time>
      </trkpt>
      <trkpt lat="47.87421" lon="2.15897">
        <ele>116</ele>
        <time>2017-10-15T07:06:27.000Z</time>
      </trkpt>
      <trkpt lat="47.87444" lon="2.15835">
        <ele>116</ele>
        <time>2017-10-15T07:06:33.000Z</time>
      </trkpt>
      <trkpt lat="47.87449" lon="2.15823">
        <ele>116</ele>
        <time>2017-10-15T07:06:34.000Z</time>
      </trkpt>
      <trkpt lat="47.87476" lon="2.15759">
        <ele>114</ele>
        <time>2017-10-15T07:06:40.000Z</time>
      </trkpt>
      <trkpt lat="47.87481" lon="2.15749">
        <ele>114</ele>
        <time>2017-10-15T07:06:41.000Z</time>
      </trkpt>
      <trkpt lat="47.87504" lon="2.1569">
        <ele>114</ele>
        <time>2017-10-15T07:06:48.000Z</time>
      </trkpt>
      <trkpt lat="47.87506" lon="2.15683">
        <ele>114</ele>
        <time>2017-10-15T07:06:49.000Z</time>
      </trkpt>
      <trkpt lat="47.87521" lon="2.15654">
        <ele>114</ele>
        <time>2017-10-15T07:06:54.000Z</time>
      </trkpt>
      <trkpt lat="47.87554" lon="2.15623">
        <ele>116</ele>
        <time>2017-10-15T07:07:01.000Z</time>
      </trkpt>
      <trkpt lat="47.87572" lon="2.15619">
        <ele>118</ele>
        <time>2017-10-15T07:07:04.000Z</time>
      </trkpt>
      <trkpt lat="47.87589" lon="2.15624">
        <ele>119</ele>
        <time>2017-10-15T07:07:07.000Z</time>
      </trkpt>
      <trkpt lat="47.87624" lon="2.15647">
        <ele>122</ele>
        <time>2017-10-15T07:07:14.000Z</time>
      </trkpt>
      <trkpt lat="47.87649" lon="2.15646">
        <ele>123</ele>
        <time>2017-10-15T07:07:18.000Z</time>
      </trkpt>
      <trkpt lat="47.87694" lon="2.15638">
        <ele>126</ele>
        <time>2017-10-15T07:07:26.000Z</time>
      </trkpt>
      <trkpt lat="47.877" lon="2.15636">
        <ele>127</ele>
        <time>2017-10-15T07:07:27.000Z</time>
      </trkpt>
      <trkpt lat="47.87748" lon="2.1563">
        <ele>128</ele>
        <time>2017-10-15T07:07:35.000Z</time>
      </trkpt>
      <trkpt lat="47.87754" lon="2.15628">
        <ele>128</ele>
        <time>2017-10-15T07:07:36.000Z</time>
      </trkpt>
      <trkpt lat="47.8778" lon="2.15617">
        <ele>128</ele>
        <time>2017-10-15T07:07:40.000Z</time>
      </trkpt>
      <trkpt lat="47.87821" lon="2.15584">
        <ele>126</ele>
        <time>2017-10-15T07:07:47.000Z</time>
      </trkpt>
      <trkpt lat="47.87827" lon="2.15579">
        <ele>126</ele>
        <time>2017-10-15T07:07:48.000Z</time>
      </trkpt>
      <trkpt lat="47.87854" lon="2.15553">
        <ele>126</ele>
        <time>2017-10-15T07:07:53.000Z</time>
      </trkpt>
      <trkpt lat="47.87882" lon="2.15518">
        <ele>125</ele>
        <time>2017-10-15T07:07:59.000Z</time>
      </trkpt>
      <trkpt lat="47.87904" lon="2.15474">
        <ele>125</ele>
        <time>2017-10-15T07:08:05.000Z</time>
      </trkpt>
      <trkpt lat="47.87921" lon="2.15405">
        <ele>124</ele>
        <time>2017-10-15T07:08:13.000Z</time>
      </trkpt>
      <trkpt lat="47.87922" lon="2.15396">
        <ele>124</ele>
        <time>2017-10-15T07:08:14.000Z</time>
      </trkpt>
      <trkpt lat="47.87928" lon="2.15322">
        <ele>124</ele>
        <time>2017-10-15T07:08:22.000Z</time>
      </trkpt>
      <trkpt lat="47.87928" lon="2.15312">
        <ele>124</ele>
        <time>2017-10-15T07:08:23.000Z</time>
      </trkpt>
      <trkpt lat="47.87933" lon="2.15245">
        <ele>124</ele>
        <time>2017-10-15T07:08:30.000Z</time>
      </trkpt>
      <trkpt lat="47.87934" lon="2.15235">
        <ele>124</ele>
        <time>2017-10-15T07:08:31.000Z</time>
      </trkpt>
      <trkpt lat="47.87941" lon="2.1516">
        <ele>123</ele>
        <time>2017-10-15T07:08:39.000Z</time>
      </trkpt>
      <trkpt lat="47.87941" lon="2.1515">
        <ele>123</ele>
        <time>2017-10-15T07:08:40.000Z</time>
      </trkpt>
      <trkpt lat="47.87948" lon="2.15074">
        <ele>123</ele>
        <time>2017-10-15T07:08:48.000Z</time>
      </trkpt>
      <trkpt lat="47.87949" lon="2.15066">
        <ele>123</ele>
        <time>2017-10-15T07:08:49.000Z</time>
      </trkpt>
      <trkpt lat="47.87956" lon="2.14992">
        <ele>125</ele>
        <time>2017-10-15T07:08:57.000Z</time>
      </trkpt>
      <trkpt lat="47.87957" lon="2.14982">
        <ele>125</ele>
        <time>2017-10-15T07:08:58.000Z</time>
      </trkpt>
      <trkpt lat="47.87963" lon="2.14914">
        <ele>124</ele>
        <time>2017-10-15T07:09:05.000Z</time>
      </trkpt>
      <trkpt lat="47.87965" lon="2.14905">
        <ele>124</ele>
        <time>2017-10-15T07:09:06.000Z</time>
      </trkpt>
      <trkpt lat="47.87973" lon="2.14829">
        <ele>123</ele>
        <time>2017-10-15T07:09:14.000Z</time>
      </trkpt>
      <trkpt lat="47.87973" lon="2.1482">
        <ele>123</ele>
        <time>2017-10-15T07:09:15.000Z</time>
      </trkpt>
      <trkpt lat="47.8798" lon="2.14761">
        <ele>122</ele>
        <time>2017-10-15T07:09:21.000Z</time>
      </trkpt>
      <trkpt lat="47.8798" lon="2.14751">
        <ele>122</ele>
        <time>2017-10-15T07:09:22.000Z</time>
      </trkpt>
      <trkpt lat="47.87987" lon="2.1468">
        <ele>121</ele>
        <time>2017-10-15T07:09:30.000Z</time>
      </trkpt>
      <trkpt lat="47.8799" lon="2.14674">
        <ele>121</ele>
        <time>2017-10-15T07:09:31.000Z</time>
      </trkpt>
      <trkpt lat="47.87997" lon="2.1467">
        <ele>120</ele>
        <time>2017-10-15T07:09:33.000Z</time>
      </trkpt>
      <trkpt lat="47.88003" lon="2.14677">
        <ele>120</ele>
        <time>2017-10-15T07:09:35.000Z</time>
      </trkpt>
      <trkpt lat="47.88039" lon="2.14726">
        <ele>117</ele>
        <time>2017-10-15T07:09:44.000Z</time>
      </trkpt>
      <trkpt lat="47.88043" lon="2.14732">
        <ele>117</ele>
        <time>2017-10-15T07:09:45.000Z</time>
      </trkpt>
      <trkpt lat="47.8808" lon="2.14784">
        <ele>115</ele>
        <time>2017-10-15T07:09:53.000Z</time>
      </trkpt>
      <trkpt lat="47.88085" lon="2.14791">
        <ele>115</ele>
        <time>2017-10-15T07:09:54.000Z</time>
      </trkpt>
      <trkpt lat="47.88119" lon="2.14838">
        <ele>114</ele>
        <time>2017-10-15T07:10:01.000Z</time>
      </trkpt>
      <trkpt lat="47.88123" lon="2.14845">
        <ele>114</ele>
        <time>2017-10-15T07:10:02.000Z</time>
      </trkpt>
      <trkpt lat="47.8816" lon="2.14897">
        <ele>112</ele>
        <time>2017-10-15T07:10:10.000Z</time>
      </trkpt>
      <trkpt lat="47.88165" lon="2.14903">
        <ele>112</ele>
        <time>2017-10-15T07:10:11.000Z</time>
      </trkpt>
      <trkpt lat="47.88199" lon="2.14952">
        <ele>113</ele>
        <time>2017-10-15T07:10:19.000Z</time>
      </trkpt>
      <trkpt lat="47.88204" lon="2.14959">
        <ele>113</ele>
        <time>2017-10-15T07:10:20.000Z</time>
      </trkpt>
      <trkpt lat="47.88241" lon="2.1501">
        <ele>115</ele>
        <time>2017-10-15T07:10:28.000Z</time>
      </trkpt>
      <trkpt lat="47.88246" lon="2.15016">
        <ele>115</ele>
        <time>2017-10-15T07:10:29.000Z</time>
      </trkpt>
      <trkpt lat="47.8828" lon="2.15064">
        <ele>116</ele>
        <time>2017-10-15T07:10:36.000Z</time>
      </trkpt>
      <trkpt lat="47.88285" lon="2.15071">
        <ele>116</ele>
        <time>2017-10-15T07:10:37.000Z</time>
      </trkpt>
      <trkpt lat="47.88318" lon="2.15118">
        <ele>117</ele>
        <time>2017-10-15T07:10:44.000Z</time>
      </trkpt>
      <trkpt lat="47.88323" lon="2.15125">
        <ele>117</ele>
        <time>2017-10-15T07:10:45.000Z</time>
      </trkpt>
      <trkpt lat="47.88356" lon="2.15171">
        <ele>117</ele>
        <time>2017-10-15T07:10:52.000Z</time>
      </trkpt>
      <trkpt lat="47.88361" lon="2.15178">
        <ele>117</ele>
        <time>2017-10-15T07:10:53.000Z</time>
      </trkpt>
      <trkpt lat="47.88394" lon="2.15225">
        <ele>118</ele>
        <time>2017-10-15T07:11:00.000Z</time>
      </trkpt>
      <trkpt lat="47.88399" lon="2.15231">
        <ele>118</ele>
        <time>2017-10-15T07:11:01.000Z</time>
      </trkpt>
      <trkpt lat="47.88432" lon="2.1528">
        <ele>118</ele>
        <time>2017-10-15T07:11:08.000Z</time>
      </trkpt>
      <trkpt lat="47.88438" lon="2.15287">
        <ele>117</ele>
        <time>2017-10-15T07:11:09.000Z</time>
      </trkpt>
      <trkpt lat="47.88471" lon="2.15335">
        <ele>117</ele>
        <time>2017-10-15T07:11:16.000Z</time>
      </trkpt>
      <trkpt lat="47.88476" lon="2.15342">
        <ele>118</ele>
        <time>2017-10-15T07:11:17.000Z</time>
      </trkpt>
      <trkpt lat="47.88511" lon="2.15391">
        <ele>118</ele>
        <time>2017-10-15T07:11:24.000Z</time>
      </trkpt>
      <trkpt lat="47.88515" lon="2.15398">
        <ele>118</ele>
        <time>2017-10-15T07:11:25.000Z</time>
      </trkpt>
      <trkpt lat="47.88549" lon="2.15447">
        <ele>118</ele>
        <time>2017-10-15T07:11:32.000Z</time>
      </trkpt>
      <trkpt lat="47.88554" lon="2.15454">
        <ele>118</ele>
        <time>2017-10-15T07:11:33.000Z</time>
      </trkpt>
      <trkpt lat="47.88591" lon="2.15506">
        <ele>118</ele>
        <time>2017-10-15T07:11:41.000Z</time>
      </trkpt>
      <trkpt lat="47.88595" lon="2.15512">
        <ele>118</ele>
        <time>2017-10-15T07:11:42.000Z</time>
      </trkpt>
      <trkpt lat="47.88604" lon="2.15521">
        <ele>118</ele>
        <time>2017-10-15T07:11:44.000Z</time>
      </trkpt>
      <trkpt lat="47.8862" lon="2.1552">
        <ele>118</ele>
        <time>2017-10-15T07:11:47.000Z</time>
      </trkpt>
      <trkpt lat="47.88664" lon="2.15504">
        <ele>118</ele>
        <time>2017-10-15T07:11:55.000Z</time>
      </trkpt>
      <trkpt lat="47.8867" lon="2.15502">
        <ele>118</ele>
        <time>2017-10-15T07:11:56.000Z</time>
      </trkpt>
      <trkpt lat="47.88715" lon="2.15484">
        <ele>118</ele>
        <time>2017-10-15T07:12:04.000Z</time>
      </trkpt>
      <trkpt lat="47.88721" lon="2.15482">
        <ele>118</ele>
        <time>2017-10-15T07:12:05.000Z</time>
      </trkpt>
      <trkpt lat="47.88766" lon="2.15465">
        <ele>118</ele>
        <time>2017-10-15T07:12:13.000Z</time>
      </trkpt>
      <trkpt lat="47.88772" lon="2.15463">
        <ele>118</ele>
        <time>2017-10-15T07:12:14.000Z</time>
      </trkpt>
      <trkpt lat="47.88816" lon="2.15446">
        <ele>118</ele>
        <time>2017-10-15T07:12:23.000Z</time>
      </trkpt>
      <trkpt lat="47.88819" lon="2.15444">
        <ele>118</ele>
        <time>2017-10-15T07:12:24.000Z</time>
      </trkpt>
      <trkpt lat="47.88823" lon="2.15441">
        <ele>118</ele>
        <time>2017-10-15T07:12:26.000Z</time>
      </trkpt>
      <trkpt lat="47.88826" lon="2.15435">
        <ele>118</ele>
        <time>2017-10-15T07:12:28.000Z</time>
      </trkpt>
      <trkpt lat="47.88823" lon="2.15426">
        <ele>119</ele>
        <time>2017-10-15T07:12:30.000Z</time>
      </trkpt>
      <trkpt lat="47.88818" lon="2.1541">
        <ele>119</ele>
        <time>2017-10-15T07:12:33.000Z</time>
      </trkpt>
      <trkpt lat="47.88818" lon="2.15398">
        <ele>118</ele>
        <time>2017-10-15T07:12:35.000Z</time>
      </trkpt>
      <trkpt lat="47.88824" lon="2.15391">
        <ele>118</ele>
        <time>2017-10-15T07:12:37.000Z</time>
      </trkpt>
      <trkpt lat="47.8884" lon="2.15382">
        <ele>118</ele>
        <time>2017-10-15T07:12:41.000Z</time>
      </trkpt>
      <trkpt lat="47.88847" lon="2.15372">
        <ele>118</ele>
        <time>2017-10-15T07:12:43.000Z</time>
      </trkpt>
      <trkpt lat="47.88857" lon="2.15356">
        <ele>118</ele>
        <time>2017-10-15T07:12:46.000Z</time>
      </trkpt>
      <trkpt lat="47.88869" lon="2.15351">
        <ele>118</ele>
        <time>2017-10-15T07:12:49.000Z</time>
      </trkpt>
      <trkpt lat="47.88884" lon="2.15354">
        <ele>118</ele>
        <time>2017-10-15T07:12:52.000Z</time>
      </trkpt>
      <trkpt lat="47.88931" lon="2.15372">
        <ele>119</ele>
        <time>2017-10-15T07:13:02.000Z</time>
      </trkpt>
      <trkpt lat="47.88936" lon="2.1537">
        <ele>119</ele>
        <time>2017-10-15T07:13:03.000Z</time>
      </trkpt>
      <trkpt lat="47.88985" lon="2.15357">
        <ele>119</ele>
        <time>2017-10-15T07:13:12.000Z</time>
      </trkpt>
      <trkpt lat="47.8899" lon="2.15356">
        <ele>119</ele>
        <time>2017-10-15T07:13:13.000Z</time>
      </trkpt>
      <trkpt lat="47.89037" lon="2.15344">
        <ele>120</ele>
        <time>2017-10-15T07:13:21.000Z</time>
      </trkpt>
      <trkpt lat="47.89044" lon="2.15343">
        <ele>120</ele>
        <time>2017-10-15T07:13:22.000Z</time>
      </trkpt>
      <trkpt lat="47.89093" lon="2.15333">
        <ele>120</ele>
        <time>2017-10-15T07:13:30.000Z</time>
      </trkpt>
      <trkpt lat="47.89099" lon="2.15332">
        <ele>120</ele>
        <time>2017-10-15T07:13:31.000Z</time>
      </trkpt>
      <trkpt lat="47.8915" lon="2.15321">
        <ele>119</ele>
        <time>2017-10-15T07:13:39.000Z</time>
      </trkpt>
      <trkpt lat="47.89156" lon="2.1532">
        <ele>119</ele>
        <time>2017-10-15T07:13:40.000Z</time>
      </trkpt>
      <trkpt lat="47.89169" lon="2.1532">
        <ele>119</ele>
        <time>2017-10-15T07:13:42.000Z</time>
      </trkpt>
      <trkpt lat="47.89219" lon="2.15328">
        <ele>120</ele>
        <time>2017-10-15T07:13:50.000Z</time>
      </trkpt>
      <trkpt lat="47.89225" lon="2.15328">
        <ele>120</ele>
        <time>2017-10-15T07:13:51.000Z</time>
      </trkpt>
      <trkpt lat="47.89276" lon="2.15334">
        <ele>120</ele>
        <time>2017-10-15T07:13:59.000Z</time>
      </trkpt>
      <trkpt lat="47.89282" lon="2.15334">
        <ele>120</ele>
        <time>2017-10-15T07:14:00.000Z</time>
      </trkpt>
      <trkpt lat="47.89333" lon="2.15341">
        <ele>120</ele>
        <time>2017-10-15T07:14:08.000Z</time>
      </trkpt>
      <trkpt lat="47.89339" lon="2.15342">
        <ele>120</ele>
        <time>2017-10-15T07:14:09.000Z</time>
      </trkpt>
      <trkpt lat="47.89385" lon="2.15347">
        <ele>120</ele>
        <time>2017-10-15T07:14:16.000Z</time>
      </trkpt>
      <trkpt lat="47.89391" lon="2.15348">
        <ele>120</ele>
        <time>2017-10-15T07:14:17.000Z</time>
      </trkpt>
      <trkpt lat="47.89442" lon="2.15353">
        <ele>119</ele>
        <time>2017-10-15T07:14:25.000Z</time>
      </trkpt>
      <trkpt lat="47.89448" lon="2.15354">
        <ele>119</ele>
        <time>2017-10-15T07:14:26.000Z</time>
      </trkpt>
      <trkpt lat="47.89497" lon="2.1536">
        <ele>119</ele>
        <time>2017-10-15T07:14:34.000Z</time>
      </trkpt>
      <trkpt lat="47.89502" lon="2.15361">
        <ele>119</ele>
        <time>2017-10-15T07:14:35.000Z</time>
      </trkpt>
      <trkpt lat="47.89525" lon="2.15361">
        <ele>119</ele>
        <time>2017-10-15T07:14:40.000Z</time>
      </trkpt>
      <trkpt lat="47.8953" lon="2.15356">
        <ele>120</ele>
        <time>2017-10-15T07:14:42.000Z</time>
      </trkpt>
      <trkpt lat="47.89542" lon="2.15325">
        <ele>119</ele>
        <time>2017-10-15T07:14:47.000Z</time>
      </trkpt>
      <trkpt lat="47.89555" lon="2.15259">
        <ele>119</ele>
        <time>2017-10-15T07:14:55.000Z</time>
      </trkpt>
      <trkpt lat="47.89557" lon="2.15251">
        <ele>119</ele>
        <time>2017-10-15T07:14:56.000Z</time>
      </trkpt>
      <trkpt lat="47.89574" lon="2.15184">
        <ele>122</ele>
        <time>2017-10-15T07:15:04.000Z</time>
      </trkpt>
      <trkpt lat="47.89576" lon="2.15176">
        <ele>123</ele>
        <time>2017-10-15T07:15:05.000Z</time>
      </trkpt>
      <trkpt lat="47.89591" lon="2.15107">
        <ele>129</ele>
        <time>2017-10-15T07:15:13.000Z</time>
      </trkpt>
      <trkpt lat="47.89594" lon="2.15098">
        <ele>129</ele>
        <time>2017-10-15T07:15:14.000Z</time>
      </trkpt>
      <trkpt lat="47.89608" lon="2.15032">
        <ele>132</ele>
        <time>2017-10-15T07:15:21.000Z</time>
      </trkpt>
      <trkpt lat="47.8961" lon="2.15022">
        <ele>133</ele>
        <time>2017-10-15T07:15:22.000Z</time>
      </trkpt>
      <trkpt lat="47.89625" lon="2.14955">
        <ele>135</ele>
        <time>2017-10-15T07:15:29.000Z</time>
      </trkpt>
      <trkpt lat="47.89627" lon="2.14947">
        <ele>135</ele>
        <time>2017-10-15T07:15:30.000Z</time>
      </trkpt>
      <trkpt lat="47.89629" lon="2.14938">
        <ele>135</ele>
        <time>2017-10-15T07:15:31.000Z</time>
      </trkpt>
      <trkpt lat="47.89637" lon="2.14895">
        <ele>133</ele>
        <time>2017-10-15T07:15:36.000Z</time>
      </trkpt>
      <trkpt lat="47.89643" lon="2.14882">
        <ele>131</ele>
        <time>2017-10-15T07:15:39.000Z</time>
      </trkpt>
      <trkpt lat="47.89651" lon="2.1488">
        <ele>130</ele>
        <time>2017-10-15T07:15:41.000Z</time>
      </trkpt>
      <trkpt lat="47.89697" lon="2.14894">
        <ele>126</ele>
        <time>2017-10-15T07:15:49.000Z</time>
      </trkpt>
      <trkpt lat="47.89703" lon="2.14896">
        <ele>125</ele>
        <time>2017-10-15T07:15:50.000Z</time>
      </trkpt>
      <trkpt lat="47.89749" lon="2.14911">
        <ele>124</ele>
        <time>2017-10-15T07:15:57.000Z</time>
      </trkpt>
      <trkpt lat="47.89755" lon="2.14914">
        <ele>124</ele>
        <time>2017-10-15T07:15:58.000Z</time>
      </trkpt>
      <trkpt lat="47.89772" lon="2.14925">
        <ele>124</ele>
        <time>2017-10-15T07:16:01.000Z</time>
      </trkpt>
      <trkpt lat="47.89818" lon="2.1496">
        <ele>124</ele>
        <time>2017-10-15T07:16:09.000Z</time>
      </trkpt>
      <trkpt lat="47.89825" lon="2.14965">
        <ele>123</ele>
        <time>2017-10-15T07:16:10.000Z</time>
      </trkpt>
      <trkpt lat="47.89867" lon="2.14999">
        <ele>122</ele>
        <time>2017-10-15T07:16:17.000Z</time>
      </trkpt>
      <trkpt lat="47.89874" lon="2.15003">
        <ele>122</ele>
        <time>2017-10-15T07:16:18.000Z</time>
      </trkpt>
      <trkpt lat="47.89916" lon="2.15037">
        <ele>120</ele>
        <time>2017-10-15T07:16:25.000Z</time>
      </trkpt>
      <trkpt lat="47.89922" lon="2.15041">
        <ele>120</ele>
        <time>2017-10-15T07:16:26.000Z</time>
      </trkpt>
      <trkpt lat="47.89964" lon="2.15072">
        <ele>120</ele>
        <time>2017-10-15T07:16:33.000Z</time>
      </trkpt>
      <trkpt lat="47.89969" lon="2.15075">
        <ele>120</ele>
        <time>2017-10-15T07:16:34.000Z</time>
      </trkpt>
      <trkpt lat="47.90011" lon="2.15109">
        <ele>120</ele>
        <time>2017-10-15T07:16:41.000Z</time>
      </trkpt>
      <trkpt lat="47.90018" lon="2.15114">
        <ele>120</ele>
        <time>2017-10-15T07:16:42.000Z</time>
      </trkpt>
      <trkpt lat="47.90062" lon="2.15149">
        <ele>120</ele>
        <time>2017-10-15T07:16:49.000Z</time>
      </trkpt>
      <trkpt lat="47.90068" lon="2.15154">
        <ele>120</ele>
        <time>2017-10-15T07:16:50.000Z</time>
      </trkpt>
      <trkpt lat="47.90114" lon="2.1519">
        <ele>120</ele>
        <time>2017-10-15T07:16:57.000Z</time>
      </trkpt>
      <trkpt lat="47.9012" lon="2.15196">
        <ele>120</ele>
        <time>2017-10-15T07:16:58.000Z</time>
      </trkpt>
      <trkpt lat="47.90165" lon="2.15227">
        <ele>119</ele>
        <time>2017-10-15T07:17:05.000Z</time>
      </trkpt>
      <trkpt lat="47.90171" lon="2.15231">
        <ele>119</ele>
        <time>2017-10-15T07:17:06.000Z</time>
      </trkpt>
      <trkpt lat="47.90215" lon="2.15256">
        <ele>119</ele>
        <time>2017-10-15T07:17:13.000Z</time>
      </trkpt>
      <trkpt lat="47.90221" lon="2.1526">
        <ele>119</ele>
        <time>2017-10-15T07:17:14.000Z</time>
      </trkpt>
      <trkpt lat="47.90265" lon="2.15284">
        <ele>119</ele>
        <time>2017-10-15T07:17:21.000Z</time>
      </trkpt>
      <trkpt lat="47.90272" lon="2.15288">
        <ele>119</ele>
        <time>2017-10-15T07:17:22.000Z</time>
      </trkpt>
      <trkpt lat="47.90316" lon="2.15313">
        <ele>118</ele>
        <time>2017-10-15T07:17:29.000Z</time>
      </trkpt>
      <trkpt lat="47.90322" lon="2.15317">
        <ele>118</ele>
        <time>2017-10-15T07:17:30.000Z</time>
      </trkpt>
      <trkpt lat="47.90364" lon="2.15353">
        <ele>118</ele>
        <time>2017-10-15T07:17:37.000Z</time>
      </trkpt>
      <trkpt lat="47.90369" lon="2.15358">
        <ele>118</ele>
        <time>2017-10-15T07:17:38.000Z</time>
      </trkpt>
      <trkpt lat="47.90385" lon="2.15377">
        <ele>117</ele>
        <time>2017-10-15T07:17:41.000Z</time>
      </trkpt>
      <trkpt lat="47.90419" lon="2.15425">
        <ele>117</ele>
        <time>2017-10-15T07:17:48.000Z</time>
      </trkpt>
      <trkpt lat="47.90423" lon="2.15433">
        <ele>117</ele>
        <time>2017-10-15T07:17:49.000Z</time>
      </trkpt>
      <trkpt lat="47.90456" lon="2.15486">
        <ele>117</ele>
        <time>2017-10-15T07:17:56.000Z</time>
      </trkpt>
      <trkpt lat="47.9046" lon="2.15493">
        <ele>117</ele>
        <time>2017-10-15T07:17:57.000Z</time>
      </trkpt>
      <trkpt lat="47.90492" lon="2.15544">
        <ele>117</ele>
        <time>2017-10-15T07:18:04.000Z</time>
      </trkpt>
      <trkpt lat="47.90497" lon="2.15551">
        <ele>117</ele>
        <time>2017-10-15T07:18:05.000Z</time>
      </trkpt>
      <trkpt lat="47.90528" lon="2.15603">
        <ele>116</ele>
        <time>2017-10-15T07:18:12.000Z</time>
      </trkpt>
      <trkpt lat="47.90533" lon="2.15611">
        <ele>116</ele>
        <time>2017-10-15T07:18:13.000Z</time>
      </trkpt>
      <trkpt lat="47.90567" lon="2.15664">
        <ele>115</ele>
        <time>2017-10-15T07:18:20.000Z</time>
      </trkpt>
      <trkpt lat="47.90572" lon="2.15671">
        <ele>115</ele>
        <time>2017-10-15T07:18:21.000Z</time>
      </trkpt>
      <trkpt lat="47.90605" lon="2.15722">
        <ele>115</ele>
        <time>2017-10-15T07:18:28.000Z</time>
      </trkpt>
      <trkpt lat="47.9061" lon="2.15728">
        <ele>115</ele>
        <time>2017-10-15T07:18:29.000Z</time>
      </trkpt>
      <trkpt lat="47.90648" lon="2.15774">
        <ele>114</ele>
        <time>2017-10-15T07:18:36.000Z</time>
      </trkpt>
      <trkpt lat="47.90654" lon="2.1578">
        <ele>114</ele>
        <time>2017-10-15T07:18:37.000Z</time>
      </trkpt>
      <trkpt lat="47.90691" lon="2.15825">
        <ele>113</ele>
        <time>2017-10-15T07:18:44.000Z</time>
      </trkpt>
      <trkpt lat="47.90696" lon="2.15832">
        <ele>113</ele>
        <time>2017-10-15T07:18:45.000Z</time>
      </trkpt>
      <trkpt lat="47.90733" lon="2.15878">
        <ele>112</ele>
        <time>2017-10-15T07:18:52.000Z</time>
      </trkpt>
      <trkpt lat="47.90739" lon="2.15885">
        <ele>112</ele>
        <time>2017-10-15T07:18:53.000Z</time>
      </trkpt>
      <trkpt lat="47.90777" lon="2.15934">
        <ele>111</ele>
        <time>2017-10-15T07:19:00.000Z</time>
      </trkpt>
      <trkpt lat="47.90783" lon="2.15941">
        <ele>111</ele>
        <time>2017-10-15T07:19:01.000Z</time>
      </trkpt>
      <trkpt lat="47.90821" lon="2.15986">
        <ele>111</ele>
        <time>2017-10-15T07:19:08.000Z</time>
      </trkpt>
      <trkpt lat="47.90827" lon="2.15992">
        <ele>112</ele>
        <time>2017-10-15T07:19:09.000Z</time>
      </trkpt>
      <trkpt lat="47.90867" lon="2.16035">
        <ele>115</ele>
        <time>2017-10-15T07:19:16.000Z</time>
      </trkpt>
      <trkpt lat="47.90873" lon="2.16041">
        <ele>115</ele>
        <time>2017-10-15T07:19:17.000Z</time>
      </trkpt>
      <trkpt lat="47.90891" lon="2.16057">
        <ele>116</ele>
        <time>2017-10-15T07:19:20.000Z</time>
      </trkpt>
      <trkpt lat="47.90934" lon="2.16091">
        <ele>118</ele>
        <time>2017-10-15T07:19:27.000Z</time>
      </trkpt>
      <trkpt lat="47.9094" lon="2.16095">
        <ele>118</ele>
        <time>2017-10-15T07:19:28.000Z</time>
      </trkpt>
      <trkpt lat="47.90981" lon="2.16126">
        <ele>119</ele>
        <time>2017-10-15T07:19:35.000Z</time>
      </trkpt>
      <trkpt lat="47.90986" lon="2.1613">
        <ele>120</ele>
        <time>2017-10-15T07:19:36.000Z</time>
      </trkpt>
      <trkpt lat="47.91024" lon="2.16166">
        <ele>120</ele>
        <time>2017-10-15T07:19:43.000Z</time>
      </trkpt>
      <trkpt lat="47.91029" lon="2.16172">
        <ele>120</ele>
        <time>2017-10-15T07:19:44.000Z</time>
      </trkpt>
      <trkpt lat="47.91061" lon="2.16224">
        <ele>119</ele>
        <time>2017-10-15T07:19:51.000Z</time>
      </trkpt>
      <trkpt lat="47.91065" lon="2.16232">
        <ele>119</ele>
        <time>2017-10-15T07:19:52.000Z</time>
      </trkpt>
      <trkpt lat="47.91093" lon="2.16286">
        <ele>117</ele>
        <time>2017-10-15T07:19:58.000Z</time>
      </trkpt>
      <trkpt lat="47.91098" lon="2.16295">
        <ele>117</ele>
        <time>2017-10-15T07:19:59.000Z</time>
      </trkpt>
      <trkpt lat="47.9113" lon="2.16346">
        <ele>116</ele>
        <time>2017-10-15T07:20:05.000Z</time>
      </trkpt>
      <trkpt lat="47.91135" lon="2.16353">
        <ele>116</ele>
        <time>2017-10-15T07:20:06.000Z</time>
      </trkpt>
      <trkpt lat="47.91151" lon="2.16373">
        <ele>116</ele>
        <time>2017-10-15T07:20:09.000Z</time>
      </trkpt>
      <trkpt lat="47.91162" lon="2.16375">
        <ele>116</ele>
        <time>2017-10-15T07:20:11.000Z</time>
      </trkpt>
      <trkpt lat="47.91169" lon="2.16363">
        <ele>116</ele>
        <time>2017-10-15T07:20:13.000Z</time>
      </trkpt>
      <trkpt lat="47.91172" lon="2.16295">
        <ele>116</ele>
        <time>2017-10-15T07:20:20.000Z</time>
      </trkpt>
      <trkpt lat="47.91172" lon="2.16285">
        <ele>116</ele>
        <time>2017-10-15T07:20:21.000Z</time>
      </trkpt>
      <trkpt lat="47.91174" lon="2.16214">
        <ele>116</ele>
        <time>2017-10-15T07:20:28.000Z</time>
      </trkpt>
      <trkpt lat="47.91174" lon="2.16204">
        <ele>116</ele>
        <time>2017-10-15T07:20:29.000Z</time>
      </trkpt>
      <trkpt lat="47.91174" lon="2.16134">
        <ele>116</ele>
        <time>2017-10-15T07:20:36.000Z</time>
      </trkpt>
      <trkpt lat="47.91174" lon="2.16124">
        <ele>116</ele>
        <time>2017-10-15T07:20:37.000Z</time>
      </trkpt>
      <trkpt lat="47.91174" lon="2.16114">
        <ele>116</ele>
        <time>2017-10-15T07:20:38.000Z</time>
      </trkpt>
      <trkpt lat="47.91174" lon="2.16043">
        <ele>115</ele>
        <time>2017-10-15T07:20:45.000Z</time>
      </trkpt>
      <trkpt lat="47.91174" lon="2.16032">
        <ele>115</ele>
        <time>2017-10-15T07:20:46.000Z</time>
      </trkpt>
      <trkpt lat="47.91178" lon="2.15961">
        <ele>114</ele>
        <time>2017-10-15T07:20:53.000Z</time>
      </trkpt>
      <trkpt lat="47.91178" lon="2.1595">
        <ele>114</ele>
        <time>2017-10-15T07:20:54.000Z</time>
      </trkpt>
      <trkpt lat="47.91182" lon="2.15882">
        <ele>114</ele>
        <time>2017-10-15T07:21:01.000Z</time>
      </trkpt>
      <trkpt lat="47.91183" lon="2.15872">
        <ele>114</ele>
        <time>2017-10-15T07:21:02.000Z</time>
      </trkpt>
      <trkpt lat="47.91188" lon="2.15822">
        <ele>114</ele>
        <time>2017-10-15T07:21:07.000Z</time>
      </trkpt>
      <trkpt lat="47.912" lon="2.15752">
        <ele>114</ele>
        <time>2017-10-15T07:21:14.000Z</time>
      </trkpt>
      <trkpt lat="47.91202" lon="2.15741">
        <ele>114</ele>
        <time>2017-10-15T07:21:15.000Z</time>
      </trkpt>
      <trkpt lat="47.91214" lon="2.15671">
        <ele>114</ele>
        <time>2017-10-15T07:21:22.000Z</time>
      </trkpt>
      <trkpt lat="47.91215" lon="2.15662">
        <ele>114</ele>
        <time>2017-10-15T07:21:23.000Z</time>
      </trkpt>
      <trkpt lat="47.9123" lon="2.15592">
        <ele>114</ele>
        <time>2017-10-15T07:21:30.000Z</time>
      </trkpt>
      <trkpt lat="47.91232" lon="2.15582">
        <ele>114</ele>
        <time>2017-10-15T07:21:31.000Z</time>
      </trkpt>
      <trkpt lat="47.91249" lon="2.15526">
        <ele>114</ele>
        <time>2017-10-15T07:21:37.000Z</time>
      </trkpt>
      <trkpt lat="47.91253" lon="2.15518">
        <ele>114</ele>
        <time>2017-10-15T07:21:38.000Z</time>
      </trkpt>
      <trkpt lat="47.9127" lon="2.15487">
        <ele>114</ele>
        <time>2017-10-15T07:21:42.000Z</time>
      </trkpt>
      <trkpt lat="47.91307" lon="2.15447">
        <ele>115</ele>
        <time>2017-10-15T07:21:49.000Z</time>
      </trkpt>
      <trkpt lat="47.91313" lon="2.15443">
        <ele>115</ele>
        <time>2017-10-15T07:21:50.000Z</time>
      </trkpt>
      <trkpt lat="47.91357" lon="2.15403">
        <ele>116</ele>
        <time>2017-10-15T07:21:58.000Z</time>
      </trkpt>
      <trkpt lat="47.91362" lon="2.15396">
        <ele>117</ele>
        <time>2017-10-15T07:21:59.000Z</time>
      </trkpt>
      <trkpt lat="47.91379" lon="2.15366">
        <ele>117</ele>
        <time>2017-10-15T07:22:03.000Z</time>
      </trkpt>
      <trkpt lat="47.91392" lon="2.15321">
        <ele>117</ele>
        <time>2017-10-15T07:22:08.000Z</time>
      </trkpt>
      <trkpt lat="47.91401" lon="2.15252">
        <ele>117</ele>
        <time>2017-10-15T07:22:15.000Z</time>
      </trkpt>
      <trkpt lat="47.91402" lon="2.15243">
        <ele>118</ele>
        <time>2017-10-15T07:22:16.000Z</time>
      </trkpt>
      <trkpt lat="47.91411" lon="2.15176">
        <ele>119</ele>
        <time>2017-10-15T07:22:23.000Z</time>
      </trkpt>
      <trkpt lat="47.91412" lon="2.15166">
        <ele>118</ele>
        <time>2017-10-15T07:22:24.000Z</time>
      </trkpt>
      <trkpt lat="47.91423" lon="2.15095">
        <ele>117</ele>
        <time>2017-10-15T07:22:31.000Z</time>
      </trkpt>
      <trkpt lat="47.91424" lon="2.15085">
        <ele>117</ele>
        <time>2017-10-15T07:22:32.000Z</time>
      </trkpt>
      <trkpt lat="47.91435" lon="2.15034">
        <ele>116</ele>
        <time>2017-10-15T07:22:37.000Z</time>
      </trkpt>
      <trkpt lat="47.91457" lon="2.14967">
        <ele>116</ele>
        <time>2017-10-15T07:22:44.000Z</time>
      </trkpt>
      <trkpt lat="47.9146" lon="2.14958">
        <ele>116</ele>
        <time>2017-10-15T07:22:45.000Z</time>
      </trkpt>
      <trkpt lat="47.9148" lon="2.14893">
        <ele>116</ele>
        <time>2017-10-15T07:22:52.000Z</time>
      </trkpt>
      <trkpt lat="47.91483" lon="2.14883">
        <ele>116</ele>
        <time>2017-10-15T07:22:53.000Z</time>
      </trkpt>
      <trkpt lat="47.915" lon="2.14818">
        <ele>116</ele>
        <time>2017-10-15T07:23:00.000Z</time>
      </trkpt>
      <trkpt lat="47.91504" lon="2.14809">
        <ele>116</ele>
        <time>2017-10-15T07:23:01.000Z</time>
      </trkpt>
      <trkpt lat="47.91511" lon="2.14792">
        <ele>116</ele>
        <time>2017-10-15T07:23:03.000Z</time>
      </trkpt>
      <trkpt lat="47.9154" lon="2.14736">
        <ele>116</ele>
        <time>2017-10-15T07:23:10.000Z</time>
      </trkpt>
      <trkpt lat="47.91544" lon="2.14728">
        <ele>116</ele>
        <time>2017-10-15T07:23:11.000Z</time>
      </trkpt>
      <trkpt lat="47.91576" lon="2.14674">
        <ele>117</ele>
        <time>2017-10-15T07:23:18.000Z</time>
      </trkpt>
      <trkpt lat="47.91581" lon="2.14666">
        <ele>117</ele>
        <time>2017-10-15T07:23:19.000Z</time>
      </trkpt>
      <trkpt lat="47.91613" lon="2.14613">
        <ele>117</ele>
        <time>2017-10-15T07:23:26.000Z</time>
      </trkpt>
      <trkpt lat="47.91617" lon="2.14605">
        <ele>117</ele>
        <time>2017-10-15T07:23:27.000Z</time>
      </trkpt>
      <trkpt lat="47.91642" lon="2.14543">
        <ele>117</ele>
        <time>2017-10-15T07:23:34.000Z</time>
      </trkpt>
      <trkpt lat="47.91646" lon="2.14533">
        <ele>117</ele>
        <time>2017-10-15T07:23:35.000Z</time>
      </trkpt>
      <trkpt lat="47.91669" lon="2.14468">
        <ele>118</ele>
        <time>2017-10-15T07:23:42.000Z</time>
      </trkpt>
      <trkpt lat="47.91672" lon="2.14459">
        <ele>118</ele>
        <time>2017-10-15T07:23:43.000Z</time>
      </trkpt>
      <trkpt lat="47.91694" lon="2.14394">
        <ele>118</ele>
        <time>2017-10-15T07:23:50.000Z</time>
      </trkpt>
      <trkpt lat="47.91697" lon="2.14385">
        <ele>118</ele>
        <time>2017-10-15T07:23:51.000Z</time>
      </trkpt>
      <trkpt lat="47.91723" lon="2.14322">
        <ele>118</ele>
        <time>2017-10-15T07:23:58.000Z</time>
      </trkpt>
      <trkpt lat="47.91727" lon="2.14314">
        <ele>118</ele>
        <time>2017-10-15T07:23:59.000Z</time>
      </trkpt>
      <trkpt lat="47.91751" lon="2.14252">
        <ele>119</ele>
        <time>2017-10-15T07:24:06.000Z</time>
      </trkpt>
      <trkpt lat="47.91755" lon="2.14243">
        <ele>120</ele>
        <time>2017-10-15T07:24:07.000Z</time>
      </trkpt>
      <trkpt lat="47.91779" lon="2.14176">
        <ele>119</ele>
        <time>2017-10-15T07:24:14.000Z</time>
      </trkpt>
      <trkpt lat="47.91782" lon="2.14166">
        <ele>118</ele>
        <time>2017-10-15T07:24:15.000Z</time>
      </trkpt>
      <trkpt lat="47.91804" lon="2.14106">
        <ele>117</ele>
        <time>2017-10-15T07:24:21.000Z</time>
      </trkpt>
      <trkpt lat="47.91808" lon="2.14096">
        <ele>117</ele>
        <time>2017-10-15T07:24:22.000Z</time>
      </trkpt>
      <trkpt lat="47.9183" lon="2.14034">
        <ele>116</ele>
        <time>2017-10-15T07:24:28.000Z</time>
      </trkpt>
      <trkpt lat="47.91834" lon="2.14023">
        <ele>116</ele>
        <time>2017-10-15T07:24:29.000Z</time>
      </trkpt>
      <trkpt lat="47.91859" lon="2.13962">
        <ele>115</ele>
        <time>2017-10-15T07:24:35.000Z</time>
      </trkpt>
      <trkpt lat="47.91864" lon="2.13952">
        <ele>114</ele>
        <time>2017-10-15T07:24:36.000Z</time>
      </trkpt>
      <trkpt lat="47.91895" lon="2.13898">
        <ele>111</ele>
        <time>2017-10-15T07:24:42.000Z</time>
      </trkpt>
      <trkpt lat="47.919" lon="2.1389">
        <ele>111</ele>
        <time>2017-10-15T07:24:43.000Z</time>
      </trkpt>
      <trkpt lat="47.91935" lon="2.13835">
        <ele>110</ele>
        <time>2017-10-15T07:24:49.000Z</time>
      </trkpt>
      <trkpt lat="47.91941" lon="2.13826">
        <ele>109</ele>
        <time>2017-10-15T07:24:50.000Z</time>
      </trkpt>
      <trkpt lat="47.91975" lon="2.13773">
        <ele>109</ele>
        <time>2017-10-15T07:24:56.000Z</time>
      </trkpt>
      <trkpt lat="47.91981" lon="2.13765">
        <ele>109</ele>
        <time>2017-10-15T07:24:57.000Z</time>
      </trkpt>
      <trkpt lat="47.92014" lon="2.13715">
        <ele>109</ele>
        <time>2017-10-15T07:25:03.000Z</time>
      </trkpt>
      <trkpt lat="47.92019" lon="2.13706">
        <ele>108</ele>
        <time>2017-10-15T07:25:04.000Z</time>
      </trkpt>
      <trkpt lat="47.92051" lon="2.13658">
        <ele>107</ele>
        <time>2017-10-15T07:25:10.000Z</time>
      </trkpt>
      <trkpt lat="47.92056" lon="2.13651">
        <ele>107</ele>
        <time>2017-10-15T07:25:11.000Z</time>
      </trkpt>
      <trkpt lat="47.92062" lon="2.1364">
        <ele>107</ele>
        <time>2017-10-15T07:25:13.000Z</time>
      </trkpt>
      <trkpt lat="47.9206" lon="2.13628">
        <ele>107</ele>
        <time>2017-10-15T07:25:15.000Z</time>
      </trkpt>
      <trkpt lat="47.92057" lon="2.13605">
        <ele>107</ele>
        <time>2017-10-15T07:25:18.000Z</time>
      </trkpt>
      <trkpt lat="47.92063" lon="2.1358">
        <ele>107</ele>
        <time>2017-10-15T07:25:21.000Z</time>
      </trkpt>
      <trkpt lat="47.92087" lon="2.1352">
        <ele>107</ele>
        <time>2017-10-15T07:25:28.000Z</time>
      </trkpt>
      <trkpt lat="47.92089" lon="2.1351">
        <ele>108</ele>
        <time>2017-10-15T07:25:29.000Z</time>
      </trkpt>
      <trkpt lat="47.92089" lon="2.13479">
        <ele>108</ele>
        <time>2017-10-15T07:25:32.000Z</time>
      </trkpt>
      <trkpt lat="47.92076" lon="2.13431">
        <ele>107</ele>
        <time>2017-10-15T07:25:37.000Z</time>
      </trkpt>
      <trkpt lat="47.92052" lon="2.13367">
        <ele>108</ele>
        <time>2017-10-15T07:25:44.000Z</time>
      </trkpt>
      <trkpt lat="47.92048" lon="2.13357">
        <ele>108</ele>
        <time>2017-10-15T07:25:45.000Z</time>
      </trkpt>
      <trkpt lat="47.92025" lon="2.13294">
        <ele>108</ele>
        <time>2017-10-15T07:25:52.000Z</time>
      </trkpt>
      <trkpt lat="47.92021" lon="2.13286">
        <ele>108</ele>
        <time>2017-10-15T07:25:53.000Z</time>
      </trkpt>
      <trkpt lat="47.92012" lon="2.13257">
        <ele>109</ele>
        <time>2017-10-15T07:25:57.000Z</time>
      </trkpt>
      <trkpt lat="47.92014" lon="2.13243">
        <ele>109</ele>
        <time>2017-10-15T07:25:59.000Z</time>
      </trkpt>
      <trkpt lat="47.92027" lon="2.13225">
        <ele>108</ele>
        <time>2017-10-15T07:26:02.000Z</time>
      </trkpt>
      <trkpt lat="47.92063" lon="2.13177">
        <ele>108</ele>
        <time>2017-10-15T07:26:09.000Z</time>
      </trkpt>
      <trkpt lat="47.92068" lon="2.13171">
        <ele>107</ele>
        <time>2017-10-15T07:26:10.000Z</time>
      </trkpt>
      <trkpt lat="47.92103" lon="2.13135">
        <ele>107</ele>
        <time>2017-10-15T07:26:16.000Z</time>
      </trkpt>
      <trkpt lat="47.92109" lon="2.13129">
        <ele>107</ele>
        <time>2017-10-15T07:26:17.000Z</time>
      </trkpt>
      <trkpt lat="47.92152" lon="2.13088">
        <ele>107</ele>
        <time>2017-10-15T07:26:24.000Z</time>
      </trkpt>
      <trkpt lat="47.92158" lon="2.13082">
        <ele>107</ele>
        <time>2017-10-15T07:26:25.000Z</time>
      </trkpt>
      <trkpt lat="47.922" lon="2.13043">
        <ele>107</ele>
        <time>2017-10-15T07:26:32.000Z</time>
      </trkpt>
      <trkpt lat="47.92205" lon="2.13037">
        <ele>107</ele>
        <time>2017-10-15T07:26:33.000Z</time>
      </trkpt>
      <trkpt lat="47.92225" lon="2.13021">
        <ele>106</ele>
        <time>2017-10-15T07:26:37.000Z</time>
      </trkpt>
      <trkpt lat="47.92253" lon="2.13008">
        <ele>106</ele>
        <time>2017-10-15T07:26:44.000Z</time>
      </trkpt>
      <trkpt lat="47.9229" lon="2.1297">
        <ele>105</ele>
        <time>2017-10-15T07:26:51.000Z</time>
      </trkpt>
      <trkpt lat="47.92295" lon="2.12963">
        <ele>105</ele>
        <time>2017-10-15T07:26:52.000Z</time>
      </trkpt>
      <trkpt lat="47.923" lon="2.12954">
        <ele>104</ele>
        <time>2017-10-15T07:26:53.000Z</time>
      </trkpt>
      <trkpt lat="47.92311" lon="2.12925">
        <ele>104</ele>
        <time>2017-10-15T07:26:56.000Z</time>
      </trkpt>
      <trkpt lat="47.92311" lon="2.12904">
        <ele>104</ele>
        <time>2017-10-15T07:26:58.000Z</time>
      </trkpt>
      <trkpt lat="47.92303" lon="2.12877">
        <ele>104</ele>
        <time>2017-10-15T07:27:01.000Z</time>
      </trkpt>
      <trkpt lat="47.92273" lon="2.12822">
        <ele>105</ele>
        <time>2017-10-15T07:27:08.000Z</time>
      </trkpt>
      <trkpt lat="47.92268" lon="2.12814">
        <ele>106</ele>
        <time>2017-10-15T07:27:09.000Z</time>
      </trkpt>
      <trkpt lat="47.92245" lon="2.12756">
        <ele>109</ele>
        <time>2017-10-15T07:27:16.000Z</time>
      </trkpt>
      <trkpt lat="47.92243" lon="2.12748">
        <ele>109</ele>
        <time>2017-10-15T07:27:17.000Z</time>
      </trkpt>
      <trkpt lat="47.92234" lon="2.12696">
        <ele>111</ele>
        <time>2017-10-15T07:27:23.000Z</time>
      </trkpt>
      <trkpt lat="47.92233" lon="2.12663">
        <ele>112</ele>
        <time>2017-10-15T07:27:27.000Z</time>
      </trkpt>
      <trkpt lat="47.92239" lon="2.12595">
        <ele>111</ele>
        <time>2017-10-15T07:27:35.000Z</time>
      </trkpt>
      <trkpt lat="47.9224" lon="2.12585">
        <ele>110</ele>
        <time>2017-10-15T07:27:36.000Z</time>
      </trkpt>
      <trkpt lat="47.92241" lon="2.12512">
        <ele>105</ele>
        <time>2017-10-15T07:27:44.000Z</time>
      </trkpt>
      <trkpt lat="47.92241" lon="2.12506">
        <ele>105</ele>
        <time>2017-10-15T07:27:45.000Z</time>
      </trkpt>
      <trkpt lat="47.92241" lon="2.1244">
        <ele>104</ele>
        <time>2017-10-15T07:27:53.000Z</time>
      </trkpt>
      <trkpt lat="47.9224" lon="2.12431">
        <ele>104</ele>
        <time>2017-10-15T07:27:54.000Z</time>
      </trkpt>
      <trkpt lat="47.92233" lon="2.12364">
        <ele>106</ele>
        <time>2017-10-15T07:28:01.000Z</time>
      </trkpt>
      <trkpt lat="47.92232" lon="2.12354">
        <ele>106</ele>
        <time>2017-10-15T07:28:02.000Z</time>
      </trkpt>
      <trkpt lat="47.92221" lon="2.12282">
        <ele>106</ele>
        <time>2017-10-15T07:28:09.000Z</time>
      </trkpt>
      <trkpt lat="47.9222" lon="2.12272">
        <ele>106</ele>
        <time>2017-10-15T07:28:10.000Z</time>
      </trkpt>
      <trkpt lat="47.92213" lon="2.12223">
        <ele>107</ele>
        <time>2017-10-15T07:28:17.000Z</time>
      </trkpt>
      <trkpt lat="47.92221" lon="2.12225">
        <ele>107</ele>
        <time>2017-10-15T07:28:20.000Z</time>
      </trkpt>
      <trkpt lat="47.92242" lon="2.12215">
        <ele>108</ele>
        <time>2017-10-15T07:28:26.000Z</time>
      </trkpt>
      <trkpt lat="47.92244" lon="2.12206">
        <ele>108</ele>
        <time>2017-10-15T07:28:28.000Z</time>
      </trkpt>
      <trkpt lat="47.92239" lon="2.12137">
        <ele>103</ele>
        <time>2017-10-15T07:28:38.000Z</time>
      </trkpt>
      <trkpt lat="47.92239" lon="2.12128">
        <ele>103</ele>
        <time>2017-10-15T07:28:39.000Z</time>
      </trkpt>
      <trkpt lat="47.92233" lon="2.12058">
        <ele>101</ele>
        <time>2017-10-15T07:28:47.000Z</time>
      </trkpt>
      <trkpt lat="47.92232" lon="2.12049">
        <ele>101</ele>
        <time>2017-10-15T07:28:48.000Z</time>
      </trkpt>
      <trkpt lat="47.9223" lon="2.1204">
        <ele>101</ele>
        <time>2017-10-15T07:28:49.000Z</time>
      </trkpt>
      <trkpt lat="47.92224" lon="2.11965">
        <ele>100</ele>
        <time>2017-10-15T07:28:57.000Z</time>
      </trkpt>
      <trkpt lat="47.92223" lon="2.11955">
        <ele>100</ele>
        <time>2017-10-15T07:28:58.000Z</time>
      </trkpt>
      <trkpt lat="47.92215" lon="2.11912">
        <ele>99</ele>
        <time>2017-10-15T07:29:03.000Z</time>
      </trkpt>
      <trkpt lat="47.92196" lon="2.11851">
        <ele>99</ele>
        <time>2017-10-15T07:29:10.000Z</time>
      </trkpt>
      <trkpt lat="47.92193" lon="2.11842">
        <ele>99</ele>
        <time>2017-10-15T07:29:11.000Z</time>
      </trkpt>
      <trkpt lat="47.92173" lon="2.11778">
        <ele>100</ele>
        <time>2017-10-15T07:29:18.000Z</time>
      </trkpt>
      <trkpt lat="47.9217" lon="2.11769">
        <ele>100</ele>
        <time>2017-10-15T07:29:19.000Z</time>
      </trkpt>
      <trkpt lat="47.92149" lon="2.11705">
        <ele>101</ele>
        <time>2017-10-15T07:29:27.000Z</time>
      </trkpt>
      <trkpt lat="47.92147" lon="2.11699">
        <ele>101</ele>
        <time>2017-10-15T07:29:28.000Z</time>
      </trkpt>
      <trkpt lat="47.92129" lon="2.11646">
        <ele>101</ele>
        <time>2017-10-15T07:29:39.000Z</time>
      </trkpt>
      <trkpt lat="47.92126" lon="2.11639">
        <ele>101</ele>
        <time>2017-10-15T07:29:40.000Z</time>
      </trkpt>
      <trkpt lat="47.92102" lon="2.11574">
        <ele>101</ele>
        <time>2017-10-15T07:29:48.000Z</time>
      </trkpt>
      <trkpt lat="47.92099" lon="2.11564">
        <ele>101</ele>
        <time>2017-10-15T07:29:49.000Z</time>
      </trkpt>
      <trkpt lat="47.92076" lon="2.115">
        <ele>100</ele>
        <time>2017-10-15T07:29:56.000Z</time>
      </trkpt>
      <trkpt lat="47.92072" lon="2.11491">
        <ele>100</ele>
        <time>2017-10-15T07:29:57.000Z</time>
      </trkpt>
      <trkpt lat="47.92046" lon="2.11438">
        <ele>100</ele>
        <time>2017-10-15T07:30:03.000Z</time>
      </trkpt>
      <trkpt lat="47.92042" lon="2.1143">
        <ele>100</ele>
        <time>2017-10-15T07:30:04.000Z</time>
      </trkpt>
      <trkpt lat="47.9201" lon="2.1138">
        <ele>100</ele>
        <time>2017-10-15T07:30:11.000Z</time>
      </trkpt>
      <trkpt lat="47.92007" lon="2.11373">
        <ele>99</ele>
        <time>2017-10-15T07:30:12.000Z</time>
      </trkpt>
      <trkpt lat="47.91978" lon="2.1133">
        <ele>99</ele>
        <time>2017-10-15T07:30:20.000Z</time>
      </trkpt>
      <trkpt lat="47.91974" lon="2.11325">
        <ele>99</ele>
        <time>2017-10-15T07:30:21.000Z</time>
      </trkpt>
      <trkpt lat="47.91942" lon="2.11273">
        <ele>99</ele>
        <time>2017-10-15T07:30:29.000Z</time>
      </trkpt>
      <trkpt lat="47.91937" lon="2.11266">
        <ele>99</ele>
        <time>2017-10-15T07:30:30.000Z</time>
      </trkpt>
      <trkpt lat="47.91906" lon="2.11217">
        <ele>98</ele>
        <time>2017-10-15T07:30:37.000Z</time>
      </trkpt>
      <trkpt lat="47.91902" lon="2.11209">
        <ele>98</ele>
        <time>2017-10-15T07:30:38.000Z</time>
      </trkpt>
      <trkpt lat="47.91898" lon="2.112">
        <ele>98</ele>
        <time>2017-10-15T07:30:39.000Z</time>
      </trkpt>
      <trkpt lat="47.9187" lon="2.11142">
        <ele>98</ele>
        <time>2017-10-15T07:30:46.000Z</time>
      </trkpt>
      <trkpt lat="47.91867" lon="2.11133">
        <ele>98</ele>
        <time>2017-10-15T07:30:47.000Z</time>
      </trkpt>
      <trkpt lat="47.91837" lon="2.11074">
        <ele>98</ele>
        <time>2017-10-15T07:30:54.000Z</time>
      </trkpt>
      <trkpt lat="47.91833" lon="2.11066">
        <ele>98</ele>
        <time>2017-10-15T07:30:55.000Z</time>
      </trkpt>
      <trkpt lat="47.91805" lon="2.11007">
        <ele>98</ele>
        <time>2017-10-15T07:31:02.000Z</time>
      </trkpt>
      <trkpt lat="47.91801" lon="2.10999">
        <ele>98</ele>
        <time>2017-10-15T07:31:03.000Z</time>
      </trkpt>
      <trkpt lat="47.91775" lon="2.10943">
        <ele>99</ele>
        <time>2017-10-15T07:31:10.000Z</time>
      </trkpt>
      <trkpt lat="47.91771" lon="2.10935">
        <ele>99</ele>
        <time>2017-10-15T07:31:11.000Z</time>
      </trkpt>
      <trkpt lat="47.91743" lon="2.10876">
        <ele>98</ele>
        <time>2017-10-15T07:31:19.000Z</time>
      </trkpt>
      <trkpt lat="47.91739" lon="2.10869">
        <ele>98</ele>
        <time>2017-10-15T07:31:20.000Z</time>
      </trkpt>
      <trkpt lat="47.91709" lon="2.10807">
        <ele>98</ele>
        <time>2017-10-15T07:31:28.000Z</time>
      </trkpt>
      <trkpt lat="47.91705" lon="2.108">
        <ele>98</ele>
        <time>2017-10-15T07:31:29.000Z</time>
      </trkpt>
      <trkpt lat="47.91679" lon="2.10743">
        <ele>99</ele>
        <time>2017-10-15T07:31:36.000Z</time>
      </trkpt>
      <trkpt lat="47.91675" lon="2.10735">
        <ele>99</ele>
        <time>2017-10-15T07:31:37.000Z</time>
      </trkpt>
      <trkpt lat="47.91648" lon="2.10679">
        <ele>98</ele>
        <time>2017-10-15T07:31:44.000Z</time>
      </trkpt>
      <trkpt lat="47.91644" lon="2.10671">
        <ele>98</ele>
        <time>2017-10-15T07:31:45.000Z</time>
      </trkpt>
      <trkpt lat="47.91617" lon="2.10616">
        <ele>98</ele>
        <time>2017-10-15T07:31:52.000Z</time>
      </trkpt>
      <trkpt lat="47.91613" lon="2.10608">
        <ele>98</ele>
        <time>2017-10-15T07:31:53.000Z</time>
      </trkpt>
      <trkpt lat="47.91584" lon="2.10553">
        <ele>97</ele>
        <time>2017-10-15T07:32:00.000Z</time>
      </trkpt>
      <trkpt lat="47.91581" lon="2.10545">
        <ele>97</ele>
        <time>2017-10-15T07:32:01.000Z</time>
      </trkpt>
      <trkpt lat="47.91553" lon="2.10489">
        <ele>97</ele>
        <time>2017-10-15T07:32:08.000Z</time>
      </trkpt>
      <trkpt lat="47.9155" lon="2.10482">
        <ele>98</ele>
        <time>2017-10-15T07:32:09.000Z</time>
      </trkpt>
      <trkpt lat="47.91529" lon="2.10447">
        <ele>98</ele>
        <time>2017-10-15T07:32:14.000Z</time>
      </trkpt>
      <trkpt lat="47.915" lon="2.10389">
        <ele>99</ele>
        <time>2017-10-15T07:32:22.000Z</time>
      </trkpt>
      <trkpt lat="47.91497" lon="2.10381">
        <ele>99</ele>
        <time>2017-10-15T07:32:23.000Z</time>
      </trkpt>
      <trkpt lat="47.91466" lon="2.10328">
        <ele>99</ele>
        <time>2017-10-15T07:32:31.000Z</time>
      </trkpt>
      <trkpt lat="47.91464" lon="2.10325">
        <ele>100</ele>
        <time>2017-10-15T07:32:32.000Z</time>
      </trkpt>
      <trkpt lat="47.91433" lon="2.10274">
        <ele>99</ele>
        <time>2017-10-15T07:32:46.000Z</time>
      </trkpt>
      <trkpt lat="47.91429" lon="2.10267">
        <ele>99</ele>
        <time>2017-10-15T07:32:47.000Z</time>
      </trkpt>
      <trkpt lat="47.91397" lon="2.10213">
        <ele>98</ele>
        <time>2017-10-15T07:32:55.000Z</time>
      </trkpt>
      <trkpt lat="47.91394" lon="2.10208">
        <ele>98</ele>
        <time>2017-10-15T07:32:56.000Z</time>
      </trkpt>
      <trkpt lat="47.9136" lon="2.10154">
        <ele>96</ele>
        <time>2017-10-15T07:33:06.000Z</time>
      </trkpt>
      <trkpt lat="47.91356" lon="2.10147">
        <ele>96</ele>
        <time>2017-10-15T07:33:07.000Z</time>
      </trkpt>
      <trkpt lat="47.91326" lon="2.10102">
        <ele>95</ele>
        <time>2017-10-15T07:33:14.000Z</time>
      </trkpt>
      <trkpt lat="47.9132" lon="2.10097">
        <ele>95</ele>
        <time>2017-10-15T07:33:15.000Z</time>
      </trkpt>
      <trkpt lat="47.91309" lon="2.10089">
        <ele>95</ele>
        <time>2017-10-15T07:33:17.000Z</time>
      </trkpt>
      <trkpt lat="47.91261" lon="2.10071">
        <ele>96</ele>
        <time>2017-10-15T07:33:24.000Z</time>
      </trkpt>
      <trkpt lat="47.91253" lon="2.10069">
        <ele>96</ele>
        <time>2017-10-15T07:33:25.000Z</time>
      </trkpt>
      <trkpt lat="47.91205" lon="2.10054">
        <ele>95</ele>
        <time>2017-10-15T07:33:32.000Z</time>
      </trkpt>
      <trkpt lat="47.912" lon="2.10052">
        <ele>96</ele>
        <time>2017-10-15T07:33:33.000Z</time>
      </trkpt>
      <trkpt lat="47.91186" lon="2.10049">
        <ele>96</ele>
        <time>2017-10-15T07:33:36.000Z</time>
      </trkpt>
      <trkpt lat="47.91137" lon="2.10031">
        <ele>97</ele>
        <time>2017-10-15T07:33:46.000Z</time>
      </trkpt>
      <trkpt lat="47.91132" lon="2.1003">
        <ele>98</ele>
        <time>2017-10-15T07:33:47.000Z</time>
      </trkpt>
      <trkpt lat="47.91087" lon="2.10014">
        <ele>98</ele>
        <time>2017-10-15T07:33:55.000Z</time>
      </trkpt>
      <trkpt lat="47.91081" lon="2.10011">
        <ele>98</ele>
        <time>2017-10-15T07:33:56.000Z</time>
      </trkpt>
      <trkpt lat="47.91036" lon="2.09981">
        <ele>98</ele>
        <time>2017-10-15T07:34:04.000Z</time>
      </trkpt>
      <trkpt lat="47.9103" lon="2.09977">
        <ele>98</ele>
        <time>2017-10-15T07:34:05.000Z</time>
      </trkpt>
      <trkpt lat="47.91024" lon="2.09972">
        <ele>98</ele>
        <time>2017-10-15T07:34:06.000Z</time>
      </trkpt>
      <trkpt lat="47.9098" lon="2.09932">
        <ele>99</ele>
        <time>2017-10-15T07:34:14.000Z</time>
      </trkpt>
      <trkpt lat="47.90975" lon="2.09927">
        <ele>99</ele>
        <time>2017-10-15T07:34:15.000Z</time>
      </trkpt>
      <trkpt lat="47.9096" lon="2.09908">
        <ele>99</ele>
        <time>2017-10-15T07:34:18.000Z</time>
      </trkpt>
      <trkpt lat="47.90928" lon="2.09861">
        <ele>99</ele>
        <time>2017-10-15T07:34:25.000Z</time>
      </trkpt>
      <trkpt lat="47.90923" lon="2.09855">
        <ele>99</ele>
        <time>2017-10-15T07:34:26.000Z</time>
      </trkpt>
      <trkpt lat="47.909" lon="2.09815">
        <ele>98</ele>
        <time>2017-10-15T07:34:32.000Z</time>
      </trkpt>
      <trkpt lat="47.90876" lon="2.09755">
        <ele>98</ele>
        <time>2017-10-15T07:34:42.000Z</time>
      </trkpt>
      <trkpt lat="47.90873" lon="2.09748">
        <ele>98</ele>
        <time>2017-10-15T07:34:43.000Z</time>
      </trkpt>
      <trkpt lat="47.90849" lon="2.09685">
        <ele>97</ele>
        <time>2017-10-15T07:34:51.000Z</time>
      </trkpt>
      <trkpt lat="47.90845" lon="2.09677">
        <ele>97</ele>
        <time>2017-10-15T07:34:52.000Z</time>
      </trkpt>
      <trkpt lat="47.90821" lon="2.09613">
        <ele>96</ele>
        <time>2017-10-15T07:35:00.000Z</time>
      </trkpt>
      <trkpt lat="47.90818" lon="2.09605">
        <ele>95</ele>
        <time>2017-10-15T07:35:01.000Z</time>
      </trkpt>
      <trkpt lat="47.90792" lon="2.09539">
        <ele>95</ele>
        <time>2017-10-15T07:35:09.000Z</time>
      </trkpt>
      <trkpt lat="47.90789" lon="2.0953">
        <ele>95</ele>
        <time>2017-10-15T07:35:10.000Z</time>
      </trkpt>
      <trkpt lat="47.90763" lon="2.09467">
        <ele>97</ele>
        <time>2017-10-15T07:35:18.000Z</time>
      </trkpt>
      <trkpt lat="47.9076" lon="2.09459">
        <ele>97</ele>
        <time>2017-10-15T07:35:19.000Z</time>
      </trkpt>
      <trkpt lat="47.90736" lon="2.094">
        <ele>97</ele>
        <time>2017-10-15T07:35:26.000Z</time>
      </trkpt>
      <trkpt lat="47.90733" lon="2.09391">
        <ele>98</ele>
        <time>2017-10-15T07:35:27.000Z</time>
      </trkpt>
      <trkpt lat="47.90707" lon="2.09329">
        <ele>98</ele>
        <time>2017-10-15T07:35:34.000Z</time>
      </trkpt>
      <trkpt lat="47.90704" lon="2.09321">
        <ele>98</ele>
        <time>2017-10-15T07:35:35.000Z</time>
      </trkpt>
      <trkpt lat="47.90678" lon="2.09257">
        <ele>100</ele>
        <time>2017-10-15T07:35:43.000Z</time>
      </trkpt>
      <trkpt lat="47.90675" lon="2.09249">
        <ele>100</ele>
        <time>2017-10-15T07:35:44.000Z</time>
      </trkpt>
      <trkpt lat="47.90651" lon="2.0919">
        <ele>101</ele>
        <time>2017-10-15T07:35:56.000Z</time>
      </trkpt>
      <trkpt lat="47.9065" lon="2.09188">
        <ele>101</ele>
        <time>2017-10-15T07:35:57.000Z</time>
      </trkpt>
      <trkpt lat="47.90625" lon="2.09125">
        <ele>100</ele>
        <time>2017-10-15T07:36:10.000Z</time>
      </trkpt>
      <trkpt lat="47.90622" lon="2.09118">
        <ele>100</ele>
        <time>2017-10-15T07:36:11.000Z</time>
      </trkpt>
      <trkpt lat="47.90598" lon="2.09058">
        <ele>99</ele>
        <time>2017-10-15T07:36:18.000Z</time>
      </trkpt>
      <trkpt lat="47.90594" lon="2.09049">
        <ele>99</ele>
        <time>2017-10-15T07:36:19.000Z</time>
      </trkpt>
      <trkpt lat="47.90571" lon="2.08985">
        <ele>99</ele>
        <time>2017-10-15T07:36:26.000Z</time>
      </trkpt>
      <trkpt lat="47.90569" lon="2.08975">
        <ele>99</ele>
        <time>2017-10-15T07:36:27.000Z</time>
      </trkpt>
      <trkpt lat="47.90562" lon="2.08947">
        <ele>99</ele>
        <time>2017-10-15T07:36:30.000Z</time>
      </trkpt>
      <trkpt lat="47.90551" lon="2.08917">
        <ele>100</ele>
        <time>2017-10-15T07:36:34.000Z</time>
      </trkpt>
      <trkpt lat="47.90489" lon="2.08793">
        <ele>102</ele>
        <time>2017-10-15T07:36:53.000Z</time>
      </trkpt>
      <trkpt lat="47.90488" lon="2.08791">
        <ele>102</ele>
        <time>2017-10-15T07:36:54.000Z</time>
      </trkpt>
      <trkpt lat="47.90458" lon="2.08734">
        <ele>98</ele>
        <time>2017-10-15T07:37:05.000Z</time>
      </trkpt>
      <trkpt lat="47.90454" lon="2.08729">
        <ele>97</ele>
        <time>2017-10-15T07:37:06.000Z</time>
      </trkpt>
      <trkpt lat="47.90422" lon="2.08675">
        <ele>96</ele>
        <time>2017-10-15T07:37:14.000Z</time>
      </trkpt>
      <trkpt lat="47.90418" lon="2.08668">
        <ele>96</ele>
        <time>2017-10-15T07:37:15.000Z</time>
      </trkpt>
      <trkpt lat="47.90385" lon="2.08609">
        <ele>96</ele>
        <time>2017-10-15T07:37:23.000Z</time>
      </trkpt>
      <trkpt lat="47.90381" lon="2.08602">
        <ele>96</ele>
        <time>2017-10-15T07:37:24.000Z</time>
      </trkpt>
      <trkpt lat="47.90354" lon="2.08541">
        <ele>95</ele>
        <time>2017-10-15T07:37:31.000Z</time>
      </trkpt>
      <trkpt lat="47.90351" lon="2.08532">
        <ele>95</ele>
        <time>2017-10-15T07:37:32.000Z</time>
      </trkpt>
      <trkpt lat="47.90335" lon="2.08466">
        <ele>95</ele>
        <time>2017-10-15T07:37:39.000Z</time>
      </trkpt>
      <trkpt lat="47.90332" lon="2.08457">
        <ele>95</ele>
        <time>2017-10-15T07:37:40.000Z</time>
      </trkpt>
      <trkpt lat="47.90315" lon="2.0839">
        <ele>95</ele>
        <time>2017-10-15T07:37:47.000Z</time>
      </trkpt>
      <trkpt lat="47.90313" lon="2.0838">
        <ele>95</ele>
        <time>2017-10-15T07:37:48.000Z</time>
      </trkpt>
      <trkpt lat="47.90296" lon="2.08314">
        <ele>94</ele>
        <time>2017-10-15T07:37:55.000Z</time>
      </trkpt>
      <trkpt lat="47.90294" lon="2.08305">
        <ele>94</ele>
        <time>2017-10-15T07:37:56.000Z</time>
      </trkpt>
      <trkpt lat="47.90279" lon="2.08259">
        <ele>94</ele>
        <time>2017-10-15T07:38:01.000Z</time>
      </trkpt>
      <trkpt lat="47.90256" lon="2.0819">
        <ele>94</ele>
        <time>2017-10-15T07:38:08.000Z</time>
      </trkpt>
      <trkpt lat="47.90253" lon="2.0818">
        <ele>94</ele>
        <time>2017-10-15T07:38:09.000Z</time>
      </trkpt>
      <trkpt lat="47.90231" lon="2.08117">
        <ele>93</ele>
        <time>2017-10-15T07:38:15.000Z</time>
      </trkpt>
      <trkpt lat="47.90228" lon="2.08106">
        <ele>93</ele>
        <time>2017-10-15T07:38:16.000Z</time>
      </trkpt>
      <trkpt lat="47.90211" lon="2.08042">
        <ele>93</ele>
        <time>2017-10-15T07:38:22.000Z</time>
      </trkpt>
      <trkpt lat="47.90209" lon="2.08032">
        <ele>93</ele>
        <time>2017-10-15T07:38:23.000Z</time>
      </trkpt>
      <trkpt lat="47.902" lon="2.07991">
        <ele>93</ele>
        <time>2017-10-15T07:38:27.000Z</time>
      </trkpt>
      <trkpt lat="47.90185" lon="2.0792">
        <ele>93</ele>
        <time>2017-10-15T07:38:34.000Z</time>
      </trkpt>
      <trkpt lat="47.90182" lon="2.07909">
        <ele>93</ele>
        <time>2017-10-15T07:38:35.000Z</time>
      </trkpt>
      <trkpt lat="47.90167" lon="2.0784">
        <ele>94</ele>
        <time>2017-10-15T07:38:42.000Z</time>
      </trkpt>
      <trkpt lat="47.90165" lon="2.0783">
        <ele>94</ele>
        <time>2017-10-15T07:38:43.000Z</time>
      </trkpt>
      <trkpt lat="47.90148" lon="2.07761">
        <ele>95</ele>
        <time>2017-10-15T07:38:50.000Z</time>
      </trkpt>
      <trkpt lat="47.90146" lon="2.07751">
        <ele>95</ele>
        <time>2017-10-15T07:38:51.000Z</time>
      </trkpt>
      <trkpt lat="47.9013" lon="2.07687">
        <ele>94</ele>
        <time>2017-10-15T07:38:58.000Z</time>
      </trkpt>
      <trkpt lat="47.90128" lon="2.07677">
        <ele>94</ele>
        <time>2017-10-15T07:38:59.000Z</time>
      </trkpt>
      <trkpt lat="47.90111" lon="2.07613">
        <ele>95</ele>
        <time>2017-10-15T07:39:06.000Z</time>
      </trkpt>
      <trkpt lat="47.90108" lon="2.07604">
        <ele>95</ele>
        <time>2017-10-15T07:39:07.000Z</time>
      </trkpt>
      <trkpt lat="47.90092" lon="2.0754">
        <ele>96</ele>
        <time>2017-10-15T07:39:14.000Z</time>
      </trkpt>
      <trkpt lat="47.9009" lon="2.07531">
        <ele>97</ele>
        <time>2017-10-15T07:39:15.000Z</time>
      </trkpt>
      <trkpt lat="47.90073" lon="2.07465">
        <ele>99</ele>
        <time>2017-10-15T07:39:22.000Z</time>
      </trkpt>
      <trkpt lat="47.9007" lon="2.07455">
        <ele>99</ele>
        <time>2017-10-15T07:39:23.000Z</time>
      </trkpt>
      <trkpt lat="47.90054" lon="2.07388">
        <ele>99</ele>
        <time>2017-10-15T07:39:30.000Z</time>
      </trkpt>
      <trkpt lat="47.90052" lon="2.07379">
        <ele>99</ele>
        <time>2017-10-15T07:39:31.000Z</time>
      </trkpt>
      <trkpt lat="47.90036" lon="2.07313">
        <ele>98</ele>
        <time>2017-10-15T07:39:38.000Z</time>
      </trkpt>
      <trkpt lat="47.90034" lon="2.07305">
        <ele>98</ele>
        <time>2017-10-15T07:39:39.000Z</time>
      </trkpt>
      <trkpt lat="47.9002" lon="2.0726">
        <ele>97</ele>
        <time>2017-10-15T07:39:44.000Z</time>
      </trkpt>
      <trkpt lat="47.89991" lon="2.07203">
        <ele>96</ele>
        <time>2017-10-15T07:39:51.000Z</time>
      </trkpt>
      <trkpt lat="47.89987" lon="2.07195">
        <ele>96</ele>
        <time>2017-10-15T07:39:52.000Z</time>
      </trkpt>
      <trkpt lat="47.8996" lon="2.07139">
        <ele>95</ele>
        <time>2017-10-15T07:39:59.000Z</time>
      </trkpt>
      <trkpt lat="47.89957" lon="2.07132">
        <ele>95</ele>
        <time>2017-10-15T07:40:00.000Z</time>
      </trkpt>
      <trkpt lat="47.89931" lon="2.07066">
        <ele>94</ele>
        <time>2017-10-15T07:40:08.000Z</time>
      </trkpt>
      <trkpt lat="47.89928" lon="2.07057">
        <ele>94</ele>
        <time>2017-10-15T07:40:09.000Z</time>
      </trkpt>
      <trkpt lat="47.89905" lon="2.06998">
        <ele>94</ele>
        <time>2017-10-15T07:40:16.000Z</time>
      </trkpt>
      <trkpt lat="47.89901" lon="2.06989">
        <ele>94</ele>
        <time>2017-10-15T07:40:17.000Z</time>
      </trkpt>
      <trkpt lat="47.89878" lon="2.06927">
        <ele>93</ele>
        <time>2017-10-15T07:40:24.000Z</time>
      </trkpt>
      <trkpt lat="47.89875" lon="2.0692">
        <ele>93</ele>
        <time>2017-10-15T07:40:25.000Z</time>
      </trkpt>
      <trkpt lat="47.89848" lon="2.06854">
        <ele>93</ele>
        <time>2017-10-15T07:40:33.000Z</time>
      </trkpt>
      <trkpt lat="47.89845" lon="2.06846">
        <ele>93</ele>
        <time>2017-10-15T07:40:34.000Z</time>
      </trkpt>
      <trkpt lat="47.89817" lon="2.06782">
        <ele>92</ele>
        <time>2017-10-15T07:40:42.000Z</time>
      </trkpt>
      <trkpt lat="47.89813" lon="2.06773">
        <ele>92</ele>
        <time>2017-10-15T07:40:43.000Z</time>
      </trkpt>
      <trkpt lat="47.89787" lon="2.06715">
        <ele>91</ele>
        <time>2017-10-15T07:40:50.000Z</time>
      </trkpt>
      <trkpt lat="47.89783" lon="2.06708">
        <ele>91</ele>
        <time>2017-10-15T07:40:51.000Z</time>
      </trkpt>
      <trkpt lat="47.89757" lon="2.0665">
        <ele>91</ele>
        <time>2017-10-15T07:40:58.000Z</time>
      </trkpt>
      <trkpt lat="47.89753" lon="2.06642">
        <ele>91</ele>
        <time>2017-10-15T07:40:59.000Z</time>
      </trkpt>
      <trkpt lat="47.89728" lon="2.06583">
        <ele>92</ele>
        <time>2017-10-15T07:41:06.000Z</time>
      </trkpt>
      <trkpt lat="47.89724" lon="2.06575">
        <ele>92</ele>
        <time>2017-10-15T07:41:07.000Z</time>
      </trkpt>
      <trkpt lat="47.89696" lon="2.0652">
        <ele>92</ele>
        <time>2017-10-15T07:41:14.000Z</time>
      </trkpt>
      <trkpt lat="47.89692" lon="2.06513">
        <ele>92</ele>
        <time>2017-10-15T07:41:15.000Z</time>
      </trkpt>
      <trkpt lat="47.89663" lon="2.0646">
        <ele>92</ele>
        <time>2017-10-15T07:41:22.000Z</time>
      </trkpt>
      <trkpt lat="47.89658" lon="2.06452">
        <ele>92</ele>
        <time>2017-10-15T07:41:23.000Z</time>
      </trkpt>
      <trkpt lat="47.89629" lon="2.064">
        <ele>93</ele>
        <time>2017-10-15T07:41:30.000Z</time>
      </trkpt>
      <trkpt lat="47.89625" lon="2.06393">
        <ele>93</ele>
        <time>2017-10-15T07:41:31.000Z</time>
      </trkpt>
      <trkpt lat="47.89595" lon="2.0634">
        <ele>93</ele>
        <time>2017-10-15T07:41:38.000Z</time>
      </trkpt>
      <trkpt lat="47.8959" lon="2.06332">
        <ele>93</ele>
        <time>2017-10-15T07:41:39.000Z</time>
      </trkpt>
      <trkpt lat="47.89564" lon="2.06273">
        <ele>93</ele>
        <time>2017-10-15T07:41:46.000Z</time>
      </trkpt>
      <trkpt lat="47.89561" lon="2.06264">
        <ele>93</ele>
        <time>2017-10-15T07:41:47.000Z</time>
      </trkpt>
      <trkpt lat="47.89552" lon="2.06236">
        <ele>93</ele>
        <time>2017-10-15T07:41:50.000Z</time>
      </trkpt>
      <trkpt lat="47.89535" lon="2.06172">
        <ele>93</ele>
        <time>2017-10-15T07:41:57.000Z</time>
      </trkpt>
      <trkpt lat="47.89532" lon="2.06164">
        <ele>93</ele>
        <time>2017-10-15T07:41:58.000Z</time>
      </trkpt>
      <trkpt lat="47.89515" lon="2.061">
        <ele>93</ele>
        <time>2017-10-15T07:42:05.000Z</time>
      </trkpt>
      <trkpt lat="47.89512" lon="2.06092">
        <ele>92</ele>
        <time>2017-10-15T07:42:06.000Z</time>
      </trkpt>
      <trkpt lat="47.89492" lon="2.0602">
        <ele>92</ele>
        <time>2017-10-15T07:42:14.000Z</time>
      </trkpt>
      <trkpt lat="47.8949" lon="2.06011">
        <ele>92</ele>
        <time>2017-10-15T07:42:15.000Z</time>
      </trkpt>
      <trkpt lat="47.89472" lon="2.05941">
        <ele>92</ele>
        <time>2017-10-15T07:42:22.000Z</time>
      </trkpt>
      <trkpt lat="47.8947" lon="2.05931">
        <ele>92</ele>
        <time>2017-10-15T07:42:23.000Z</time>
      </trkpt>
      <trkpt lat="47.89468" lon="2.0592">
        <ele>92</ele>
        <time>2017-10-15T07:42:24.000Z</time>
      </trkpt>
      <trkpt lat="47.89458" lon="2.05847">
        <ele>93</ele>
        <time>2017-10-15T07:42:31.000Z</time>
      </trkpt>
      <trkpt lat="47.89457" lon="2.05837">
        <ele>93</ele>
        <time>2017-10-15T07:42:32.000Z</time>
      </trkpt>
      <trkpt lat="47.89448" lon="2.05769">
        <ele>95</ele>
        <time>2017-10-15T07:42:39.000Z</time>
      </trkpt>
      <trkpt lat="47.89446" lon="2.0576">
        <ele>95</ele>
        <time>2017-10-15T07:42:40.000Z</time>
      </trkpt>
      <trkpt lat="47.89432" lon="2.05692">
        <ele>95</ele>
        <time>2017-10-15T07:42:47.000Z</time>
      </trkpt>
      <trkpt lat="47.89429" lon="2.05682">
        <ele>94</ele>
        <time>2017-10-15T07:42:48.000Z</time>
      </trkpt>
      <trkpt lat="47.89412" lon="2.05627">
        <ele>93</ele>
        <time>2017-10-15T07:42:54.000Z</time>
      </trkpt>
      <trkpt lat="47.89409" lon="2.05619">
        <ele>93</ele>
        <time>2017-10-15T07:42:55.000Z</time>
      </trkpt>
      <trkpt lat="47.89384" lon="2.05557">
        <ele>93</ele>
        <time>2017-10-15T07:43:02.000Z</time>
      </trkpt>
      <trkpt lat="47.89381" lon="2.05549">
        <ele>93</ele>
        <time>2017-10-15T07:43:03.000Z</time>
      </trkpt>
      <trkpt lat="47.89354" lon="2.05486">
        <ele>95</ele>
        <time>2017-10-15T07:43:11.000Z</time>
      </trkpt>
      <trkpt lat="47.89349" lon="2.05478">
        <ele>95</ele>
        <time>2017-10-15T07:43:12.000Z</time>
      </trkpt>
      <trkpt lat="47.89336" lon="2.05453">
        <ele>95</ele>
        <time>2017-10-15T07:43:15.000Z</time>
      </trkpt>
      <trkpt lat="47.89303" lon="2.05404">
        <ele>95</ele>
        <time>2017-10-15T07:43:22.000Z</time>
      </trkpt>
      <trkpt lat="47.89299" lon="2.05397">
        <ele>95</ele>
        <time>2017-10-15T07:43:23.000Z</time>
      </trkpt>
      <trkpt lat="47.8927" lon="2.05348">
        <ele>95</ele>
        <time>2017-10-15T07:43:32.000Z</time>
      </trkpt>
      <trkpt lat="47.89266" lon="2.05348">
        <ele>95</ele>
        <time>2017-10-15T07:43:33.000Z</time>
      </trkpt>
      <trkpt lat="47.89263" lon="2.0535">
        <ele>95</ele>
        <time>2017-10-15T07:43:34.000Z</time>
      </trkpt>
      <trkpt lat="47.89241" lon="2.05366">
        <ele>94</ele>
        <time>2017-10-15T07:43:40.000Z</time>
      </trkpt>
      <trkpt lat="47.89234" lon="2.0537">
        <ele>93</ele>
        <time>2017-10-15T07:43:42.000Z</time>
      </trkpt>
      <trkpt lat="47.89227" lon="2.05368">
        <ele>93</ele>
        <time>2017-10-15T07:43:44.000Z</time>
      </trkpt>
      <trkpt lat="47.89219" lon="2.05374">
        <ele>93</ele>
        <time>2017-10-15T07:43:47.000Z</time>
      </trkpt>
      <trkpt lat="47.8921" lon="2.05375">
        <ele>93</ele>
        <time>2017-10-15T07:43:50.000Z</time>
      </trkpt>
      <trkpt lat="47.89206" lon="2.05373">
        <ele>94</ele>
        <time>2017-10-15T07:43:54.000Z</time>
      </trkpt>
      <trkpt lat="47.89211" lon="2.0537">
        <ele>95</ele>
        <time>2017-10-15T07:44:00.000Z</time>
      </trkpt>
      <trkpt lat="47.89209" lon="2.05372">
        <ele>96</ele>
        <time>2017-10-15T07:47:30.000Z</time>
      </trkpt>
      <trkpt lat="47.89203" lon="2.05376">
        <ele>96</ele>
        <time>2017-10-15T07:47:35.000Z</time>
      </trkpt>
      <trkpt lat="47.89194" lon="2.05371">
        <ele>96</ele>
        <time>2017-10-15T07:47:39.000Z</time>
      </trkpt>
      <trkpt lat="47.89183" lon="2.05344">
        <ele>95</ele>
        <time>2017-10-15T07:47:49.000Z</time>
      </trkpt>
      <trkpt lat="47.89178" lon="2.05333">
        <ele>99</ele>
        <time>2017-10-15T07:48:50.000Z</time>
      </trkpt>
      <trkpt lat="47.89173" lon="2.05331">
        <ele>99</ele>
        <time>2017-10-15T07:48:52.000Z</time>
      </trkpt>
      <trkpt lat="47.89167" lon="2.05335">
        <ele>99</ele>
        <time>2017-10-15T07:48:54.000Z</time>
      </trkpt>
      <trkpt lat="47.89149" lon="2.05357">
        <ele>98</ele>
        <time>2017-10-15T07:49:02.000Z</time>
      </trkpt>
      <trkpt lat="47.89138" lon="2.05378">
        <ele>98</ele>
        <time>2017-10-15T07:49:08.000Z</time>
      </trkpt>
      <trkpt lat="47.89119" lon="2.05417">
        <ele>99</ele>
        <time>2017-10-15T07:49:17.000Z</time>
      </trkpt>
      <trkpt lat="47.89093" lon="2.05474">
        <ele>101</ele>
        <time>2017-10-15T07:49:29.000Z</time>
      </trkpt>
      <trkpt lat="47.89091" lon="2.0548">
        <ele>101</ele>
        <time>2017-10-15T07:49:30.000Z</time>
      </trkpt>
      <trkpt lat="47.89083" lon="2.055">
        <ele>102</ele>
        <time>2017-10-15T07:49:34.000Z</time>
      </trkpt>
      <trkpt lat="47.89069" lon="2.05533">
        <ele>103</ele>
        <time>2017-10-15T07:49:41.000Z</time>
      </trkpt>
      <trkpt lat="47.89064" lon="2.05537">
        <ele>103</ele>
        <time>2017-10-15T07:49:43.000Z</time>
      </trkpt>
      <trkpt lat="47.8902" lon="2.05556">
        <ele>105</ele>
        <time>2017-10-15T07:49:54.000Z</time>
      </trkpt>
      <trkpt lat="47.89016" lon="2.05558">
        <ele>105</ele>
        <time>2017-10-15T07:49:55.000Z</time>
      </trkpt>
      <trkpt lat="47.88972" lon="2.05578">
        <ele>108</ele>
        <time>2017-10-15T07:50:05.000Z</time>
      </trkpt>
      <trkpt lat="47.88968" lon="2.0558">
        <ele>108</ele>
        <time>2017-10-15T07:50:06.000Z</time>
      </trkpt>
      <trkpt lat="47.88918" lon="2.05586">
        <ele>108</ele>
        <time>2017-10-15T07:50:16.000Z</time>
      </trkpt>
      <trkpt lat="47.88913" lon="2.05586">
        <ele>108</ele>
        <time>2017-10-15T07:50:17.000Z</time>
      </trkpt>
      <trkpt lat="47.88864" lon="2.05577">
        <ele>108</ele>
        <time>2017-10-15T07:50:27.000Z</time>
      </trkpt>
      <trkpt lat="47.88859" lon="2.05576">
        <ele>108</ele>
        <time>2017-10-15T07:50:28.000Z</time>
      </trkpt>
      <trkpt lat="47.88812" lon="2.05561">
        <ele>108</ele>
        <time>2017-10-15T07:50:37.000Z</time>
      </trkpt>
      <trkpt lat="47.88807" lon="2.05559">
        <ele>108</ele>
        <time>2017-10-15T07:50:38.000Z</time>
      </trkpt>
      <trkpt lat="47.88758" lon="2.05541">
        <ele>108</ele>
        <time>2017-10-15T07:50:47.000Z</time>
      </trkpt>
      <trkpt lat="47.88752" lon="2.0554">
        <ele>108</ele>
        <time>2017-10-15T07:50:48.000Z</time>
      </trkpt>
      <trkpt lat="47.88706" lon="2.05525">
        <ele>108</ele>
        <time>2017-10-15T07:50:56.000Z</time>
      </trkpt>
      <trkpt lat="47.887" lon="2.05523">
        <ele>108</ele>
        <time>2017-10-15T07:50:57.000Z</time>
      </trkpt>
      <trkpt lat="47.88651" lon="2.05514">
        <ele>108</ele>
        <time>2017-10-15T07:51:05.000Z</time>
      </trkpt>
      <trkpt lat="47.88645" lon="2.05513">
        <ele>108</ele>
        <time>2017-10-15T07:51:06.000Z</time>
      </trkpt>
      <trkpt lat="47.88601" lon="2.0551">
        <ele>106</ele>
        <time>2017-10-15T07:51:13.000Z</time>
      </trkpt>
      <trkpt lat="47.88595" lon="2.05513">
        <ele>106</ele>
        <time>2017-10-15T07:51:14.000Z</time>
      </trkpt>
      <trkpt lat="47.88547" lon="2.0553">
        <ele>103</ele>
        <time>2017-10-15T07:51:21.000Z</time>
      </trkpt>
      <trkpt lat="47.8854" lon="2.05531">
        <ele>103</ele>
        <time>2017-10-15T07:51:22.000Z</time>
      </trkpt>
      <trkpt lat="47.88532" lon="2.05531">
        <ele>103</ele>
        <time>2017-10-15T07:51:23.000Z</time>
      </trkpt>
      <trkpt lat="47.88494" lon="2.05519">
        <ele>102</ele>
        <time>2017-10-15T07:51:28.000Z</time>
      </trkpt>
      <trkpt lat="47.88487" lon="2.05515">
        <ele>101</ele>
        <time>2017-10-15T07:51:29.000Z</time>
      </trkpt>
      <trkpt lat="47.88441" lon="2.05491">
        <ele>100</ele>
        <time>2017-10-15T07:51:35.000Z</time>
      </trkpt>
      <trkpt lat="47.88434" lon="2.05487">
        <ele>99</ele>
        <time>2017-10-15T07:51:36.000Z</time>
      </trkpt>
      <trkpt lat="47.88389" lon="2.05458">
        <ele>98</ele>
        <time>2017-10-15T07:51:42.000Z</time>
      </trkpt>
      <trkpt lat="47.88382" lon="2.05452">
        <ele>98</ele>
        <time>2017-10-15T07:51:43.000Z</time>
      </trkpt>
      <trkpt lat="47.88344" lon="2.05406">
        <ele>96</ele>
        <time>2017-10-15T07:51:49.000Z</time>
      </trkpt>
      <trkpt lat="47.88338" lon="2.05399">
        <ele>96</ele>
        <time>2017-10-15T07:51:50.000Z</time>
      </trkpt>
      <trkpt lat="47.88301" lon="2.05355">
        <ele>95</ele>
        <time>2017-10-15T07:51:56.000Z</time>
      </trkpt>
      <trkpt lat="47.88295" lon="2.05348">
        <ele>95</ele>
        <time>2017-10-15T07:51:57.000Z</time>
      </trkpt>
      <trkpt lat="47.88257" lon="2.05309">
        <ele>94</ele>
        <time>2017-10-15T07:52:03.000Z</time>
      </trkpt>
      <trkpt lat="47.88251" lon="2.05303">
        <ele>94</ele>
        <time>2017-10-15T07:52:04.000Z</time>
      </trkpt>
      <trkpt lat="47.88213" lon="2.05268">
        <ele>94</ele>
        <time>2017-10-15T07:52:10.000Z</time>
      </trkpt>
      <trkpt lat="47.88207" lon="2.05262">
        <ele>94</ele>
        <time>2017-10-15T07:52:11.000Z</time>
      </trkpt>
      <trkpt lat="47.88163" lon="2.05225">
        <ele>94</ele>
        <time>2017-10-15T07:52:18.000Z</time>
      </trkpt>
      <trkpt lat="47.88157" lon="2.05221">
        <ele>94</ele>
        <time>2017-10-15T07:52:19.000Z</time>
      </trkpt>
      <trkpt lat="47.88116" lon="2.05188">
        <ele>95</ele>
        <time>2017-10-15T07:52:26.000Z</time>
      </trkpt>
      <trkpt lat="47.8811" lon="2.05183">
        <ele>95</ele>
        <time>2017-10-15T07:52:27.000Z</time>
      </trkpt>
      <trkpt lat="47.88069" lon="2.0515">
        <ele>95</ele>
        <time>2017-10-15T07:52:34.000Z</time>
      </trkpt>
      <trkpt lat="47.88063" lon="2.05145">
        <ele>95</ele>
        <time>2017-10-15T07:52:35.000Z</time>
      </trkpt>
      <trkpt lat="47.88024" lon="2.05111">
        <ele>95</ele>
        <time>2017-10-15T07:52:42.000Z</time>
      </trkpt>
      <trkpt lat="47.88019" lon="2.05106">
        <ele>95</ele>
        <time>2017-10-15T07:52:43.000Z</time>
      </trkpt>
      <trkpt lat="47.87995" lon="2.05092">
        <ele>95</ele>
        <time>2017-10-15T07:52:48.000Z</time>
      </trkpt>
      <trkpt lat="47.87991" lon="2.05102">
        <ele>94</ele>
        <time>2017-10-15T07:52:50.000Z</time>
      </trkpt>
      <trkpt lat="47.87989" lon="2.05115">
        <ele>94</ele>
        <time>2017-10-15T07:52:52.000Z</time>
      </trkpt>
      <trkpt lat="47.8798" lon="2.05188">
        <ele>95</ele>
        <time>2017-10-15T07:53:01.000Z</time>
      </trkpt>
      <trkpt lat="47.87979" lon="2.05197">
        <ele>95</ele>
        <time>2017-10-15T07:53:02.000Z</time>
      </trkpt>
      <trkpt lat="47.87971" lon="2.05268">
        <ele>95</ele>
        <time>2017-10-15T07:53:10.000Z</time>
      </trkpt>
      <trkpt lat="47.8797" lon="2.05276">
        <ele>95</ele>
        <time>2017-10-15T07:53:11.000Z</time>
      </trkpt>
      <trkpt lat="47.87962" lon="2.05345">
        <ele>95</ele>
        <time>2017-10-15T07:53:19.000Z</time>
      </trkpt>
      <trkpt lat="47.87961" lon="2.05354">
        <ele>95</ele>
        <time>2017-10-15T07:53:20.000Z</time>
      </trkpt>
      <trkpt lat="47.87952" lon="2.0542">
        <ele>95</ele>
        <time>2017-10-15T07:53:28.000Z</time>
      </trkpt>
      <trkpt lat="47.87952" lon="2.05429">
        <ele>95</ele>
        <time>2017-10-15T07:53:29.000Z</time>
      </trkpt>
      <trkpt lat="47.87944" lon="2.05499">
        <ele>95</ele>
        <time>2017-10-15T07:53:37.000Z</time>
      </trkpt>
      <trkpt lat="47.87943" lon="2.05507">
        <ele>95</ele>
        <time>2017-10-15T07:53:38.000Z</time>
      </trkpt>
      <trkpt lat="47.87934" lon="2.05577">
        <ele>95</ele>
        <time>2017-10-15T07:53:46.000Z</time>
      </trkpt>
      <trkpt lat="47.87933" lon="2.05586">
        <ele>95</ele>
        <time>2017-10-15T07:53:47.000Z</time>
      </trkpt>
      <trkpt lat="47.87926" lon="2.05655">
        <ele>96</ele>
        <time>2017-10-15T07:53:55.000Z</time>
      </trkpt>
      <trkpt lat="47.87925" lon="2.05663">
        <ele>96</ele>
        <time>2017-10-15T07:53:56.000Z</time>
      </trkpt>
      <trkpt lat="47.87916" lon="2.05735">
        <ele>96</ele>
        <time>2017-10-15T07:54:05.000Z</time>
      </trkpt>
      <trkpt lat="47.87915" lon="2.05743">
        <ele>96</ele>
        <time>2017-10-15T07:54:06.000Z</time>
      </trkpt>
      <trkpt lat="47.87906" lon="2.05817">
        <ele>96</ele>
        <time>2017-10-15T07:54:15.000Z</time>
      </trkpt>
      <trkpt lat="47.87905" lon="2.05825">
        <ele>96</ele>
        <time>2017-10-15T07:54:16.000Z</time>
      </trkpt>
      <trkpt lat="47.87897" lon="2.05868">
        <ele>96</ele>
        <time>2017-10-15T07:54:22.000Z</time>
      </trkpt>
      <trkpt lat="47.87891" lon="2.05873">
        <ele>96</ele>
        <time>2017-10-15T07:54:25.000Z</time>
      </trkpt>
      <trkpt lat="47.87885" lon="2.05872">
        <ele>95</ele>
        <time>2017-10-15T07:54:30.000Z</time>
      </trkpt>
      <trkpt lat="47.8789" lon="2.05875">
        <ele>95</ele>
        <time>2017-10-15T07:54:35.000Z</time>
      </trkpt>
      <trkpt lat="47.87905" lon="2.05876">
        <ele>95</ele>
        <time>2017-10-15T07:54:49.000Z</time>
      </trkpt>
      <trkpt lat="47.879" lon="2.05871">
        <ele>95</ele>
        <time>2017-10-15T07:54:54.000Z</time>
      </trkpt>
      <trkpt lat="47.87901" lon="2.05862">
        <ele>95</ele>
        <time>2017-10-15T07:54:58.000Z</time>
      </trkpt>
      <trkpt lat="47.87903" lon="2.05851">
        <ele>96</ele>
        <time>2017-10-15T07:55:02.000Z</time>
      </trkpt>
      <trkpt lat="47.87908" lon="2.05792">
        <ele>96</ele>
        <time>2017-10-15T07:55:22.000Z</time>
      </trkpt>
      <trkpt lat="47.8791" lon="2.05782">
        <ele>96</ele>
        <time>2017-10-15T07:55:26.000Z</time>
      </trkpt>
      <trkpt lat="47.87915" lon="2.05747">
        <ele>96</ele>
        <time>2017-10-15T07:55:35.000Z</time>
      </trkpt>
      <trkpt lat="47.87923" lon="2.0568">
        <ele>95</ele>
        <time>2017-10-15T07:55:50.000Z</time>
      </trkpt>
      <trkpt lat="47.87924" lon="2.05675">
        <ele>95</ele>
        <time>2017-10-15T07:55:51.000Z</time>
      </trkpt>
      <trkpt lat="47.87926" lon="2.05657">
        <ele>95</ele>
        <time>2017-10-15T07:55:55.000Z</time>
      </trkpt>
      <trkpt lat="47.87929" lon="2.05637">
        <ele>95</ele>
        <time>2017-10-15T07:56:05.000Z</time>
      </trkpt>
      <trkpt lat="47.87937" lon="2.05565">
        <ele>95</ele>
        <time>2017-10-15T07:56:20.000Z</time>
      </trkpt>
      <trkpt lat="47.87938" lon="2.05559">
        <ele>95</ele>
        <time>2017-10-15T07:56:21.000Z</time>
      </trkpt>
      <trkpt lat="47.87944" lon="2.05493">
        <ele>94</ele>
        <time>2017-10-15T07:56:31.000Z</time>
      </trkpt>
      <trkpt lat="47.87945" lon="2.05486">
        <ele>94</ele>
        <time>2017-10-15T07:56:32.000Z</time>
      </trkpt>
      <trkpt lat="47.87953" lon="2.05414">
        <ele>94</ele>
        <time>2017-10-15T07:56:43.000Z</time>
      </trkpt>
      <trkpt lat="47.87954" lon="2.05407">
        <ele>94</ele>
        <time>2017-10-15T07:56:44.000Z</time>
      </trkpt>
      <trkpt lat="47.87963" lon="2.05339">
        <ele>94</ele>
        <time>2017-10-15T07:56:54.000Z</time>
      </trkpt>
      <trkpt lat="47.87964" lon="2.05332">
        <ele>94</ele>
        <time>2017-10-15T07:56:55.000Z</time>
      </trkpt>
      <trkpt lat="47.87973" lon="2.05266">
        <ele>94</ele>
        <time>2017-10-15T07:57:08.000Z</time>
      </trkpt>
      <trkpt lat="47.87974" lon="2.0526">
        <ele>94</ele>
        <time>2017-10-15T07:57:09.000Z</time>
      </trkpt>
      <trkpt lat="47.87981" lon="2.05192">
        <ele>93</ele>
        <time>2017-10-15T07:57:20.000Z</time>
      </trkpt>
      <trkpt lat="47.87982" lon="2.05186">
        <ele>93</ele>
        <time>2017-10-15T07:57:21.000Z</time>
      </trkpt>
      <trkpt lat="47.8799" lon="2.05119">
        <ele>93</ele>
        <time>2017-10-15T07:57:32.000Z</time>
      </trkpt>
      <trkpt lat="47.87991" lon="2.05114">
        <ele>93</ele>
        <time>2017-10-15T07:57:33.000Z</time>
      </trkpt>
      <trkpt lat="47.87992" lon="2.05092">
        <ele>93</ele>
        <time>2017-10-15T07:57:37.000Z</time>
      </trkpt>
      <trkpt lat="47.87988" lon="2.05085">
        <ele>93</ele>
        <time>2017-10-15T07:57:39.000Z</time>
      </trkpt>
      <trkpt lat="47.87946" lon="2.05067">
        <ele>93</ele>
        <time>2017-10-15T07:57:48.000Z</time>
      </trkpt>
      <trkpt lat="47.87941" lon="2.05066">
        <ele>93</ele>
        <time>2017-10-15T07:57:49.000Z</time>
      </trkpt>
      <trkpt lat="47.87895" lon="2.05061">
        <ele>92</ele>
        <time>2017-10-15T07:57:57.000Z</time>
      </trkpt>
      <trkpt lat="47.87889" lon="2.05061">
        <ele>92</ele>
        <time>2017-10-15T07:57:58.000Z</time>
      </trkpt>
      <trkpt lat="47.87883" lon="2.05062">
        <ele>92</ele>
        <time>2017-10-15T07:57:59.000Z</time>
      </trkpt>
      <trkpt lat="47.87834" lon="2.05071">
        <ele>92</ele>
        <time>2017-10-15T07:58:07.000Z</time>
      </trkpt>
      <trkpt lat="47.87828" lon="2.05072">
        <ele>92</ele>
        <time>2017-10-15T07:58:08.000Z</time>
      </trkpt>
      <trkpt lat="47.8778" lon="2.0508">
        <ele>92</ele>
        <time>2017-10-15T07:58:16.000Z</time>
      </trkpt>
      <trkpt lat="47.87774" lon="2.05081">
        <ele>92</ele>
        <time>2017-10-15T07:58:17.000Z</time>
      </trkpt>
      <trkpt lat="47.87727" lon="2.05092">
        <ele>93</ele>
        <time>2017-10-15T07:58:25.000Z</time>
      </trkpt>
      <trkpt lat="47.87721" lon="2.05094">
        <ele>93</ele>
        <time>2017-10-15T07:58:26.000Z</time>
      </trkpt>
      <trkpt lat="47.87674" lon="2.05107">
        <ele>93</ele>
        <time>2017-10-15T07:58:34.000Z</time>
      </trkpt>
      <trkpt lat="47.87669" lon="2.05108">
        <ele>93</ele>
        <time>2017-10-15T07:58:35.000Z</time>
      </trkpt>
      <trkpt lat="47.87633" lon="2.05108">
        <ele>93</ele>
        <time>2017-10-15T07:58:41.000Z</time>
      </trkpt>
      <trkpt lat="47.87587" lon="2.05092">
        <ele>94</ele>
        <time>2017-10-15T07:58:49.000Z</time>
      </trkpt>
      <trkpt lat="47.87582" lon="2.0509">
        <ele>94</ele>
        <time>2017-10-15T07:58:50.000Z</time>
      </trkpt>
      <trkpt lat="47.87537" lon="2.05073">
        <ele>95</ele>
        <time>2017-10-15T07:58:58.000Z</time>
      </trkpt>
      <trkpt lat="47.87532" lon="2.0507">
        <ele>95</ele>
        <time>2017-10-15T07:58:59.000Z</time>
      </trkpt>
      <trkpt lat="47.87503" lon="2.05044">
        <ele>96</ele>
        <time>2017-10-15T07:59:05.000Z</time>
      </trkpt>
      <trkpt lat="47.8747" lon="2.04988">
        <ele>96</ele>
        <time>2017-10-15T07:59:13.000Z</time>
      </trkpt>
      <trkpt lat="47.87466" lon="2.04981">
        <ele>96</ele>
        <time>2017-10-15T07:59:14.000Z</time>
      </trkpt>
      <trkpt lat="47.87437" lon="2.04929">
        <ele>97</ele>
        <time>2017-10-15T07:59:21.000Z</time>
      </trkpt>
      <trkpt lat="47.87432" lon="2.04922">
        <ele>97</ele>
        <time>2017-10-15T07:59:22.000Z</time>
      </trkpt>
      <trkpt lat="47.87393" lon="2.04874">
        <ele>97</ele>
        <time>2017-10-15T07:59:30.000Z</time>
      </trkpt>
      <trkpt lat="47.87388" lon="2.04869">
        <ele>97</ele>
        <time>2017-10-15T07:59:31.000Z</time>
      </trkpt>
      <trkpt lat="47.87377" lon="2.04861">
        <ele>97</ele>
        <time>2017-10-15T07:59:33.000Z</time>
      </trkpt>
      <trkpt lat="47.87326" lon="2.04855">
        <ele>97</ele>
        <time>2017-10-15T07:59:41.000Z</time>
      </trkpt>
      <trkpt lat="47.8732" lon="2.04855">
        <ele>97</ele>
        <time>2017-10-15T07:59:42.000Z</time>
      </trkpt>
      <trkpt lat="47.87313" lon="2.04855">
        <ele>97</ele>
        <time>2017-10-15T07:59:43.000Z</time>
      </trkpt>
      <trkpt lat="47.87283" lon="2.0487">
        <ele>97</ele>
        <time>2017-10-15T07:59:48.000Z</time>
      </trkpt>
      <trkpt lat="47.87259" lon="2.04892">
        <ele>97</ele>
        <time>2017-10-15T07:59:53.000Z</time>
      </trkpt>
      <trkpt lat="47.87256" lon="2.04919">
        <ele>97</ele>
        <time>2017-10-15T07:59:56.000Z</time>
      </trkpt>
      <trkpt lat="47.87252" lon="2.04989">
        <ele>97</ele>
        <time>2017-10-15T08:00:03.000Z</time>
      </trkpt>
      <trkpt lat="47.87251" lon="2.04999">
        <ele>97</ele>
        <time>2017-10-15T08:00:04.000Z</time>
      </trkpt>
      <trkpt lat="47.87244" lon="2.0507">
        <ele>97</ele>
        <time>2017-10-15T08:00:11.000Z</time>
      </trkpt>
      <trkpt lat="47.87243" lon="2.0508">
        <ele>97</ele>
        <time>2017-10-15T08:00:12.000Z</time>
      </trkpt>
      <trkpt lat="47.87236" lon="2.0515">
        <ele>97</ele>
        <time>2017-10-15T08:00:19.000Z</time>
      </trkpt>
      <trkpt lat="47.87235" lon="2.05159">
        <ele>98</ele>
        <time>2017-10-15T08:00:20.000Z</time>
      </trkpt>
      <trkpt lat="47.87228" lon="2.05227">
        <ele>98</ele>
        <time>2017-10-15T08:00:27.000Z</time>
      </trkpt>
      <trkpt lat="47.87226" lon="2.05236">
        <ele>98</ele>
        <time>2017-10-15T08:00:28.000Z</time>
      </trkpt>
      <trkpt lat="47.8722" lon="2.05304">
        <ele>98</ele>
        <time>2017-10-15T08:00:35.000Z</time>
      </trkpt>
      <trkpt lat="47.87219" lon="2.05314">
        <ele>98</ele>
        <time>2017-10-15T08:00:36.000Z</time>
      </trkpt>
      <trkpt lat="47.87212" lon="2.05382">
        <ele>98</ele>
        <time>2017-10-15T08:00:43.000Z</time>
      </trkpt>
      <trkpt lat="47.87211" lon="2.05391">
        <ele>98</ele>
        <time>2017-10-15T08:00:44.000Z</time>
      </trkpt>
      <trkpt lat="47.87204" lon="2.05458">
        <ele>97</ele>
        <time>2017-10-15T08:00:51.000Z</time>
      </trkpt>
      <trkpt lat="47.87203" lon="2.05468">
        <ele>97</ele>
        <time>2017-10-15T08:00:52.000Z</time>
      </trkpt>
      <trkpt lat="47.87196" lon="2.05536">
        <ele>97</ele>
        <time>2017-10-15T08:00:59.000Z</time>
      </trkpt>
      <trkpt lat="47.87195" lon="2.05546">
        <ele>97</ele>
        <time>2017-10-15T08:01:00.000Z</time>
      </trkpt>
      <trkpt lat="47.87188" lon="2.05613">
        <ele>97</ele>
        <time>2017-10-15T08:01:10.000Z</time>
      </trkpt>
      <trkpt lat="47.87187" lon="2.05619">
        <ele>97</ele>
        <time>2017-10-15T08:01:11.000Z</time>
      </trkpt>
      <trkpt lat="47.87174" lon="2.05691">
        <ele>96</ele>
        <time>2017-10-15T08:01:20.000Z</time>
      </trkpt>
      <trkpt lat="47.87172" lon="2.05699">
        <ele>96</ele>
        <time>2017-10-15T08:01:21.000Z</time>
      </trkpt>
      <trkpt lat="47.8716" lon="2.05768">
        <ele>96</ele>
        <time>2017-10-15T08:01:29.000Z</time>
      </trkpt>
      <trkpt lat="47.87158" lon="2.05777">
        <ele>96</ele>
        <time>2017-10-15T08:01:30.000Z</time>
      </trkpt>
      <trkpt lat="47.87144" lon="2.05847">
        <ele>96</ele>
        <time>2017-10-15T08:01:38.000Z</time>
      </trkpt>
      <trkpt lat="47.87143" lon="2.05856">
        <ele>96</ele>
        <time>2017-10-15T08:01:39.000Z</time>
      </trkpt>
      <trkpt lat="47.8714" lon="2.05883">
        <ele>96</ele>
        <time>2017-10-15T08:01:42.000Z</time>
      </trkpt>
      <trkpt lat="47.87138" lon="2.05957">
        <ele>96</ele>
        <time>2017-10-15T08:01:51.000Z</time>
      </trkpt>
      <trkpt lat="47.87138" lon="2.05965">
        <ele>96</ele>
        <time>2017-10-15T08:01:52.000Z</time>
      </trkpt>
      <trkpt lat="47.87133" lon="2.0604">
        <ele>96</ele>
        <time>2017-10-15T08:02:01.000Z</time>
      </trkpt>
      <trkpt lat="47.87133" lon="2.06049">
        <ele>96</ele>
        <time>2017-10-15T08:02:02.000Z</time>
      </trkpt>
      <trkpt lat="47.8713" lon="2.06124">
        <ele>95</ele>
        <time>2017-10-15T08:02:11.000Z</time>
      </trkpt>
      <trkpt lat="47.8713" lon="2.06134">
        <ele>94</ele>
        <time>2017-10-15T08:02:12.000Z</time>
      </trkpt>
      <trkpt lat="47.87126" lon="2.06205">
        <ele>95</ele>
        <time>2017-10-15T08:02:20.000Z</time>
      </trkpt>
      <trkpt lat="47.87126" lon="2.06213">
        <ele>95</ele>
        <time>2017-10-15T08:02:21.000Z</time>
      </trkpt>
      <trkpt lat="47.87122" lon="2.06285">
        <ele>96</ele>
        <time>2017-10-15T08:02:30.000Z</time>
      </trkpt>
      <trkpt lat="47.87122" lon="2.06293">
        <ele>96</ele>
        <time>2017-10-15T08:02:31.000Z</time>
      </trkpt>
      <trkpt lat="47.87119" lon="2.06362">
        <ele>97</ele>
        <time>2017-10-15T08:02:40.000Z</time>
      </trkpt>
      <trkpt lat="47.87119" lon="2.0637">
        <ele>97</ele>
        <time>2017-10-15T08:02:41.000Z</time>
      </trkpt>
      <trkpt lat="47.87118" lon="2.06441">
        <ele>96</ele>
        <time>2017-10-15T08:02:50.000Z</time>
      </trkpt>
      <trkpt lat="47.87117" lon="2.0645">
        <ele>96</ele>
        <time>2017-10-15T08:02:51.000Z</time>
      </trkpt>
      <trkpt lat="47.87112" lon="2.06498">
        <ele>97</ele>
        <time>2017-10-15T08:02:57.000Z</time>
      </trkpt>
      <trkpt lat="47.87103" lon="2.06565">
        <ele>97</ele>
        <time>2017-10-15T08:03:05.000Z</time>
      </trkpt>
      <trkpt lat="47.87103" lon="2.06573">
        <ele>97</ele>
        <time>2017-10-15T08:03:06.000Z</time>
      </trkpt>
      <trkpt lat="47.87103" lon="2.0658">
        <ele>98</ele>
        <time>2017-10-15T08:03:07.000Z</time>
      </trkpt>
      <trkpt lat="47.87101" lon="2.06608">
        <ele>101</ele>
        <time>2017-10-15T08:03:12.000Z</time>
      </trkpt>
      <trkpt lat="47.87101" lon="2.06618">
        <ele>101</ele>
        <time>2017-10-15T08:03:14.000Z</time>
      </trkpt>
      <trkpt lat="47.87107" lon="2.06634">
        <ele>102</ele>
        <time>2017-10-15T08:03:17.000Z</time>
      </trkpt>
      <trkpt lat="47.87129" lon="2.067">
        <ele>101</ele>
        <time>2017-10-15T08:03:27.000Z</time>
      </trkpt>
      <trkpt lat="47.87131" lon="2.06707">
        <ele>101</ele>
        <time>2017-10-15T08:03:28.000Z</time>
      </trkpt>
      <trkpt lat="47.87135" lon="2.06723">
        <ele>101</ele>
        <time>2017-10-15T08:03:30.000Z</time>
      </trkpt>
      <trkpt lat="47.8715" lon="2.06786">
        <ele>100</ele>
        <time>2017-10-15T08:03:38.000Z</time>
      </trkpt>
      <trkpt lat="47.87152" lon="2.06794">
        <ele>100</ele>
        <time>2017-10-15T08:03:39.000Z</time>
      </trkpt>
      <trkpt lat="47.87168" lon="2.06862">
        <ele>99</ele>
        <time>2017-10-15T08:03:47.000Z</time>
      </trkpt>
      <trkpt lat="47.8717" lon="2.0687">
        <ele>99</ele>
        <time>2017-10-15T08:03:48.000Z</time>
      </trkpt>
      <trkpt lat="47.87186" lon="2.0694">
        <ele>99</ele>
        <time>2017-10-15T08:03:56.000Z</time>
      </trkpt>
      <trkpt lat="47.87188" lon="2.06949">
        <ele>99</ele>
        <time>2017-10-15T08:03:57.000Z</time>
      </trkpt>
      <trkpt lat="47.87202" lon="2.07014">
        <ele>99</ele>
        <time>2017-10-15T08:04:04.000Z</time>
      </trkpt>
      <trkpt lat="47.87204" lon="2.07023">
        <ele>98</ele>
        <time>2017-10-15T08:04:05.000Z</time>
      </trkpt>
      <trkpt lat="47.87218" lon="2.07089">
        <ele>98</ele>
        <time>2017-10-15T08:04:12.000Z</time>
      </trkpt>
      <trkpt lat="47.8722" lon="2.07098">
        <ele>98</ele>
        <time>2017-10-15T08:04:13.000Z</time>
      </trkpt>
      <trkpt lat="47.87233" lon="2.07164">
        <ele>98</ele>
        <time>2017-10-15T08:04:20.000Z</time>
      </trkpt>
      <trkpt lat="47.87234" lon="2.07173">
        <ele>98</ele>
        <time>2017-10-15T08:04:21.000Z</time>
      </trkpt>
      <trkpt lat="47.87248" lon="2.07241">
        <ele>98</ele>
        <time>2017-10-15T08:04:28.000Z</time>
      </trkpt>
      <trkpt lat="47.8725" lon="2.0725">
        <ele>98</ele>
        <time>2017-10-15T08:04:29.000Z</time>
      </trkpt>
      <trkpt lat="47.87262" lon="2.07317">
        <ele>98</ele>
        <time>2017-10-15T08:04:36.000Z</time>
      </trkpt>
      <trkpt lat="47.87264" lon="2.07327">
        <ele>98</ele>
        <time>2017-10-15T08:04:37.000Z</time>
      </trkpt>
      <trkpt lat="47.87274" lon="2.07392">
        <ele>98</ele>
        <time>2017-10-15T08:04:44.000Z</time>
      </trkpt>
      <trkpt lat="47.87276" lon="2.07401">
        <ele>98</ele>
        <time>2017-10-15T08:04:45.000Z</time>
      </trkpt>
      <trkpt lat="47.87282" lon="2.07447">
        <ele>98</ele>
        <time>2017-10-15T08:04:50.000Z</time>
      </trkpt>
      <trkpt lat="47.87288" lon="2.0752">
        <ele>98</ele>
        <time>2017-10-15T08:04:58.000Z</time>
      </trkpt>
      <trkpt lat="47.87288" lon="2.07529">
        <ele>98</ele>
        <time>2017-10-15T08:04:59.000Z</time>
      </trkpt>
      <trkpt lat="47.87291" lon="2.07587">
        <ele>98</ele>
        <time>2017-10-15T08:05:06.000Z</time>
      </trkpt>
      <trkpt lat="47.87292" lon="2.07603">
        <ele>98</ele>
        <time>2017-10-15T08:05:08.000Z</time>
      </trkpt>
      <trkpt lat="47.8731" lon="2.07658">
        <ele>96</ele>
        <time>2017-10-15T08:05:14.000Z</time>
      </trkpt>
      <trkpt lat="47.87314" lon="2.07667">
        <ele>96</ele>
        <time>2017-10-15T08:05:15.000Z</time>
      </trkpt>
      <trkpt lat="47.87323" lon="2.07706">
        <ele>96</ele>
        <time>2017-10-15T08:05:19.000Z</time>
      </trkpt>
      <trkpt lat="47.87331" lon="2.07775">
        <ele>95</ele>
        <time>2017-10-15T08:05:26.000Z</time>
      </trkpt>
      <trkpt lat="47.87331" lon="2.07785">
        <ele>95</ele>
        <time>2017-10-15T08:05:27.000Z</time>
      </trkpt>
      <trkpt lat="47.87332" lon="2.07794">
        <ele>95</ele>
        <time>2017-10-15T08:05:28.000Z</time>
      </trkpt>
      <trkpt lat="47.87335" lon="2.07871">
        <ele>95</ele>
        <time>2017-10-15T08:05:36.000Z</time>
      </trkpt>
      <trkpt lat="47.87336" lon="2.0788">
        <ele>94</ele>
        <time>2017-10-15T08:05:37.000Z</time>
      </trkpt>
      <trkpt lat="47.87336" lon="2.07918">
        <ele>94</ele>
        <time>2017-10-15T08:05:42.000Z</time>
      </trkpt>
      <trkpt lat="47.87325" lon="2.07934">
        <ele>94</ele>
        <time>2017-10-15T08:05:45.000Z</time>
      </trkpt>
      <trkpt lat="47.87308" lon="2.07961">
        <ele>92</ele>
        <time>2017-10-15T08:05:49.000Z</time>
      </trkpt>
      <trkpt lat="47.8728" lon="2.08024">
        <ele>89</ele>
        <time>2017-10-15T08:05:57.000Z</time>
      </trkpt>
      <trkpt lat="47.87278" lon="2.08031">
        <ele>89</ele>
        <time>2017-10-15T08:05:58.000Z</time>
      </trkpt>
      <trkpt lat="47.87275" lon="2.08046">
        <ele>88</ele>
        <time>2017-10-15T08:06:00.000Z</time>
      </trkpt>
      <trkpt lat="47.8727" lon="2.0812">
        <ele>88</ele>
        <time>2017-10-15T08:06:09.000Z</time>
      </trkpt>
      <trkpt lat="47.87269" lon="2.08128">
        <ele>88</ele>
        <time>2017-10-15T08:06:10.000Z</time>
      </trkpt>
      <trkpt lat="47.87271" lon="2.08197">
        <ele>88</ele>
        <time>2017-10-15T08:06:18.000Z</time>
      </trkpt>
      <trkpt lat="47.87273" lon="2.08205">
        <ele>88</ele>
        <time>2017-10-15T08:06:19.000Z</time>
      </trkpt>
      <trkpt lat="47.87278" lon="2.08276">
        <ele>89</ele>
        <time>2017-10-15T08:06:27.000Z</time>
      </trkpt>
      <trkpt lat="47.87278" lon="2.08285">
        <ele>89</ele>
        <time>2017-10-15T08:06:28.000Z</time>
      </trkpt>
      <trkpt lat="47.87283" lon="2.08358">
        <ele>90</ele>
        <time>2017-10-15T08:06:36.000Z</time>
      </trkpt>
      <trkpt lat="47.87283" lon="2.08367">
        <ele>90</ele>
        <time>2017-10-15T08:06:37.000Z</time>
      </trkpt>
      <trkpt lat="47.87283" lon="2.08411">
        <ele>90</ele>
        <time>2017-10-15T08:06:42.000Z</time>
      </trkpt>
      <trkpt lat="47.87277" lon="2.08444">
        <ele>91</ele>
        <time>2017-10-15T08:06:46.000Z</time>
      </trkpt>
      <trkpt lat="47.87283" lon="2.08512">
        <ele>92</ele>
        <time>2017-10-15T08:06:54.000Z</time>
      </trkpt>
      <trkpt lat="47.87283" lon="2.08521">
        <ele>92</ele>
        <time>2017-10-15T08:06:55.000Z</time>
      </trkpt>
      <trkpt lat="47.87285" lon="2.08588">
        <ele>91</ele>
        <time>2017-10-15T08:07:03.000Z</time>
      </trkpt>
      <trkpt lat="47.87286" lon="2.08597">
        <ele>91</ele>
        <time>2017-10-15T08:07:04.000Z</time>
      </trkpt>
      <trkpt lat="47.87291" lon="2.08664">
        <ele>91</ele>
        <time>2017-10-15T08:07:12.000Z</time>
      </trkpt>
      <trkpt lat="47.87292" lon="2.08673">
        <ele>91</ele>
        <time>2017-10-15T08:07:13.000Z</time>
      </trkpt>
      <trkpt lat="47.873" lon="2.08741">
        <ele>91</ele>
        <time>2017-10-15T08:07:21.000Z</time>
      </trkpt>
      <trkpt lat="47.87301" lon="2.0875">
        <ele>91</ele>
        <time>2017-10-15T08:07:22.000Z</time>
      </trkpt>
      <trkpt lat="47.87305" lon="2.08771">
        <ele>90</ele>
        <time>2017-10-15T08:07:25.000Z</time>
      </trkpt>
      <trkpt lat="47.87324" lon="2.08802">
        <ele>91</ele>
        <time>2017-10-15T08:07:31.000Z</time>
      </trkpt>
      <trkpt lat="47.87325" lon="2.08816">
        <ele>91</ele>
        <time>2017-10-15T08:07:33.000Z</time>
      </trkpt>
      <trkpt lat="47.87322" lon="2.08886">
        <ele>92</ele>
        <time>2017-10-15T08:07:42.000Z</time>
      </trkpt>
      <trkpt lat="47.87322" lon="2.08894">
        <ele>93</ele>
        <time>2017-10-15T08:07:43.000Z</time>
      </trkpt>
      <trkpt lat="47.87321" lon="2.08967">
        <ele>94</ele>
        <time>2017-10-15T08:07:52.000Z</time>
      </trkpt>
      <trkpt lat="47.87322" lon="2.08976">
        <ele>94</ele>
        <time>2017-10-15T08:07:53.000Z</time>
      </trkpt>
      <trkpt lat="47.87323" lon="2.08984">
        <ele>95</ele>
        <time>2017-10-15T08:07:54.000Z</time>
      </trkpt>
      <trkpt lat="47.87327" lon="2.09049">
        <ele>97</ele>
        <time>2017-10-15T08:08:02.000Z</time>
      </trkpt>
      <trkpt lat="47.87329" lon="2.09056">
        <ele>97</ele>
        <time>2017-10-15T08:08:03.000Z</time>
      </trkpt>
      <trkpt lat="47.87332" lon="2.09099">
        <ele>97</ele>
        <time>2017-10-15T08:08:09.000Z</time>
      </trkpt>
      <trkpt lat="47.87331" lon="2.09156">
        <ele>97</ele>
        <time>2017-10-15T08:08:16.000Z</time>
      </trkpt>
      <trkpt lat="47.87335" lon="2.09226">
        <ele>96</ele>
        <time>2017-10-15T08:08:25.000Z</time>
      </trkpt>
      <trkpt lat="47.87336" lon="2.09234">
        <ele>95</ele>
        <time>2017-10-15T08:08:26.000Z</time>
      </trkpt>
      <trkpt lat="47.87339" lon="2.09249">
        <ele>95</ele>
        <time>2017-10-15T08:08:28.000Z</time>
      </trkpt>
      <trkpt lat="47.87337" lon="2.09299">
        <ele>95</ele>
        <time>2017-10-15T08:08:34.000Z</time>
      </trkpt>
      <trkpt lat="47.87335" lon="2.09325">
        <ele>95</ele>
        <time>2017-10-15T08:08:37.000Z</time>
      </trkpt>
      <trkpt lat="47.8734" lon="2.0935">
        <ele>95</ele>
        <time>2017-10-15T08:08:40.000Z</time>
      </trkpt>
      <trkpt lat="47.87344" lon="2.09376">
        <ele>95</ele>
        <time>2017-10-15T08:08:43.000Z</time>
      </trkpt>
      <trkpt lat="47.87347" lon="2.09446">
        <ele>95</ele>
        <time>2017-10-15T08:08:51.000Z</time>
      </trkpt>
      <trkpt lat="47.87349" lon="2.09454">
        <ele>95</ele>
        <time>2017-10-15T08:08:52.000Z</time>
      </trkpt>
      <trkpt lat="47.87354" lon="2.09505">
        <ele>95</ele>
        <time>2017-10-15T08:08:58.000Z</time>
      </trkpt>
      <trkpt lat="47.87353" lon="2.09578">
        <ele>94</ele>
        <time>2017-10-15T08:09:06.000Z</time>
      </trkpt>
      <trkpt lat="47.87352" lon="2.09588">
        <ele>94</ele>
        <time>2017-10-15T08:09:07.000Z</time>
      </trkpt>
      <trkpt lat="47.8735" lon="2.09618">
        <ele>94</ele>
        <time>2017-10-15T08:09:11.000Z</time>
      </trkpt>
      <trkpt lat="47.87357" lon="2.09686">
        <ele>93</ele>
        <time>2017-10-15T08:09:21.000Z</time>
      </trkpt>
      <trkpt lat="47.87358" lon="2.09695">
        <ele>93</ele>
        <time>2017-10-15T08:09:22.000Z</time>
      </trkpt>
      <trkpt lat="47.87362" lon="2.09765">
        <ele>94</ele>
        <time>2017-10-15T08:09:31.000Z</time>
      </trkpt>
      <trkpt lat="47.87364" lon="2.09773">
        <ele>95</ele>
        <time>2017-10-15T08:09:32.000Z</time>
      </trkpt>
      <trkpt lat="47.87366" lon="2.09778">
        <ele>95</ele>
        <time>2017-10-15T08:09:33.000Z</time>
      </trkpt>
      <trkpt lat="47.87369" lon="2.09793">
        <ele>97</ele>
        <time>2017-10-15T08:09:37.000Z</time>
      </trkpt>
      <trkpt lat="47.8736" lon="2.09863">
        <ele>104</ele>
        <time>2017-10-15T08:09:46.000Z</time>
      </trkpt>
      <trkpt lat="47.8736" lon="2.09872">
        <ele>105</ele>
        <time>2017-10-15T08:09:47.000Z</time>
      </trkpt>
      <trkpt lat="47.8736" lon="2.0988">
        <ele>105</ele>
        <time>2017-10-15T08:09:48.000Z</time>
      </trkpt>
      <trkpt lat="47.87363" lon="2.09921">
        <ele>108</ele>
        <time>2017-10-15T08:09:53.000Z</time>
      </trkpt>
      <trkpt lat="47.87364" lon="2.09945">
        <ele>108</ele>
        <time>2017-10-15T08:09:56.000Z</time>
      </trkpt>
      <trkpt lat="47.87362" lon="2.09958">
        <ele>108</ele>
        <time>2017-10-15T08:09:58.000Z</time>
      </trkpt>
      <trkpt lat="47.8736" lon="2.09979">
        <ele>108</ele>
        <time>2017-10-15T08:10:01.000Z</time>
      </trkpt>
      <trkpt lat="47.87362" lon="2.09992">
        <ele>108</ele>
        <time>2017-10-15T08:10:03.000Z</time>
      </trkpt>
      <trkpt lat="47.87365" lon="2.10011">
        <ele>108</ele>
        <time>2017-10-15T08:10:06.000Z</time>
      </trkpt>
      <trkpt lat="47.8736" lon="2.10083">
        <ele>107</ele>
        <time>2017-10-15T08:10:15.000Z</time>
      </trkpt>
      <trkpt lat="47.8736" lon="2.10091">
        <ele>106</ele>
        <time>2017-10-15T08:10:16.000Z</time>
      </trkpt>
      <trkpt lat="47.87361" lon="2.10115">
        <ele>105</ele>
        <time>2017-10-15T08:10:19.000Z</time>
      </trkpt>
      <trkpt lat="47.87367" lon="2.10144">
        <ele>104</ele>
        <time>2017-10-15T08:10:23.000Z</time>
      </trkpt>
      <trkpt lat="47.8737" lon="2.10174">
        <ele>103</ele>
        <time>2017-10-15T08:10:27.000Z</time>
      </trkpt>
      <trkpt lat="47.87365" lon="2.10224">
        <ele>104</ele>
        <time>2017-10-15T08:10:33.000Z</time>
      </trkpt>
      <trkpt lat="47.87363" lon="2.10255">
        <ele>104</ele>
        <time>2017-10-15T08:10:37.000Z</time>
      </trkpt>
      <trkpt lat="47.87371" lon="2.10279">
        <ele>104</ele>
        <time>2017-10-15T08:10:41.000Z</time>
      </trkpt>
      <trkpt lat="47.87372" lon="2.10293">
        <ele>104</ele>
        <time>2017-10-15T08:10:43.000Z</time>
      </trkpt>
      <trkpt lat="47.87371" lon="2.1032">
        <ele>104</ele>
        <time>2017-10-15T08:10:47.000Z</time>
      </trkpt>
      <trkpt lat="47.87369" lon="2.10334">
        <ele>103</ele>
        <time>2017-10-15T08:10:49.000Z</time>
      </trkpt>
      <trkpt lat="47.87368" lon="2.10385">
        <ele>102</ele>
        <time>2017-10-15T08:10:56.000Z</time>
      </trkpt>
      <trkpt lat="47.87368" lon="2.10408">
        <ele>102</ele>
        <time>2017-10-15T08:10:59.000Z</time>
      </trkpt>
      <trkpt lat="47.87371" lon="2.10439">
        <ele>101</ele>
        <time>2017-10-15T08:11:03.000Z</time>
      </trkpt>
      <trkpt lat="47.87376" lon="2.10509">
        <ele>99</ele>
        <time>2017-10-15T08:11:13.000Z</time>
      </trkpt>
      <trkpt lat="47.87376" lon="2.10517">
        <ele>99</ele>
        <time>2017-10-15T08:11:14.000Z</time>
      </trkpt>
      <trkpt lat="47.87375" lon="2.10541">
        <ele>99</ele>
        <time>2017-10-15T08:11:17.000Z</time>
      </trkpt>
      <trkpt lat="47.87365" lon="2.10606">
        <ele>100</ele>
        <time>2017-10-15T08:11:25.000Z</time>
      </trkpt>
      <trkpt lat="47.87363" lon="2.10615">
        <ele>101</ele>
        <time>2017-10-15T08:11:26.000Z</time>
      </trkpt>
      <trkpt lat="47.87358" lon="2.1066">
        <ele>101</ele>
        <time>2017-10-15T08:11:31.000Z</time>
      </trkpt>
      <trkpt lat="47.87356" lon="2.10709">
        <ele>101</ele>
        <time>2017-10-15T08:11:37.000Z</time>
      </trkpt>
      <trkpt lat="47.87363" lon="2.10736">
        <ele>102</ele>
        <time>2017-10-15T08:11:42.000Z</time>
      </trkpt>
      <trkpt lat="47.87369" lon="2.1074">
        <ele>104</ele>
        <time>2017-10-15T08:11:45.000Z</time>
      </trkpt>
      <trkpt lat="47.87384" lon="2.10746">
        <ele>107</ele>
        <time>2017-10-15T08:11:52.000Z</time>
      </trkpt>
      <trkpt lat="47.87402" lon="2.10762">
        <ele>109</ele>
        <time>2017-10-15T08:12:00.000Z</time>
      </trkpt>
      <trkpt lat="47.87412" lon="2.10776">
        <ele>109</ele>
        <time>2017-10-15T08:12:05.000Z</time>
      </trkpt>
      <trkpt lat="47.87437" lon="2.10794">
        <ele>110</ele>
        <time>2017-10-15T08:12:13.000Z</time>
      </trkpt>
      <trkpt lat="47.87481" lon="2.10824">
        <ele>115</ele>
        <time>2017-10-15T08:12:26.000Z</time>
      </trkpt>
      <trkpt lat="47.87484" lon="2.10826">
        <ele>115</ele>
        <time>2017-10-15T08:12:27.000Z</time>
      </trkpt>
      <trkpt lat="47.87526" lon="2.10855">
        <ele>116</ele>
        <time>2017-10-15T08:12:38.000Z</time>
      </trkpt>
      <trkpt lat="47.87529" lon="2.10858">
        <ele>116</ele>
        <time>2017-10-15T08:12:39.000Z</time>
      </trkpt>
      <trkpt lat="47.8757" lon="2.10895">
        <ele>116</ele>
        <time>2017-10-15T08:12:49.000Z</time>
      </trkpt>
      <trkpt lat="47.87575" lon="2.10898">
        <ele>116</ele>
        <time>2017-10-15T08:12:50.000Z</time>
      </trkpt>
      <trkpt lat="47.876" lon="2.10916">
        <ele>116</ele>
        <time>2017-10-15T08:12:56.000Z</time>
      </trkpt>
      <trkpt lat="47.87631" lon="2.10949">
        <ele>115</ele>
        <time>2017-10-15T08:13:05.000Z</time>
      </trkpt>
      <trkpt lat="47.87641" lon="2.10962">
        <ele>115</ele>
        <time>2017-10-15T08:13:11.000Z</time>
      </trkpt>
      <trkpt lat="47.87626" lon="2.11029">
        <ele>114</ele>
        <time>2017-10-15T08:13:22.000Z</time>
      </trkpt>
      <trkpt lat="47.87625" lon="2.11036">
        <ele>114</ele>
        <time>2017-10-15T08:13:23.000Z</time>
      </trkpt>
      <trkpt lat="47.87612" lon="2.11105">
        <ele>114</ele>
        <time>2017-10-15T08:13:32.000Z</time>
      </trkpt>
      <trkpt lat="47.87611" lon="2.11113">
        <ele>114</ele>
        <time>2017-10-15T08:13:33.000Z</time>
      </trkpt>
      <trkpt lat="47.876" lon="2.11173">
        <ele>114</ele>
        <time>2017-10-15T08:13:41.000Z</time>
      </trkpt>
      <trkpt lat="47.87595" lon="2.11177">
        <ele>114</ele>
        <time>2017-10-15T08:13:42.000Z</time>
      </trkpt>
      <trkpt lat="47.87591" lon="2.11177">
        <ele>114</ele>
        <time>2017-10-15T08:13:43.000Z</time>
      </trkpt>
      <trkpt lat="47.87543" lon="2.11163">
        <ele>114</ele>
        <time>2017-10-15T08:13:58.000Z</time>
      </trkpt>
      <trkpt lat="47.87538" lon="2.11162">
        <ele>113</ele>
        <time>2017-10-15T08:13:59.000Z</time>
      </trkpt>
      <trkpt lat="47.87493" lon="2.11151">
        <ele>112</ele>
        <time>2017-10-15T08:14:08.000Z</time>
      </trkpt>
      <trkpt lat="47.87488" lon="2.11149">
        <ele>112</ele>
        <time>2017-10-15T08:14:09.000Z</time>
      </trkpt>
      <trkpt lat="47.87443" lon="2.1113">
        <ele>112</ele>
        <time>2017-10-15T08:14:18.000Z</time>
      </trkpt>
      <trkpt lat="47.8744" lon="2.11127">
        <ele>112</ele>
        <time>2017-10-15T08:14:19.000Z</time>
      </trkpt>
      <trkpt lat="47.87431" lon="2.11123">
        <ele>112</ele>
        <time>2017-10-15T08:14:23.000Z</time>
      </trkpt>
      <trkpt lat="47.87432" lon="2.1113">
        <ele>111</ele>
        <time>2017-10-15T08:14:27.000Z</time>
      </trkpt>
      <trkpt lat="47.87439" lon="2.11129">
        <ele>112</ele>
        <time>2017-10-15T08:14:30.000Z</time>
      </trkpt>
      <trkpt lat="47.87486" lon="2.11148">
        <ele>113</ele>
        <time>2017-10-15T08:14:41.000Z</time>
      </trkpt>
      <trkpt lat="47.87491" lon="2.11149">
        <ele>114</ele>
        <time>2017-10-15T08:14:42.000Z</time>
      </trkpt>
      <trkpt lat="47.87535" lon="2.11162">
        <ele>115</ele>
        <time>2017-10-15T08:14:51.000Z</time>
      </trkpt>
      <trkpt lat="47.8754" lon="2.11163">
        <ele>115</ele>
        <time>2017-10-15T08:14:52.000Z</time>
      </trkpt>
      <trkpt lat="47.87582" lon="2.11181">
        <ele>114</ele>
        <time>2017-10-15T08:15:03.000Z</time>
      </trkpt>
      <trkpt lat="47.8758" lon="2.11191">
        <ele>114</ele>
        <time>2017-10-15T08:15:05.000Z</time>
      </trkpt>
      <trkpt lat="47.87569" lon="2.11243">
        <ele>114</ele>
        <time>2017-10-15T08:15:14.000Z</time>
      </trkpt>
      <trkpt lat="47.87537" lon="2.11297">
        <ele>113</ele>
        <time>2017-10-15T08:15:24.000Z</time>
      </trkpt>
      <trkpt lat="47.87534" lon="2.11303">
        <ele>113</ele>
        <time>2017-10-15T08:15:25.000Z</time>
      </trkpt>
      <trkpt lat="47.875" lon="2.11355">
        <ele>113</ele>
        <time>2017-10-15T08:15:34.000Z</time>
      </trkpt>
      <trkpt lat="47.87496" lon="2.11361">
        <ele>113</ele>
        <time>2017-10-15T08:15:35.000Z</time>
      </trkpt>
      <trkpt lat="47.87476" lon="2.1139">
        <ele>113</ele>
        <time>2017-10-15T08:15:40.000Z</time>
      </trkpt>
      <trkpt lat="47.87442" lon="2.11443">
        <ele>113</ele>
        <time>2017-10-15T08:15:48.000Z</time>
      </trkpt>
      <trkpt lat="47.87439" lon="2.1145">
        <ele>113</ele>
        <time>2017-10-15T08:15:49.000Z</time>
      </trkpt>
      <trkpt lat="47.87435" lon="2.11458">
        <ele>113</ele>
        <time>2017-10-15T08:15:50.000Z</time>
      </trkpt>
      <trkpt lat="47.87426" lon="2.11489">
        <ele>113</ele>
        <time>2017-10-15T08:15:54.000Z</time>
      </trkpt>
      <trkpt lat="47.87415" lon="2.1149">
        <ele>113</ele>
        <time>2017-10-15T08:15:56.000Z</time>
      </trkpt>
      <trkpt lat="47.87404" lon="2.11493">
        <ele>112</ele>
        <time>2017-10-15T08:15:58.000Z</time>
      </trkpt>
      <trkpt lat="47.87369" lon="2.11535">
        <ele>111</ele>
        <time>2017-10-15T08:16:05.000Z</time>
      </trkpt>
      <trkpt lat="47.87364" lon="2.11541">
        <ele>111</ele>
        <time>2017-10-15T08:16:06.000Z</time>
      </trkpt>
      <trkpt lat="47.87323" lon="2.11584">
        <ele>111</ele>
        <time>2017-10-15T08:16:14.000Z</time>
      </trkpt>
      <trkpt lat="47.87319" lon="2.1159">
        <ele>111</ele>
        <time>2017-10-15T08:16:15.000Z</time>
      </trkpt>
      <trkpt lat="47.8729" lon="2.11642">
        <ele>112</ele>
        <time>2017-10-15T08:16:23.000Z</time>
      </trkpt>
      <trkpt lat="47.87287" lon="2.11649">
        <ele>112</ele>
        <time>2017-10-15T08:16:24.000Z</time>
      </trkpt>
      <trkpt lat="47.87262" lon="2.11716">
        <ele>111</ele>
        <time>2017-10-15T08:16:32.000Z</time>
      </trkpt>
      <trkpt lat="47.8726" lon="2.11725">
        <ele>111</ele>
        <time>2017-10-15T08:16:33.000Z</time>
      </trkpt>
      <trkpt lat="47.87239" lon="2.11787">
        <ele>109</ele>
        <time>2017-10-15T08:16:40.000Z</time>
      </trkpt>
      <trkpt lat="47.87237" lon="2.11796">
        <ele>109</ele>
        <time>2017-10-15T08:16:41.000Z</time>
      </trkpt>
      <trkpt lat="47.87215" lon="2.1186">
        <ele>109</ele>
        <time>2017-10-15T08:16:49.000Z</time>
      </trkpt>
      <trkpt lat="47.87213" lon="2.11866">
        <ele>108</ele>
        <time>2017-10-15T08:16:50.000Z</time>
      </trkpt>
      <trkpt lat="47.87208" lon="2.11881">
        <ele>108</ele>
        <time>2017-10-15T08:16:53.000Z</time>
      </trkpt>
      <trkpt lat="47.87204" lon="2.11885">
        <ele>108</ele>
        <time>2017-10-15T08:16:55.000Z</time>
      </trkpt>
      <trkpt lat="47.87201" lon="2.11894">
        <ele>108</ele>
        <time>2017-10-15T08:16:57.000Z</time>
      </trkpt>
      <trkpt lat="47.872" lon="2.11921">
        <ele>108</ele>
        <time>2017-10-15T08:17:01.000Z</time>
      </trkpt>
      <trkpt lat="47.87187" lon="2.1197">
        <ele>109</ele>
        <time>2017-10-15T08:17:08.000Z</time>
      </trkpt>
      <trkpt lat="47.87172" lon="2.12041">
        <ele>109</ele>
        <time>2017-10-15T08:17:17.000Z</time>
      </trkpt>
      <trkpt lat="47.87171" lon="2.12049">
        <ele>109</ele>
        <time>2017-10-15T08:17:18.000Z</time>
      </trkpt>
      <trkpt lat="47.87156" lon="2.12119">
        <ele>108</ele>
        <time>2017-10-15T08:17:26.000Z</time>
      </trkpt>
      <trkpt lat="47.87152" lon="2.12128">
        <ele>108</ele>
        <time>2017-10-15T08:17:27.000Z</time>
      </trkpt>
      <trkpt lat="47.87138" lon="2.12196">
        <ele>104</ele>
        <time>2017-10-15T08:17:33.000Z</time>
      </trkpt>
      <trkpt lat="47.87136" lon="2.12208">
        <ele>103</ele>
        <time>2017-10-15T08:17:34.000Z</time>
      </trkpt>
      <trkpt lat="47.87134" lon="2.12232">
        <ele>102</ele>
        <time>2017-10-15T08:17:36.000Z</time>
      </trkpt>
      <trkpt lat="47.87131" lon="2.12283">
        <ele>100</ele>
        <time>2017-10-15T08:17:40.000Z</time>
      </trkpt>
      <trkpt lat="47.87115" lon="2.12355">
        <ele>100</ele>
        <time>2017-10-15T08:17:47.000Z</time>
      </trkpt>
      <trkpt lat="47.87112" lon="2.12362">
        <ele>101</ele>
        <time>2017-10-15T08:17:48.000Z</time>
      </trkpt>
      <trkpt lat="47.87086" lon="2.1242">
        <ele>103</ele>
        <time>2017-10-15T08:17:56.000Z</time>
      </trkpt>
      <trkpt lat="47.87083" lon="2.12427">
        <ele>103</ele>
        <time>2017-10-15T08:17:57.000Z</time>
      </trkpt>
      <trkpt lat="47.87065" lon="2.12476">
        <ele>105</ele>
        <time>2017-10-15T08:18:04.000Z</time>
      </trkpt>
      <trkpt lat="47.87045" lon="2.12542">
        <ele>106</ele>
        <time>2017-10-15T08:18:14.000Z</time>
      </trkpt>
      <trkpt lat="47.87043" lon="2.12549">
        <ele>106</ele>
        <time>2017-10-15T08:18:15.000Z</time>
      </trkpt>
      <trkpt lat="47.87033" lon="2.12576">
        <ele>106</ele>
        <time>2017-10-15T08:18:20.000Z</time>
      </trkpt>
      <trkpt lat="47.87026" lon="2.12578">
        <ele>106</ele>
        <time>2017-10-15T08:18:23.000Z</time>
      </trkpt>
      <trkpt lat="47.86983" lon="2.12554">
        <ele>106</ele>
        <time>2017-10-15T08:18:33.000Z</time>
      </trkpt>
      <trkpt lat="47.86978" lon="2.12551">
        <ele>106</ele>
        <time>2017-10-15T08:18:34.000Z</time>
      </trkpt>
      <trkpt lat="47.86931" lon="2.12524">
        <ele>106</ele>
        <time>2017-10-15T08:18:43.000Z</time>
      </trkpt>
      <trkpt lat="47.86926" lon="2.12521">
        <ele>106</ele>
        <time>2017-10-15T08:18:44.000Z</time>
      </trkpt>
      <trkpt lat="47.8688" lon="2.12495">
        <ele>105</ele>
        <time>2017-10-15T08:18:52.000Z</time>
      </trkpt>
      <trkpt lat="47.86874" lon="2.12491">
        <ele>105</ele>
        <time>2017-10-15T08:18:53.000Z</time>
      </trkpt>
      <trkpt lat="47.86832" lon="2.12467">
        <ele>104</ele>
        <time>2017-10-15T08:19:00.000Z</time>
      </trkpt>
      <trkpt lat="47.86826" lon="2.12463">
        <ele>104</ele>
        <time>2017-10-15T08:19:01.000Z</time>
      </trkpt>
      <trkpt lat="47.86783" lon="2.12439">
        <ele>102</ele>
        <time>2017-10-15T08:19:08.000Z</time>
      </trkpt>
      <trkpt lat="47.86777" lon="2.12436">
        <ele>102</ele>
        <time>2017-10-15T08:19:09.000Z</time>
      </trkpt>
      <trkpt lat="47.86745" lon="2.12412">
        <ele>101</ele>
        <time>2017-10-15T08:19:16.000Z</time>
      </trkpt>
      <trkpt lat="47.86739" lon="2.12403">
        <ele>100</ele>
        <time>2017-10-15T08:19:39.000Z</time>
      </trkpt>
      <trkpt lat="47.86744" lon="2.12412">
        <ele>101</ele>
        <time>2017-10-15T08:19:43.000Z</time>
      </trkpt>
      <trkpt lat="47.86744" lon="2.12418">
        <ele>101</ele>
        <time>2017-10-15T08:19:48.000Z</time>
      </trkpt>
      <trkpt lat="47.86742" lon="2.12428">
        <ele>101</ele>
        <time>2017-10-15T08:19:51.000Z</time>
      </trkpt>
      <trkpt lat="47.86747" lon="2.12432">
        <ele>101</ele>
        <time>2017-10-15T08:19:53.000Z</time>
      </trkpt>
      <trkpt lat="47.86753" lon="2.12439">
        <ele>102</ele>
        <time>2017-10-15T08:19:56.000Z</time>
      </trkpt>
      <trkpt lat="47.86752" lon="2.12449">
        <ele>102</ele>
        <time>2017-10-15T08:19:58.000Z</time>
      </trkpt>
      <trkpt lat="47.86746" lon="2.12519">
        <ele>102</ele>
        <time>2017-10-15T08:20:08.000Z</time>
      </trkpt>
      <trkpt lat="47.86745" lon="2.12527">
        <ele>102</ele>
        <time>2017-10-15T08:20:09.000Z</time>
      </trkpt>
      <trkpt lat="47.86737" lon="2.12571">
        <ele>102</ele>
        <time>2017-10-15T08:20:15.000Z</time>
      </trkpt>
      <trkpt lat="47.86728" lon="2.12577">
        <ele>102</ele>
        <time>2017-10-15T08:20:17.000Z</time>
      </trkpt>
      <trkpt lat="47.8671" lon="2.12578">
        <ele>102</ele>
        <time>2017-10-15T08:20:21.000Z</time>
      </trkpt>
      <trkpt lat="47.86705" lon="2.12586">
        <ele>102</ele>
        <time>2017-10-15T08:20:23.000Z</time>
      </trkpt>
      <trkpt lat="47.86701" lon="2.12596">
        <ele>102</ele>
        <time>2017-10-15T08:20:26.000Z</time>
      </trkpt>
      <trkpt lat="47.867" lon="2.12619">
        <ele>102</ele>
        <time>2017-10-15T08:20:32.000Z</time>
      </trkpt>
      <trkpt lat="47.86689" lon="2.12689">
        <ele>102</ele>
        <time>2017-10-15T08:20:41.000Z</time>
      </trkpt>
      <trkpt lat="47.86687" lon="2.12697">
        <ele>102</ele>
        <time>2017-10-15T08:20:42.000Z</time>
      </trkpt>
      <trkpt lat="47.86681" lon="2.12722">
        <ele>102</ele>
        <time>2017-10-15T08:20:45.000Z</time>
      </trkpt>
      <trkpt lat="47.86665" lon="2.12762">
        <ele>103</ele>
        <time>2017-10-15T08:20:50.000Z</time>
      </trkpt>
      <trkpt lat="47.86636" lon="2.12817">
        <ele>103</ele>
        <time>2017-10-15T08:20:57.000Z</time>
      </trkpt>
      <trkpt lat="47.86631" lon="2.12825">
        <ele>103</ele>
        <time>2017-10-15T08:20:58.000Z</time>
      </trkpt>
      <trkpt lat="47.866" lon="2.12874">
        <ele>103</ele>
        <time>2017-10-15T08:21:05.000Z</time>
      </trkpt>
      <trkpt lat="47.86595" lon="2.12881">
        <ele>103</ele>
        <time>2017-10-15T08:21:06.000Z</time>
      </trkpt>
      <trkpt lat="47.86591" lon="2.12888">
        <ele>103</ele>
        <time>2017-10-15T08:21:07.000Z</time>
      </trkpt>
      <trkpt lat="47.86557" lon="2.12938">
        <ele>104</ele>
        <time>2017-10-15T08:21:15.000Z</time>
      </trkpt>
      <trkpt lat="47.86555" lon="2.12943">
        <ele>104</ele>
        <time>2017-10-15T08:21:16.000Z</time>
      </trkpt>
      <trkpt lat="47.86524" lon="2.12999">
        <ele>102</ele>
        <time>2017-10-15T08:21:24.000Z</time>
      </trkpt>
      <trkpt lat="47.86521" lon="2.13009">
        <ele>102</ele>
        <time>2017-10-15T08:21:25.000Z</time>
      </trkpt>
      <trkpt lat="47.86506" lon="2.13054">
        <ele>101</ele>
        <time>2017-10-15T08:21:30.000Z</time>
      </trkpt>
      <trkpt lat="47.86475" lon="2.13107">
        <ele>100</ele>
        <time>2017-10-15T08:21:37.000Z</time>
      </trkpt>
      <trkpt lat="47.86471" lon="2.13115">
        <ele>100</ele>
        <time>2017-10-15T08:21:38.000Z</time>
      </trkpt>
      <trkpt lat="47.86441" lon="2.1317">
        <ele>101</ele>
        <time>2017-10-15T08:21:45.000Z</time>
      </trkpt>
      <trkpt lat="47.86436" lon="2.13176">
        <ele>102</ele>
        <time>2017-10-15T08:21:46.000Z</time>
      </trkpt>
      <trkpt lat="47.86426" lon="2.13198">
        <ele>102</ele>
        <time>2017-10-15T08:21:49.000Z</time>
      </trkpt>
      <trkpt lat="47.86393" lon="2.13251">
        <ele>103</ele>
        <time>2017-10-15T08:21:58.000Z</time>
      </trkpt>
      <trkpt lat="47.86391" lon="2.13256">
        <ele>103</ele>
        <time>2017-10-15T08:21:59.000Z</time>
      </trkpt>
      <trkpt lat="47.86361" lon="2.13318">
        <ele>102</ele>
        <time>2017-10-15T08:22:08.000Z</time>
      </trkpt>
      <trkpt lat="47.86357" lon="2.13326">
        <ele>102</ele>
        <time>2017-10-15T08:22:09.000Z</time>
      </trkpt>
      <trkpt lat="47.8633" lon="2.1338">
        <ele>101</ele>
        <time>2017-10-15T08:22:16.000Z</time>
      </trkpt>
      <trkpt lat="47.86327" lon="2.13388">
        <ele>101</ele>
        <time>2017-10-15T08:22:17.000Z</time>
      </trkpt>
      <trkpt lat="47.86309" lon="2.13433">
        <ele>100</ele>
        <time>2017-10-15T08:22:23.000Z</time>
      </trkpt>
      <trkpt lat="47.86285" lon="2.13494">
        <ele>99</ele>
        <time>2017-10-15T08:22:31.000Z</time>
      </trkpt>
      <trkpt lat="47.86282" lon="2.13502">
        <ele>99</ele>
        <time>2017-10-15T08:22:32.000Z</time>
      </trkpt>
      <trkpt lat="47.86269" lon="2.13533">
        <ele>98</ele>
        <time>2017-10-15T08:22:36.000Z</time>
      </trkpt>
      <trkpt lat="47.8624" lon="2.13596">
        <ele>101</ele>
        <time>2017-10-15T08:22:44.000Z</time>
      </trkpt>
      <trkpt lat="47.86237" lon="2.13602">
        <ele>101</ele>
        <time>2017-10-15T08:22:45.000Z</time>
      </trkpt>
      <trkpt lat="47.86209" lon="2.13661">
        <ele>105</ele>
        <time>2017-10-15T08:22:53.000Z</time>
      </trkpt>
      <trkpt lat="47.86206" lon="2.13668">
        <ele>106</ele>
        <time>2017-10-15T08:22:54.000Z</time>
      </trkpt>
      <trkpt lat="47.86198" lon="2.13681">
        <ele>106</ele>
        <time>2017-10-15T08:22:56.000Z</time>
      </trkpt>
      <trkpt lat="47.8616" lon="2.1373">
        <ele>108</ele>
        <time>2017-10-15T08:23:04.000Z</time>
      </trkpt>
      <trkpt lat="47.86155" lon="2.13735">
        <ele>108</ele>
        <time>2017-10-15T08:23:05.000Z</time>
      </trkpt>
      <trkpt lat="47.86146" lon="2.13746">
        <ele>108</ele>
        <time>2017-10-15T08:23:07.000Z</time>
      </trkpt>
      <trkpt lat="47.86114" lon="2.138">
        <ele>107</ele>
        <time>2017-10-15T08:23:15.000Z</time>
      </trkpt>
      <trkpt lat="47.8611" lon="2.13807">
        <ele>107</ele>
        <time>2017-10-15T08:23:16.000Z</time>
      </trkpt>
      <trkpt lat="47.86081" lon="2.13868">
        <ele>105</ele>
        <time>2017-10-15T08:23:24.000Z</time>
      </trkpt>
      <trkpt lat="47.86077" lon="2.13876">
        <ele>105</ele>
        <time>2017-10-15T08:23:25.000Z</time>
      </trkpt>
      <trkpt lat="47.86057" lon="2.13927">
        <ele>104</ele>
        <time>2017-10-15T08:23:32.000Z</time>
      </trkpt>
      <trkpt lat="47.86054" lon="2.13935">
        <ele>104</ele>
        <time>2017-10-15T08:23:33.000Z</time>
      </trkpt>
      <trkpt lat="47.86037" lon="2.13989">
        <ele>102</ele>
        <time>2017-10-15T08:23:40.000Z</time>
      </trkpt>
      <trkpt lat="47.86034" lon="2.13996">
        <ele>102</ele>
        <time>2017-10-15T08:23:41.000Z</time>
      </trkpt>
      <trkpt lat="47.86012" lon="2.14062">
        <ele>103</ele>
        <time>2017-10-15T08:23:49.000Z</time>
      </trkpt>
      <trkpt lat="47.86009" lon="2.14071">
        <ele>104</ele>
        <time>2017-10-15T08:23:50.000Z</time>
      </trkpt>
      <trkpt lat="47.85986" lon="2.14139">
        <ele>106</ele>
        <time>2017-10-15T08:23:58.000Z</time>
      </trkpt>
      <trkpt lat="47.85983" lon="2.14149">
        <ele>106</ele>
        <time>2017-10-15T08:23:59.000Z</time>
      </trkpt>
      <trkpt lat="47.8596" lon="2.14213">
        <ele>109</ele>
        <time>2017-10-15T08:24:06.000Z</time>
      </trkpt>
      <trkpt lat="47.85956" lon="2.14223">
        <ele>109</ele>
        <time>2017-10-15T08:24:07.000Z</time>
      </trkpt>
      <trkpt lat="47.85938" lon="2.14268">
        <ele>111</ele>
        <time>2017-10-15T08:24:12.000Z</time>
      </trkpt>
      <trkpt lat="47.85912" lon="2.14331">
        <ele>114</ele>
        <time>2017-10-15T08:24:19.000Z</time>
      </trkpt>
      <trkpt lat="47.85909" lon="2.1434">
        <ele>114</ele>
        <time>2017-10-15T08:24:20.000Z</time>
      </trkpt>
      <trkpt lat="47.8589" lon="2.14394">
        <ele>114</ele>
        <time>2017-10-15T08:24:26.000Z</time>
      </trkpt>
      <trkpt lat="47.85887" lon="2.14403">
        <ele>113</ele>
        <time>2017-10-15T08:24:27.000Z</time>
      </trkpt>
      <trkpt lat="47.85869" lon="2.14472">
        <ele>110</ele>
        <time>2017-10-15T08:24:34.000Z</time>
      </trkpt>
      <trkpt lat="47.85866" lon="2.14481">
        <ele>109</ele>
        <time>2017-10-15T08:24:35.000Z</time>
      </trkpt>
      <trkpt lat="47.85847" lon="2.14547">
        <ele>106</ele>
        <time>2017-10-15T08:24:42.000Z</time>
      </trkpt>
      <trkpt lat="47.85845" lon="2.14556">
        <ele>106</ele>
        <time>2017-10-15T08:24:43.000Z</time>
      </trkpt>
      <trkpt lat="47.85831" lon="2.14622">
        <ele>105</ele>
        <time>2017-10-15T08:24:50.000Z</time>
      </trkpt>
      <trkpt lat="47.85828" lon="2.14631">
        <ele>105</ele>
        <time>2017-10-15T08:24:51.000Z</time>
      </trkpt>
      <trkpt lat="47.85812" lon="2.14702">
        <ele>106</ele>
        <time>2017-10-15T08:24:59.000Z</time>
      </trkpt>
      <trkpt lat="47.8581" lon="2.14711">
        <ele>105</ele>
        <time>2017-10-15T08:25:00.000Z</time>
      </trkpt>
      <trkpt lat="47.85792" lon="2.14779">
        <ele>105</ele>
        <time>2017-10-15T08:25:08.000Z</time>
      </trkpt>
      <trkpt lat="47.8579" lon="2.14786">
        <ele>105</ele>
        <time>2017-10-15T08:25:09.000Z</time>
      </trkpt>
      <trkpt lat="47.85775" lon="2.14853">
        <ele>102</ele>
        <time>2017-10-15T08:25:17.000Z</time>
      </trkpt>
      <trkpt lat="47.85775" lon="2.14863">
        <ele>102</ele>
        <time>2017-10-15T08:25:18.000Z</time>
      </trkpt>
      <trkpt lat="47.8577" lon="2.14881">
        <ele>101</ele>
        <time>2017-10-15T08:25:20.000Z</time>
      </trkpt>
      <trkpt lat="47.85751" lon="2.14942">
        <ele>101</ele>
        <time>2017-10-15T08:25:27.000Z</time>
      </trkpt>
      <trkpt lat="47.85748" lon="2.1495">
        <ele>101</ele>
        <time>2017-10-15T08:25:28.000Z</time>
      </trkpt>
      <trkpt lat="47.85746" lon="2.14959">
        <ele>101</ele>
        <time>2017-10-15T08:25:29.000Z</time>
      </trkpt>
      <trkpt lat="47.85738" lon="2.15024">
        <ele>101</ele>
        <time>2017-10-15T08:25:36.000Z</time>
      </trkpt>
      <trkpt lat="47.85738" lon="2.15033">
        <ele>101</ele>
        <time>2017-10-15T08:25:37.000Z</time>
      </trkpt>
      <trkpt lat="47.85735" lon="2.15068">
        <ele>102</ele>
        <time>2017-10-15T08:25:41.000Z</time>
      </trkpt>
      <trkpt lat="47.85722" lon="2.15133">
        <ele>103</ele>
        <time>2017-10-15T08:25:48.000Z</time>
      </trkpt>
      <trkpt lat="47.8572" lon="2.15143">
        <ele>104</ele>
        <time>2017-10-15T08:25:49.000Z</time>
      </trkpt>
      <trkpt lat="47.85704" lon="2.15206">
        <ele>105</ele>
        <time>2017-10-15T08:25:56.000Z</time>
      </trkpt>
      <trkpt lat="47.85701" lon="2.15215">
        <ele>105</ele>
        <time>2017-10-15T08:25:57.000Z</time>
      </trkpt>
      <trkpt lat="47.85684" lon="2.15286">
        <ele>106</ele>
        <time>2017-10-15T08:26:05.000Z</time>
      </trkpt>
      <trkpt lat="47.85682" lon="2.15295">
        <ele>106</ele>
        <time>2017-10-15T08:26:06.000Z</time>
      </trkpt>
      <trkpt lat="47.85667" lon="2.15365">
        <ele>105</ele>
        <time>2017-10-15T08:26:13.000Z</time>
      </trkpt>
      <trkpt lat="47.85666" lon="2.15375">
        <ele>105</ele>
        <time>2017-10-15T08:26:14.000Z</time>
      </trkpt>
      <trkpt lat="47.85651" lon="2.15445">
        <ele>104</ele>
        <time>2017-10-15T08:26:21.000Z</time>
      </trkpt>
      <trkpt lat="47.85649" lon="2.15455">
        <ele>103</ele>
        <time>2017-10-15T08:26:22.000Z</time>
      </trkpt>
      <trkpt lat="47.85635" lon="2.15526">
        <ele>104</ele>
        <time>2017-10-15T08:26:29.000Z</time>
      </trkpt>
      <trkpt lat="47.85633" lon="2.15536">
        <ele>104</ele>
        <time>2017-10-15T08:26:30.000Z</time>
      </trkpt>
      <trkpt lat="47.8563" lon="2.15557">
        <ele>104</ele>
        <time>2017-10-15T08:26:32.000Z</time>
      </trkpt>
      <trkpt lat="47.85618" lon="2.15629">
        <ele>105</ele>
        <time>2017-10-15T08:26:39.000Z</time>
      </trkpt>
      <trkpt lat="47.85616" lon="2.15639">
        <ele>106</ele>
        <time>2017-10-15T08:26:40.000Z</time>
      </trkpt>
      <trkpt lat="47.85605" lon="2.15708">
        <ele>106</ele>
        <time>2017-10-15T08:26:47.000Z</time>
      </trkpt>
      <trkpt lat="47.85604" lon="2.15718">
        <ele>106</ele>
        <time>2017-10-15T08:26:48.000Z</time>
      </trkpt>
      <trkpt lat="47.85597" lon="2.1578">
        <ele>106</ele>
        <time>2017-10-15T08:26:55.000Z</time>
      </trkpt>
      <trkpt lat="47.85595" lon="2.15787">
        <ele>106</ele>
        <time>2017-10-15T08:26:56.000Z</time>
      </trkpt>
      <trkpt lat="47.8559" lon="2.1581">
        <ele>105</ele>
        <time>2017-10-15T08:26:59.000Z</time>
      </trkpt>
      <trkpt lat="47.85582" lon="2.15879">
        <ele>105</ele>
        <time>2017-10-15T08:27:08.000Z</time>
      </trkpt>
      <trkpt lat="47.85582" lon="2.15883">
        <ele>105</ele>
        <time>2017-10-15T08:27:09.000Z</time>
      </trkpt>
      <trkpt lat="47.85577" lon="2.15911">
        <ele>105</ele>
        <time>2017-10-15T08:27:16.000Z</time>
      </trkpt>
      <trkpt lat="47.85574" lon="2.15921">
        <ele>105</ele>
        <time>2017-10-15T08:27:18.000Z</time>
      </trkpt>
      <trkpt lat="47.8557" lon="2.15942">
        <ele>105</ele>
        <time>2017-10-15T08:27:22.000Z</time>
      </trkpt>
      <trkpt lat="47.85566" lon="2.15963">
        <ele>104</ele>
        <time>2017-10-15T08:27:27.000Z</time>
      </trkpt>
      <trkpt lat="47.85556" lon="2.15995">
        <ele>103</ele>
        <time>2017-10-15T08:27:34.000Z</time>
      </trkpt>
      <trkpt lat="47.8554" lon="2.1606">
        <ele>104</ele>
        <time>2017-10-15T08:27:46.000Z</time>
      </trkpt>
      <trkpt lat="47.85538" lon="2.16066">
        <ele>104</ele>
        <time>2017-10-15T08:27:47.000Z</time>
      </trkpt>
      <trkpt lat="47.8552" lon="2.1613">
        <ele>106</ele>
        <time>2017-10-15T08:27:57.000Z</time>
      </trkpt>
      <trkpt lat="47.85518" lon="2.16137">
        <ele>106</ele>
        <time>2017-10-15T08:27:58.000Z</time>
      </trkpt>
      <trkpt lat="47.855" lon="2.162">
        <ele>105</ele>
        <time>2017-10-15T08:28:06.000Z</time>
      </trkpt>
      <trkpt lat="47.85499" lon="2.16208">
        <ele>106</ele>
        <time>2017-10-15T08:28:07.000Z</time>
      </trkpt>
      <trkpt lat="47.8548" lon="2.16272">
        <ele>106</ele>
        <time>2017-10-15T08:28:16.000Z</time>
      </trkpt>
      <trkpt lat="47.85478" lon="2.16279">
        <ele>106</ele>
        <time>2017-10-15T08:28:17.000Z</time>
      </trkpt>
      <trkpt lat="47.85473" lon="2.16294">
        <ele>106</ele>
        <time>2017-10-15T08:28:19.000Z</time>
      </trkpt>
      <trkpt lat="47.85442" lon="2.16348">
        <ele>105</ele>
        <time>2017-10-15T08:28:27.000Z</time>
      </trkpt>
      <trkpt lat="47.85439" lon="2.16355">
        <ele>105</ele>
        <time>2017-10-15T08:28:28.000Z</time>
      </trkpt>
      <trkpt lat="47.85428" lon="2.16378">
        <ele>105</ele>
        <time>2017-10-15T08:28:31.000Z</time>
      </trkpt>
      <trkpt lat="47.85403" lon="2.16422">
        <ele>104</ele>
        <time>2017-10-15T08:28:37.000Z</time>
      </trkpt>
      <trkpt lat="47.8537" lon="2.16471">
        <ele>104</ele>
        <time>2017-10-15T08:28:44.000Z</time>
      </trkpt>
      <trkpt lat="47.85366" lon="2.16477">
        <ele>104</ele>
        <time>2017-10-15T08:28:45.000Z</time>
      </trkpt>
      <trkpt lat="47.8533" lon="2.16528">
        <ele>103</ele>
        <time>2017-10-15T08:28:53.000Z</time>
      </trkpt>
      <trkpt lat="47.85326" lon="2.16534">
        <ele>102</ele>
        <time>2017-10-15T08:28:54.000Z</time>
      </trkpt>
      <trkpt lat="47.8532" lon="2.16548">
        <ele>102</ele>
        <time>2017-10-15T08:28:56.000Z</time>
      </trkpt>
      <trkpt lat="47.85297" lon="2.16583">
        <ele>102</ele>
        <time>2017-10-15T08:29:02.000Z</time>
      </trkpt>
      <trkpt lat="47.85292" lon="2.16591">
        <ele>102</ele>
        <time>2017-10-15T08:29:04.000Z</time>
      </trkpt>
      <trkpt lat="47.85289" lon="2.16601">
        <ele>103</ele>
        <time>2017-10-15T08:29:06.000Z</time>
      </trkpt>
      <trkpt lat="47.85256" lon="2.16656">
        <ele>104</ele>
        <time>2017-10-15T08:29:15.000Z</time>
      </trkpt>
      <trkpt lat="47.85252" lon="2.16663">
        <ele>104</ele>
        <time>2017-10-15T08:29:16.000Z</time>
      </trkpt>
      <trkpt lat="47.8522" lon="2.16715">
        <ele>105</ele>
        <time>2017-10-15T08:29:24.000Z</time>
      </trkpt>
      <trkpt lat="47.85216" lon="2.16721">
        <ele>105</ele>
        <time>2017-10-15T08:29:25.000Z</time>
      </trkpt>
      <trkpt lat="47.85207" lon="2.16729">
        <ele>105</ele>
        <time>2017-10-15T08:29:27.000Z</time>
      </trkpt>
      <trkpt lat="47.85191" lon="2.1674">
        <ele>104</ele>
        <time>2017-10-15T08:29:30.000Z</time>
      </trkpt>
      <trkpt lat="47.85176" lon="2.16777">
        <ele>103</ele>
        <time>2017-10-15T08:29:35.000Z</time>
      </trkpt>
      <trkpt lat="47.85172" lon="2.16802">
        <ele>104</ele>
        <time>2017-10-15T08:29:38.000Z</time>
      </trkpt>
      <trkpt lat="47.85169" lon="2.16818">
        <ele>104</ele>
        <time>2017-10-15T08:29:40.000Z</time>
      </trkpt>
      <trkpt lat="47.85163" lon="2.16837">
        <ele>104</ele>
        <time>2017-10-15T08:29:43.000Z</time>
      </trkpt>
      <trkpt lat="47.85137" lon="2.16901">
        <ele>103</ele>
        <time>2017-10-15T08:29:52.000Z</time>
      </trkpt>
      <trkpt lat="47.85135" lon="2.1691">
        <ele>103</ele>
        <time>2017-10-15T08:29:53.000Z</time>
      </trkpt>
      <trkpt lat="47.85122" lon="2.16944">
        <ele>103</ele>
        <time>2017-10-15T08:29:57.000Z</time>
      </trkpt>
      <trkpt lat="47.85111" lon="2.16953">
        <ele>103</ele>
        <time>2017-10-15T08:29:59.000Z</time>
      </trkpt>
      <trkpt lat="47.85101" lon="2.16964">
        <ele>104</ele>
        <time>2017-10-15T08:30:01.000Z</time>
      </trkpt>
      <trkpt lat="47.85072" lon="2.17021">
        <ele>104</ele>
        <time>2017-10-15T08:30:09.000Z</time>
      </trkpt>
      <trkpt lat="47.85068" lon="2.17028">
        <ele>104</ele>
        <time>2017-10-15T08:30:10.000Z</time>
      </trkpt>
      <trkpt lat="47.85052" lon="2.17057">
        <ele>106</ele>
        <time>2017-10-15T08:30:22.000Z</time>
      </trkpt>
      <trkpt lat="47.85059" lon="2.17039">
        <ele>106</ele>
        <time>2017-10-15T08:30:27.000Z</time>
      </trkpt>
      <trkpt lat="47.85081" lon="2.16997">
        <ele>106</ele>
        <time>2017-10-15T08:30:37.000Z</time>
      </trkpt>
      <trkpt lat="47.85088" lon="2.16979">
        <ele>105</ele>
        <time>2017-10-15T08:30:41.000Z</time>
      </trkpt>
      <trkpt lat="47.85093" lon="2.16961">
        <ele>105</ele>
        <time>2017-10-15T08:30:46.000Z</time>
      </trkpt>
      <trkpt lat="47.85091" lon="2.16969">
        <ele>104</ele>
        <time>2017-10-15T08:30:50.000Z</time>
      </trkpt>
      <trkpt lat="47.85089" lon="2.16977">
        <ele>104</ele>
        <time>2017-10-15T08:30:52.000Z</time>
      </trkpt>
      <trkpt lat="47.85083" lon="2.1699">
        <ele>104</ele>
        <time>2017-10-15T08:30:55.000Z</time>
      </trkpt>
      <trkpt lat="47.85077" lon="2.17005">
        <ele>103</ele>
        <time>2017-10-15T08:30:58.000Z</time>
      </trkpt>
      <trkpt lat="47.85047" lon="2.1706">
        <ele>101</ele>
        <time>2017-10-15T08:31:07.000Z</time>
      </trkpt>
      <trkpt lat="47.85046" lon="2.17068">
        <ele>101</ele>
        <time>2017-10-15T08:31:08.000Z</time>
      </trkpt>
      <trkpt lat="47.85035" lon="2.17099">
        <ele>100</ele>
        <time>2017-10-15T08:31:12.000Z</time>
      </trkpt>
      <trkpt lat="47.85009" lon="2.17157">
        <ele>100</ele>
        <time>2017-10-15T08:31:19.000Z</time>
      </trkpt>
      <trkpt lat="47.85005" lon="2.17165">
        <ele>100</ele>
        <time>2017-10-15T08:31:20.000Z</time>
      </trkpt>
      <trkpt lat="47.84987" lon="2.17195">
        <ele>100</ele>
        <time>2017-10-15T08:31:24.000Z</time>
      </trkpt>
      <trkpt lat="47.84945" lon="2.17238">
        <ele>101</ele>
        <time>2017-10-15T08:31:32.000Z</time>
      </trkpt>
      <trkpt lat="47.8494" lon="2.17243">
        <ele>101</ele>
        <time>2017-10-15T08:31:33.000Z</time>
      </trkpt>
      <trkpt lat="47.84931" lon="2.17255">
        <ele>102</ele>
        <time>2017-10-15T08:31:35.000Z</time>
      </trkpt>
      <trkpt lat="47.84895" lon="2.17307">
        <ele>104</ele>
        <time>2017-10-15T08:31:43.000Z</time>
      </trkpt>
      <trkpt lat="47.84891" lon="2.17314">
        <ele>104</ele>
        <time>2017-10-15T08:31:44.000Z</time>
      </trkpt>
      <trkpt lat="47.84883" lon="2.17329">
        <ele>105</ele>
        <time>2017-10-15T08:31:46.000Z</time>
      </trkpt>
      <trkpt lat="47.84862" lon="2.1739">
        <ele>105</ele>
        <time>2017-10-15T08:31:53.000Z</time>
      </trkpt>
      <trkpt lat="47.84859" lon="2.17398">
        <ele>105</ele>
        <time>2017-10-15T08:31:54.000Z</time>
      </trkpt>
      <trkpt lat="47.84852" lon="2.17422">
        <ele>105</ele>
        <time>2017-10-15T08:31:57.000Z</time>
      </trkpt>
      <trkpt lat="47.84835" lon="2.17488">
        <ele>106</ele>
        <time>2017-10-15T08:32:05.000Z</time>
      </trkpt>
      <trkpt lat="47.84833" lon="2.17496">
        <ele>106</ele>
        <time>2017-10-15T08:32:06.000Z</time>
      </trkpt>
      <trkpt lat="47.84824" lon="2.17549">
        <ele>109</ele>
        <time>2017-10-15T08:32:13.000Z</time>
      </trkpt>
      <trkpt lat="47.84819" lon="2.17561">
        <ele>109</ele>
        <time>2017-10-15T08:32:15.000Z</time>
      </trkpt>
      <trkpt lat="47.84816" lon="2.17574">
        <ele>109</ele>
        <time>2017-10-15T08:32:17.000Z</time>
      </trkpt>
      <trkpt lat="47.84811" lon="2.17647">
        <ele>108</ele>
        <time>2017-10-15T08:32:26.000Z</time>
      </trkpt>
      <trkpt lat="47.84811" lon="2.17655">
        <ele>108</ele>
        <time>2017-10-15T08:32:27.000Z</time>
      </trkpt>
      <trkpt lat="47.84806" lon="2.17723">
        <ele>108</ele>
        <time>2017-10-15T08:32:35.000Z</time>
      </trkpt>
      <trkpt lat="47.84805" lon="2.17732">
        <ele>108</ele>
        <time>2017-10-15T08:32:36.000Z</time>
      </trkpt>
      <trkpt lat="47.84795" lon="2.17802">
        <ele>107</ele>
        <time>2017-10-15T08:32:44.000Z</time>
      </trkpt>
      <trkpt lat="47.84793" lon="2.17811">
        <ele>107</ele>
        <time>2017-10-15T08:32:45.000Z</time>
      </trkpt>
      <trkpt lat="47.84787" lon="2.17836">
        <ele>107</ele>
        <time>2017-10-15T08:32:48.000Z</time>
      </trkpt>
      <trkpt lat="47.84771" lon="2.17874">
        <ele>107</ele>
        <time>2017-10-15T08:32:53.000Z</time>
      </trkpt>
      <trkpt lat="47.8474" lon="2.17927">
        <ele>108</ele>
        <time>2017-10-15T08:33:01.000Z</time>
      </trkpt>
      <trkpt lat="47.84737" lon="2.17934">
        <ele>108</ele>
        <time>2017-10-15T08:33:02.000Z</time>
      </trkpt>
      <trkpt lat="47.84726" lon="2.17963">
        <ele>108</ele>
        <time>2017-10-15T08:33:06.000Z</time>
      </trkpt>
      <trkpt lat="47.84707" lon="2.18032">
        <ele>104</ele>
        <time>2017-10-15T08:33:13.000Z</time>
      </trkpt>
      <trkpt lat="47.84704" lon="2.18041">
        <ele>103</ele>
        <time>2017-10-15T08:33:14.000Z</time>
      </trkpt>
      <trkpt lat="47.84681" lon="2.181">
        <ele>103</ele>
        <time>2017-10-15T08:33:22.000Z</time>
      </trkpt>
      <trkpt lat="47.84679" lon="2.18108">
        <ele>103</ele>
        <time>2017-10-15T08:33:23.000Z</time>
      </trkpt>
      <trkpt lat="47.84657" lon="2.18169">
        <ele>103</ele>
        <time>2017-10-15T08:33:32.000Z</time>
      </trkpt>
      <trkpt lat="47.84655" lon="2.18176">
        <ele>102</ele>
        <time>2017-10-15T08:33:33.000Z</time>
      </trkpt>
      <trkpt lat="47.84649" lon="2.18189">
        <ele>102</ele>
        <time>2017-10-15T08:33:36.000Z</time>
      </trkpt>
      <trkpt lat="47.84636" lon="2.18207">
        <ele>104</ele>
        <time>2017-10-15T08:33:42.000Z</time>
      </trkpt>
      <trkpt lat="47.84631" lon="2.18218">
        <ele>105</ele>
        <time>2017-10-15T08:33:45.000Z</time>
      </trkpt>
      <trkpt lat="47.84624" lon="2.18243">
        <ele>108</ele>
        <time>2017-10-15T08:33:51.000Z</time>
      </trkpt>
      <trkpt lat="47.84617" lon="2.18273">
        <ele>108</ele>
        <time>2017-10-15T08:33:56.000Z</time>
      </trkpt>
      <trkpt lat="47.84612" lon="2.1831">
        <ele>108</ele>
        <time>2017-10-15T08:34:01.000Z</time>
      </trkpt>
      <trkpt lat="47.84602" lon="2.18382">
        <ele>108</ele>
        <time>2017-10-15T08:34:10.000Z</time>
      </trkpt>
      <trkpt lat="47.84601" lon="2.1839">
        <ele>108</ele>
        <time>2017-10-15T08:34:11.000Z</time>
      </trkpt>
      <trkpt lat="47.84591" lon="2.18461">
        <ele>108</ele>
        <time>2017-10-15T08:34:20.000Z</time>
      </trkpt>
      <trkpt lat="47.8459" lon="2.18469">
        <ele>108</ele>
        <time>2017-10-15T08:34:21.000Z</time>
      </trkpt>
      <trkpt lat="47.84584" lon="2.18538">
        <ele>108</ele>
        <time>2017-10-15T08:34:29.000Z</time>
      </trkpt>
      <trkpt lat="47.84584" lon="2.18548">
        <ele>109</ele>
        <time>2017-10-15T08:34:30.000Z</time>
      </trkpt>
      <trkpt lat="47.84583" lon="2.18566">
        <ele>109</ele>
        <time>2017-10-15T08:34:32.000Z</time>
      </trkpt>
      <trkpt lat="47.84583" lon="2.18643">
        <ele>108</ele>
        <time>2017-10-15T08:34:40.000Z</time>
      </trkpt>
      <trkpt lat="47.84582" lon="2.18653">
        <ele>108</ele>
        <time>2017-10-15T08:34:41.000Z</time>
      </trkpt>
      <trkpt lat="47.8458" lon="2.1872">
        <ele>108</ele>
        <time>2017-10-15T08:34:48.000Z</time>
      </trkpt>
      <trkpt lat="47.84579" lon="2.18729">
        <ele>108</ele>
        <time>2017-10-15T08:34:49.000Z</time>
      </trkpt>
      <trkpt lat="47.84576" lon="2.18769">
        <ele>108</ele>
        <time>2017-10-15T08:34:53.000Z</time>
      </trkpt>
      <trkpt lat="47.84572" lon="2.18839">
        <ele>108</ele>
        <time>2017-10-15T08:35:00.000Z</time>
      </trkpt>
      <trkpt lat="47.84572" lon="2.18849">
        <ele>108</ele>
        <time>2017-10-15T08:35:01.000Z</time>
      </trkpt>
      <trkpt lat="47.84573" lon="2.18921">
        <ele>108</ele>
        <time>2017-10-15T08:35:08.000Z</time>
      </trkpt>
      <trkpt lat="47.84574" lon="2.18931">
        <ele>108</ele>
        <time>2017-10-15T08:35:09.000Z</time>
      </trkpt>
      <trkpt lat="47.84578" lon="2.19003">
        <ele>108</ele>
        <time>2017-10-15T08:35:16.000Z</time>
      </trkpt>
      <trkpt lat="47.84578" lon="2.19014">
        <ele>108</ele>
        <time>2017-10-15T08:35:17.000Z</time>
      </trkpt>
      <trkpt lat="47.84581" lon="2.19055">
        <ele>108</ele>
        <time>2017-10-15T08:35:21.000Z</time>
      </trkpt>
      <trkpt lat="47.84586" lon="2.19128">
        <ele>109</ele>
        <time>2017-10-15T08:35:28.000Z</time>
      </trkpt>
      <trkpt lat="47.84587" lon="2.19138">
        <ele>109</ele>
        <time>2017-10-15T08:35:29.000Z</time>
      </trkpt>
      <trkpt lat="47.84592" lon="2.19212">
        <ele>109</ele>
        <time>2017-10-15T08:35:36.000Z</time>
      </trkpt>
      <trkpt lat="47.84593" lon="2.19222">
        <ele>109</ele>
        <time>2017-10-15T08:35:37.000Z</time>
      </trkpt>
      <trkpt lat="47.84599" lon="2.19296">
        <ele>109</ele>
        <time>2017-10-15T08:35:44.000Z</time>
      </trkpt>
      <trkpt lat="47.846" lon="2.19307">
        <ele>109</ele>
        <time>2017-10-15T08:35:45.000Z</time>
      </trkpt>
      <trkpt lat="47.84604" lon="2.19338">
        <ele>109</ele>
        <time>2017-10-15T08:35:48.000Z</time>
      </trkpt>
      <trkpt lat="47.84618" lon="2.19412">
        <ele>108</ele>
        <time>2017-10-15T08:35:55.000Z</time>
      </trkpt>
      <trkpt lat="47.8462" lon="2.19423">
        <ele>108</ele>
        <time>2017-10-15T08:35:56.000Z</time>
      </trkpt>
      <trkpt lat="47.84636" lon="2.19496">
        <ele>108</ele>
        <time>2017-10-15T08:36:03.000Z</time>
      </trkpt>
      <trkpt lat="47.84638" lon="2.19507">
        <ele>108</ele>
        <time>2017-10-15T08:36:04.000Z</time>
      </trkpt>
      <trkpt lat="47.84654" lon="2.19581">
        <ele>107</ele>
        <time>2017-10-15T08:36:11.000Z</time>
      </trkpt>
      <trkpt lat="47.84656" lon="2.19591">
        <ele>107</ele>
        <time>2017-10-15T08:36:12.000Z</time>
      </trkpt>
      <trkpt lat="47.84671" lon="2.19665">
        <ele>107</ele>
        <time>2017-10-15T08:36:19.000Z</time>
      </trkpt>
      <trkpt lat="47.84673" lon="2.19676">
        <ele>107</ele>
        <time>2017-10-15T08:36:20.000Z</time>
      </trkpt>
      <trkpt lat="47.84688" lon="2.19746">
        <ele>106</ele>
        <time>2017-10-15T08:36:27.000Z</time>
      </trkpt>
      <trkpt lat="47.8469" lon="2.19756">
        <ele>106</ele>
        <time>2017-10-15T08:36:28.000Z</time>
      </trkpt>
      <trkpt lat="47.84704" lon="2.19822">
        <ele>106</ele>
        <time>2017-10-15T08:36:35.000Z</time>
      </trkpt>
      <trkpt lat="47.84706" lon="2.19832">
        <ele>106</ele>
        <time>2017-10-15T08:36:36.000Z</time>
      </trkpt>
      <trkpt lat="47.84721" lon="2.19898">
        <ele>106</ele>
        <time>2017-10-15T08:36:43.000Z</time>
      </trkpt>
      <trkpt lat="47.84723" lon="2.19907">
        <ele>106</ele>
        <time>2017-10-15T08:36:44.000Z</time>
      </trkpt>
      <trkpt lat="47.84737" lon="2.19971">
        <ele>106</ele>
        <time>2017-10-15T08:36:51.000Z</time>
      </trkpt>
      <trkpt lat="47.84739" lon="2.1998">
        <ele>106</ele>
        <time>2017-10-15T08:36:52.000Z</time>
      </trkpt>
      <trkpt lat="47.84744" lon="2.19998">
        <ele>107</ele>
        <time>2017-10-15T08:36:54.000Z</time>
      </trkpt>
      <trkpt lat="47.84759" lon="2.20037">
        <ele>106</ele>
        <time>2017-10-15T08:36:59.000Z</time>
      </trkpt>
      <trkpt lat="47.84777" lon="2.20107">
        <ele>102</ele>
        <time>2017-10-15T08:37:06.000Z</time>
      </trkpt>
      <trkpt lat="47.84783" lon="2.2011">
        <ele>101</ele>
        <time>2017-10-15T08:37:07.000Z</time>
      </trkpt>
      <trkpt lat="47.8479" lon="2.20112">
        <ele>101</ele>
        <time>2017-10-15T08:37:08.000Z</time>
      </trkpt>
      <trkpt lat="47.84835" lon="2.20108">
        <ele>101</ele>
        <time>2017-10-15T08:37:15.000Z</time>
      </trkpt>
      <trkpt lat="47.84841" lon="2.20111">
        <ele>101</ele>
        <time>2017-10-15T08:37:16.000Z</time>
      </trkpt>
      <trkpt lat="47.84865" lon="2.20145">
        <ele>101</ele>
        <time>2017-10-15T08:37:21.000Z</time>
      </trkpt>
      <trkpt lat="47.84895" lon="2.20202">
        <ele>101</ele>
        <time>2017-10-15T08:37:28.000Z</time>
      </trkpt>
      <trkpt lat="47.849" lon="2.2021">
        <ele>101</ele>
        <time>2017-10-15T08:37:29.000Z</time>
      </trkpt>
      <trkpt lat="47.84928" lon="2.20266">
        <ele>101</ele>
        <time>2017-10-15T08:37:36.000Z</time>
      </trkpt>
      <trkpt lat="47.84932" lon="2.20273">
        <ele>101</ele>
        <time>2017-10-15T08:37:37.000Z</time>
      </trkpt>
      <trkpt lat="47.84967" lon="2.20327">
        <ele>101</ele>
        <time>2017-10-15T08:37:45.000Z</time>
      </trkpt>
      <trkpt lat="47.8497" lon="2.20335">
        <ele>101</ele>
        <time>2017-10-15T08:37:46.000Z</time>
      </trkpt>
      <trkpt lat="47.85" lon="2.20386">
        <ele>101</ele>
        <time>2017-10-15T08:37:53.000Z</time>
      </trkpt>
      <trkpt lat="47.85004" lon="2.20394">
        <ele>101</ele>
        <time>2017-10-15T08:37:54.000Z</time>
      </trkpt>
      <trkpt lat="47.85027" lon="2.20428">
        <ele>101</ele>
        <time>2017-10-15T08:37:59.000Z</time>
      </trkpt>
      <trkpt lat="47.85062" lon="2.20478">
        <ele>101</ele>
        <time>2017-10-15T08:38:06.000Z</time>
      </trkpt>
      <trkpt lat="47.85067" lon="2.20485">
        <ele>101</ele>
        <time>2017-10-15T08:38:07.000Z</time>
      </trkpt>
      <trkpt lat="47.85098" lon="2.20522">
        <ele>100</ele>
        <time>2017-10-15T08:38:13.000Z</time>
      </trkpt>
      <trkpt lat="47.85103" lon="2.20526">
        <ele>100</ele>
        <time>2017-10-15T08:38:14.000Z</time>
      </trkpt>
      <trkpt lat="47.85108" lon="2.20532">
        <ele>100</ele>
        <time>2017-10-15T08:38:15.000Z</time>
      </trkpt>
      <trkpt lat="47.8513" lon="2.20571">
        <ele>100</ele>
        <time>2017-10-15T08:38:21.000Z</time>
      </trkpt>
      <trkpt lat="47.85161" lon="2.20632">
        <ele>99</ele>
        <time>2017-10-15T08:38:29.000Z</time>
      </trkpt>
      <trkpt lat="47.85165" lon="2.20639">
        <ele>98</ele>
        <time>2017-10-15T08:38:30.000Z</time>
      </trkpt>
      <trkpt lat="47.85176" lon="2.20662">
        <ele>98</ele>
        <time>2017-10-15T08:38:33.000Z</time>
      </trkpt>
      <trkpt lat="47.85206" lon="2.20723">
        <ele>98</ele>
        <time>2017-10-15T08:38:41.000Z</time>
      </trkpt>
      <trkpt lat="47.85209" lon="2.20729">
        <ele>98</ele>
        <time>2017-10-15T08:38:42.000Z</time>
      </trkpt>
      <trkpt lat="47.85227" lon="2.20754">
        <ele>98</ele>
        <time>2017-10-15T08:38:46.000Z</time>
      </trkpt>
      <trkpt lat="47.85238" lon="2.20778">
        <ele>98</ele>
        <time>2017-10-15T08:38:49.000Z</time>
      </trkpt>
      <trkpt lat="47.85252" lon="2.20819">
        <ele>97</ele>
        <time>2017-10-15T08:38:54.000Z</time>
      </trkpt>
      <trkpt lat="47.85255" lon="2.2086">
        <ele>98</ele>
        <time>2017-10-15T08:38:59.000Z</time>
      </trkpt>
      <trkpt lat="47.85254" lon="2.20869">
        <ele>98</ele>
        <time>2017-10-15T08:39:01.000Z</time>
      </trkpt>
      <trkpt lat="47.85256" lon="2.20878">
        <ele>98</ele>
        <time>2017-10-15T08:39:03.000Z</time>
      </trkpt>
      <trkpt lat="47.85285" lon="2.20933">
        <ele>101</ele>
        <time>2017-10-15T08:39:11.000Z</time>
      </trkpt>
      <trkpt lat="47.85287" lon="2.20941">
        <ele>101</ele>
        <time>2017-10-15T08:39:12.000Z</time>
      </trkpt>
      <trkpt lat="47.85295" lon="2.20969">
        <ele>103</ele>
        <time>2017-10-15T08:39:16.000Z</time>
      </trkpt>
      <trkpt lat="47.85327" lon="2.21028">
        <ele>104</ele>
        <time>2017-10-15T08:39:25.000Z</time>
      </trkpt>
      <trkpt lat="47.85331" lon="2.21035">
        <ele>104</ele>
        <time>2017-10-15T08:39:26.000Z</time>
      </trkpt>
      <trkpt lat="47.85363" lon="2.2109">
        <ele>103</ele>
        <time>2017-10-15T08:39:34.000Z</time>
      </trkpt>
      <trkpt lat="47.85367" lon="2.21097">
        <ele>103</ele>
        <time>2017-10-15T08:39:35.000Z</time>
      </trkpt>
      <trkpt lat="47.85395" lon="2.21157">
        <ele>103</ele>
        <time>2017-10-15T08:39:43.000Z</time>
      </trkpt>
      <trkpt lat="47.85399" lon="2.21165">
        <ele>103</ele>
        <time>2017-10-15T08:39:44.000Z</time>
      </trkpt>
      <trkpt lat="47.85419" lon="2.21211">
        <ele>102</ele>
        <time>2017-10-15T08:39:50.000Z</time>
      </trkpt>
      <trkpt lat="47.85442" lon="2.21276">
        <ele>103</ele>
        <time>2017-10-15T08:39:58.000Z</time>
      </trkpt>
      <trkpt lat="47.85444" lon="2.21284">
        <ele>103</ele>
        <time>2017-10-15T08:39:59.000Z</time>
      </trkpt>
      <trkpt lat="47.85466" lon="2.21349">
        <ele>104</ele>
        <time>2017-10-15T08:40:07.000Z</time>
      </trkpt>
      <trkpt lat="47.85469" lon="2.21357">
        <ele>104</ele>
        <time>2017-10-15T08:40:08.000Z</time>
      </trkpt>
      <trkpt lat="47.8549" lon="2.21421">
        <ele>105</ele>
        <time>2017-10-15T08:40:16.000Z</time>
      </trkpt>
      <trkpt lat="47.85492" lon="2.21429">
        <ele>105</ele>
        <time>2017-10-15T08:40:17.000Z</time>
      </trkpt>
      <trkpt lat="47.85511" lon="2.21492">
        <ele>105</ele>
        <time>2017-10-15T08:40:25.000Z</time>
      </trkpt>
      <trkpt lat="47.85513" lon="2.21499">
        <ele>105</ele>
        <time>2017-10-15T08:40:26.000Z</time>
      </trkpt>
      <trkpt lat="47.85525" lon="2.2155">
        <ele>105</ele>
        <time>2017-10-15T08:40:32.000Z</time>
      </trkpt>
      <trkpt lat="47.85534" lon="2.216">
        <ele>106</ele>
        <time>2017-10-15T08:40:38.000Z</time>
      </trkpt>
      <trkpt lat="47.85548" lon="2.21669">
        <ele>104</ele>
        <time>2017-10-15T08:40:47.000Z</time>
      </trkpt>
      <trkpt lat="47.8555" lon="2.21676">
        <ele>104</ele>
        <time>2017-10-15T08:40:48.000Z</time>
      </trkpt>
      <trkpt lat="47.85559" lon="2.21708">
        <ele>104</ele>
        <time>2017-10-15T08:40:52.000Z</time>
      </trkpt>
      <trkpt lat="47.85565" lon="2.21723">
        <ele>104</ele>
        <time>2017-10-15T08:40:54.000Z</time>
      </trkpt>
      <trkpt lat="47.85581" lon="2.21787">
        <ele>104</ele>
        <time>2017-10-15T08:41:02.000Z</time>
      </trkpt>
      <trkpt lat="47.85583" lon="2.21795">
        <ele>104</ele>
        <time>2017-10-15T08:41:03.000Z</time>
      </trkpt>
      <trkpt lat="47.85595" lon="2.21856">
        <ele>103</ele>
        <time>2017-10-15T08:41:10.000Z</time>
      </trkpt>
      <trkpt lat="47.85597" lon="2.21865">
        <ele>102</ele>
        <time>2017-10-15T08:41:11.000Z</time>
      </trkpt>
      <trkpt lat="47.85609" lon="2.2194">
        <ele>100</ele>
        <time>2017-10-15T08:41:19.000Z</time>
      </trkpt>
      <trkpt lat="47.8561" lon="2.21948">
        <ele>100</ele>
        <time>2017-10-15T08:41:20.000Z</time>
      </trkpt>
      <trkpt lat="47.85618" lon="2.22015">
        <ele>100</ele>
        <time>2017-10-15T08:41:27.000Z</time>
      </trkpt>
      <trkpt lat="47.85619" lon="2.22024">
        <ele>100</ele>
        <time>2017-10-15T08:41:28.000Z</time>
      </trkpt>
      <trkpt lat="47.85624" lon="2.22079">
        <ele>101</ele>
        <time>2017-10-15T08:41:34.000Z</time>
      </trkpt>
      <trkpt lat="47.8563" lon="2.22151">
        <ele>103</ele>
        <time>2017-10-15T08:41:42.000Z</time>
      </trkpt>
      <trkpt lat="47.85631" lon="2.2216">
        <ele>103</ele>
        <time>2017-10-15T08:41:43.000Z</time>
      </trkpt>
      <trkpt lat="47.85632" lon="2.22233">
        <ele>104</ele>
        <time>2017-10-15T08:41:51.000Z</time>
      </trkpt>
      <trkpt lat="47.85632" lon="2.22242">
        <ele>104</ele>
        <time>2017-10-15T08:41:52.000Z</time>
      </trkpt>
      <trkpt lat="47.8563" lon="2.22261">
        <ele>104</ele>
        <time>2017-10-15T08:41:54.000Z</time>
      </trkpt>
      <trkpt lat="47.85622" lon="2.2232">
        <ele>104</ele>
        <time>2017-10-15T08:42:01.000Z</time>
      </trkpt>
      <trkpt lat="47.85619" lon="2.22338">
        <ele>104</ele>
        <time>2017-10-15T08:42:04.000Z</time>
      </trkpt>
      <trkpt lat="47.8562" lon="2.22355">
        <ele>105</ele>
        <time>2017-10-15T08:42:08.000Z</time>
      </trkpt>
      <trkpt lat="47.85625" lon="2.22359">
        <ele>105</ele>
        <time>2017-10-15T08:42:10.000Z</time>
      </trkpt>
      <trkpt lat="47.85671" lon="2.22358">
        <ele>106</ele>
        <time>2017-10-15T08:42:20.000Z</time>
      </trkpt>
      <trkpt lat="47.85676" lon="2.22357">
        <ele>106</ele>
        <time>2017-10-15T08:42:21.000Z</time>
      </trkpt>
      <trkpt lat="47.85726" lon="2.22353">
        <ele>109</ele>
        <time>2017-10-15T08:42:29.000Z</time>
      </trkpt>
      <trkpt lat="47.85732" lon="2.22353">
        <ele>109</ele>
        <time>2017-10-15T08:42:30.000Z</time>
      </trkpt>
      <trkpt lat="47.85781" lon="2.22349">
        <ele>111</ele>
        <time>2017-10-15T08:42:38.000Z</time>
      </trkpt>
      <trkpt lat="47.85787" lon="2.22348">
        <ele>111</ele>
        <time>2017-10-15T08:42:39.000Z</time>
      </trkpt>
      <trkpt lat="47.85837" lon="2.22343">
        <ele>111</ele>
        <time>2017-10-15T08:42:47.000Z</time>
      </trkpt>
      <trkpt lat="47.85843" lon="2.22343">
        <ele>111</ele>
        <time>2017-10-15T08:42:48.000Z</time>
      </trkpt>
      <trkpt lat="47.85894" lon="2.22337">
        <ele>111</ele>
        <time>2017-10-15T08:42:56.000Z</time>
      </trkpt>
      <trkpt lat="47.859" lon="2.22337">
        <ele>111</ele>
        <time>2017-10-15T08:42:57.000Z</time>
      </trkpt>
      <trkpt lat="47.8595" lon="2.22333">
        <ele>110</ele>
        <time>2017-10-15T08:43:05.000Z</time>
      </trkpt>
      <trkpt lat="47.85956" lon="2.22333">
        <ele>110</ele>
        <time>2017-10-15T08:43:06.000Z</time>
      </trkpt>
      <trkpt lat="47.8599" lon="2.22333">
        <ele>109</ele>
        <time>2017-10-15T08:43:12.000Z</time>
      </trkpt>
      <trkpt lat="47.85993" lon="2.22346">
        <ele>109</ele>
        <time>2017-10-15T08:43:14.000Z</time>
      </trkpt>
      <trkpt lat="47.85992" lon="2.2238">
        <ele>108</ele>
        <time>2017-10-15T08:43:18.000Z</time>
      </trkpt>
      <trkpt lat="47.85993" lon="2.22451">
        <ele>108</ele>
        <time>2017-10-15T08:43:26.000Z</time>
      </trkpt>
      <trkpt lat="47.85994" lon="2.2246">
        <ele>108</ele>
        <time>2017-10-15T08:43:27.000Z</time>
      </trkpt>
      <trkpt lat="47.85995" lon="2.2253">
        <ele>108</ele>
        <time>2017-10-15T08:43:35.000Z</time>
      </trkpt>
      <trkpt lat="47.85994" lon="2.22539">
        <ele>108</ele>
        <time>2017-10-15T08:43:36.000Z</time>
      </trkpt>
      <trkpt lat="47.85994" lon="2.22612">
        <ele>107</ele>
        <time>2017-10-15T08:43:44.000Z</time>
      </trkpt>
      <trkpt lat="47.85993" lon="2.22622">
        <ele>106</ele>
        <time>2017-10-15T08:43:45.000Z</time>
      </trkpt>
      <trkpt lat="47.85987" lon="2.22696">
        <ele>104</ele>
        <time>2017-10-15T08:43:53.000Z</time>
      </trkpt>
      <trkpt lat="47.85986" lon="2.22705">
        <ele>104</ele>
        <time>2017-10-15T08:43:54.000Z</time>
      </trkpt>
      <trkpt lat="47.85981" lon="2.22775">
        <ele>102</ele>
        <time>2017-10-15T08:44:02.000Z</time>
      </trkpt>
      <trkpt lat="47.8598" lon="2.22785">
        <ele>102</ele>
        <time>2017-10-15T08:44:03.000Z</time>
      </trkpt>
      <trkpt lat="47.85974" lon="2.22856">
        <ele>102</ele>
        <time>2017-10-15T08:44:10.000Z</time>
      </trkpt>
      <trkpt lat="47.85973" lon="2.22866">
        <ele>102</ele>
        <time>2017-10-15T08:44:11.000Z</time>
      </trkpt>
      <trkpt lat="47.85969" lon="2.22908">
        <ele>103</ele>
        <time>2017-10-15T08:44:15.000Z</time>
      </trkpt>
      <trkpt lat="47.85955" lon="2.22974">
        <ele>105</ele>
        <time>2017-10-15T08:44:22.000Z</time>
      </trkpt>
      <trkpt lat="47.85953" lon="2.22984">
        <ele>105</ele>
        <time>2017-10-15T08:44:23.000Z</time>
      </trkpt>
      <trkpt lat="47.85937" lon="2.23056">
        <ele>105</ele>
        <time>2017-10-15T08:44:31.000Z</time>
      </trkpt>
      <trkpt lat="47.85935" lon="2.23065">
        <ele>105</ele>
        <time>2017-10-15T08:44:32.000Z</time>
      </trkpt>
      <trkpt lat="47.85919" lon="2.23137">
        <ele>106</ele>
        <time>2017-10-15T08:44:40.000Z</time>
      </trkpt>
      <trkpt lat="47.85918" lon="2.23147">
        <ele>107</ele>
        <time>2017-10-15T08:44:41.000Z</time>
      </trkpt>
      <trkpt lat="47.85904" lon="2.23218">
        <ele>107</ele>
        <time>2017-10-15T08:44:49.000Z</time>
      </trkpt>
      <trkpt lat="47.85902" lon="2.23227">
        <ele>107</ele>
        <time>2017-10-15T08:44:50.000Z</time>
      </trkpt>
      <trkpt lat="47.85888" lon="2.23295">
        <ele>107</ele>
        <time>2017-10-15T08:44:58.000Z</time>
      </trkpt>
      <trkpt lat="47.85887" lon="2.23304">
        <ele>107</ele>
        <time>2017-10-15T08:44:59.000Z</time>
      </trkpt>
      <trkpt lat="47.85872" lon="2.23376">
        <ele>108</ele>
        <time>2017-10-15T08:45:08.000Z</time>
      </trkpt>
      <trkpt lat="47.85871" lon="2.23384">
        <ele>107</ele>
        <time>2017-10-15T08:45:09.000Z</time>
      </trkpt>
      <trkpt lat="47.85855" lon="2.23455">
        <ele>108</ele>
        <time>2017-10-15T08:45:17.000Z</time>
      </trkpt>
      <trkpt lat="47.85853" lon="2.23464">
        <ele>108</ele>
        <time>2017-10-15T08:45:18.000Z</time>
      </trkpt>
      <trkpt lat="47.85839" lon="2.23532">
        <ele>110</ele>
        <time>2017-10-15T08:45:26.000Z</time>
      </trkpt>
      <trkpt lat="47.85837" lon="2.2354">
        <ele>110</ele>
        <time>2017-10-15T08:45:27.000Z</time>
      </trkpt>
      <trkpt lat="47.85824" lon="2.23609">
        <ele>107</ele>
        <time>2017-10-15T08:45:36.000Z</time>
      </trkpt>
      <trkpt lat="47.85823" lon="2.23617">
        <ele>106</ele>
        <time>2017-10-15T08:45:37.000Z</time>
      </trkpt>
      <trkpt lat="47.85822" lon="2.23632">
        <ele>105</ele>
        <time>2017-10-15T08:45:39.000Z</time>
      </trkpt>
      <trkpt lat="47.85817" lon="2.23657">
        <ele>105</ele>
        <time>2017-10-15T08:45:43.000Z</time>
      </trkpt>
      <trkpt lat="47.85802" lon="2.23722">
        <ele>105</ele>
        <time>2017-10-15T08:45:53.000Z</time>
      </trkpt>
      <trkpt lat="47.858" lon="2.23729">
        <ele>105</ele>
        <time>2017-10-15T08:45:54.000Z</time>
      </trkpt>
      <trkpt lat="47.85782" lon="2.23793">
        <ele>107</ele>
        <time>2017-10-15T08:46:05.000Z</time>
      </trkpt>
      <trkpt lat="47.85781" lon="2.23799">
        <ele>107</ele>
        <time>2017-10-15T08:46:06.000Z</time>
      </trkpt>
      <trkpt lat="47.85773" lon="2.23837">
        <ele>107</ele>
        <time>2017-10-15T08:46:12.000Z</time>
      </trkpt>
      <trkpt lat="47.8577" lon="2.23893">
        <ele>107</ele>
        <time>2017-10-15T08:46:19.000Z</time>
      </trkpt>
      <trkpt lat="47.85775" lon="2.23961">
        <ele>107</ele>
        <time>2017-10-15T08:46:27.000Z</time>
      </trkpt>
      <trkpt lat="47.85776" lon="2.2397">
        <ele>107</ele>
        <time>2017-10-15T08:46:28.000Z</time>
      </trkpt>
      <trkpt lat="47.85779" lon="2.23985">
        <ele>107</ele>
        <time>2017-10-15T08:46:30.000Z</time>
      </trkpt>
      <trkpt lat="47.85788" lon="2.23991">
        <ele>107</ele>
        <time>2017-10-15T08:46:32.000Z</time>
      </trkpt>
      <trkpt lat="47.85822" lon="2.23994">
        <ele>110</ele>
        <time>2017-10-15T08:46:39.000Z</time>
      </trkpt>
      <trkpt lat="47.85842" lon="2.23987">
        <ele>112</ele>
        <time>2017-10-15T08:46:44.000Z</time>
      </trkpt>
      <trkpt lat="47.85849" lon="2.23989">
        <ele>113</ele>
        <time>2017-10-15T08:46:46.000Z</time>
      </trkpt>
      <trkpt lat="47.85876" lon="2.24007">
        <ele>117</ele>
        <time>2017-10-15T08:46:55.000Z</time>
      </trkpt>
      <trkpt lat="47.85921" lon="2.2402">
        <ele>118</ele>
        <time>2017-10-15T08:47:08.000Z</time>
      </trkpt>
      <trkpt lat="47.85924" lon="2.24021">
        <ele>119</ele>
        <time>2017-10-15T08:47:09.000Z</time>
      </trkpt>
      <trkpt lat="47.85968" lon="2.24042">
        <ele>121</ele>
        <time>2017-10-15T08:47:20.000Z</time>
      </trkpt>
      <trkpt lat="47.85972" lon="2.24043">
        <ele>122</ele>
        <time>2017-10-15T08:47:21.000Z</time>
      </trkpt>
      <trkpt lat="47.86" lon="2.24055">
        <ele>122</ele>
        <time>2017-10-15T08:47:31.000Z</time>
      </trkpt>
      <trkpt lat="47.86014" lon="2.24057">
        <ele>122</ele>
        <time>2017-10-15T08:47:35.000Z</time>
      </trkpt>
      <trkpt lat="47.86058" lon="2.24074">
        <ele>123</ele>
        <time>2017-10-15T08:47:46.000Z</time>
      </trkpt>
      <trkpt lat="47.86063" lon="2.24076">
        <ele>123</ele>
        <time>2017-10-15T08:47:47.000Z</time>
      </trkpt>
      <trkpt lat="47.8611" lon="2.24097">
        <ele>123</ele>
        <time>2017-10-15T08:47:59.000Z</time>
      </trkpt>
      <trkpt lat="47.86115" lon="2.24099">
        <ele>122</ele>
        <time>2017-10-15T08:48:00.000Z</time>
      </trkpt>
      <trkpt lat="47.86159" lon="2.24121">
        <ele>121</ele>
        <time>2017-10-15T08:48:09.000Z</time>
      </trkpt>
      <trkpt lat="47.86164" lon="2.24124">
        <ele>121</ele>
        <time>2017-10-15T08:48:10.000Z</time>
      </trkpt>
      <trkpt lat="47.86209" lon="2.24147">
        <ele>121</ele>
        <time>2017-10-15T08:48:18.000Z</time>
      </trkpt>
      <trkpt lat="47.86215" lon="2.2415">
        <ele>121</ele>
        <time>2017-10-15T08:48:19.000Z</time>
      </trkpt>
      <trkpt lat="47.86262" lon="2.24171">
        <ele>121</ele>
        <time>2017-10-15T08:48:26.000Z</time>
      </trkpt>
      <trkpt lat="47.86268" lon="2.24174">
        <ele>121</ele>
        <time>2017-10-15T08:48:27.000Z</time>
      </trkpt>
      <trkpt lat="47.86315" lon="2.24201">
        <ele>121</ele>
        <time>2017-10-15T08:48:35.000Z</time>
      </trkpt>
      <trkpt lat="47.8632" lon="2.24204">
        <ele>121</ele>
        <time>2017-10-15T08:48:36.000Z</time>
      </trkpt>
      <trkpt lat="47.86366" lon="2.24228">
        <ele>122</ele>
        <time>2017-10-15T08:48:44.000Z</time>
      </trkpt>
      <trkpt lat="47.86372" lon="2.24232">
        <ele>122</ele>
        <time>2017-10-15T08:48:45.000Z</time>
      </trkpt>
      <trkpt lat="47.86417" lon="2.24257">
        <ele>122</ele>
        <time>2017-10-15T08:48:53.000Z</time>
      </trkpt>
      <trkpt lat="47.86423" lon="2.24261">
        <ele>122</ele>
        <time>2017-10-15T08:48:54.000Z</time>
      </trkpt>
      <trkpt lat="47.86468" lon="2.24285">
        <ele>121</ele>
        <time>2017-10-15T08:49:02.000Z</time>
      </trkpt>
      <trkpt lat="47.86474" lon="2.24288">
        <ele>121</ele>
        <time>2017-10-15T08:49:03.000Z</time>
      </trkpt>
      <trkpt lat="47.86497" lon="2.24294">
        <ele>122</ele>
        <time>2017-10-15T08:49:07.000Z</time>
      </trkpt>
      <trkpt lat="47.86545" lon="2.243">
        <ele>123</ele>
        <time>2017-10-15T08:49:15.000Z</time>
      </trkpt>
      <trkpt lat="47.86551" lon="2.243">
        <ele>124</ele>
        <time>2017-10-15T08:49:16.000Z</time>
      </trkpt>
      <trkpt lat="47.866" lon="2.24295">
        <ele>127</ele>
        <time>2017-10-15T08:49:24.000Z</time>
      </trkpt>
      <trkpt lat="47.86606" lon="2.24294">
        <ele>127</ele>
        <time>2017-10-15T08:49:25.000Z</time>
      </trkpt>
      <trkpt lat="47.86621" lon="2.24294">
        <ele>128</ele>
        <time>2017-10-15T08:49:28.000Z</time>
      </trkpt>
      <trkpt lat="47.86633" lon="2.24299">
        <ele>128</ele>
        <time>2017-10-15T08:49:31.000Z</time>
      </trkpt>
      <trkpt lat="47.86639" lon="2.24309">
        <ele>128</ele>
        <time>2017-10-15T08:49:33.000Z</time>
      </trkpt>
      <trkpt lat="47.86639" lon="2.24343">
        <ele>127</ele>
        <time>2017-10-15T08:49:38.000Z</time>
      </trkpt>
      <trkpt lat="47.86623" lon="2.24401">
        <ele>128</ele>
        <time>2017-10-15T08:49:47.000Z</time>
      </trkpt>
      <trkpt lat="47.8662" lon="2.24406">
        <ele>128</ele>
        <time>2017-10-15T08:49:48.000Z</time>
      </trkpt>
      <trkpt lat="47.86605" lon="2.24426">
        <ele>128</ele>
        <time>2017-10-15T08:49:52.000Z</time>
      </trkpt>
      <trkpt lat="47.86586" lon="2.24457">
        <ele>129</ele>
        <time>2017-10-15T08:49:57.000Z</time>
      </trkpt>
      <trkpt lat="47.86555" lon="2.24514">
        <ele>132</ele>
        <time>2017-10-15T08:50:05.000Z</time>
      </trkpt>
      <trkpt lat="47.86552" lon="2.24521">
        <ele>132</ele>
        <time>2017-10-15T08:50:06.000Z</time>
      </trkpt>
      <trkpt lat="47.86549" lon="2.2453">
        <ele>132</ele>
        <time>2017-10-15T08:50:07.000Z</time>
      </trkpt>
      <trkpt lat="47.86525" lon="2.24589">
        <ele>130</ele>
        <time>2017-10-15T08:50:14.000Z</time>
      </trkpt>
      <trkpt lat="47.86522" lon="2.24598">
        <ele>130</ele>
        <time>2017-10-15T08:50:15.000Z</time>
      </trkpt>
      <trkpt lat="47.86501" lon="2.24659">
        <ele>129</ele>
        <time>2017-10-15T08:50:22.000Z</time>
      </trkpt>
      <trkpt lat="47.86499" lon="2.24667">
        <ele>129</ele>
        <time>2017-10-15T08:50:23.000Z</time>
      </trkpt>
      <trkpt lat="47.86478" lon="2.24734">
        <ele>128</ele>
        <time>2017-10-15T08:50:31.000Z</time>
      </trkpt>
      <trkpt lat="47.86476" lon="2.24742">
        <ele>127</ele>
        <time>2017-10-15T08:50:32.000Z</time>
      </trkpt>
      <trkpt lat="47.86474" lon="2.2475">
        <ele>127</ele>
        <time>2017-10-15T08:50:33.000Z</time>
      </trkpt>
      <trkpt lat="47.86457" lon="2.24814">
        <ele>127</ele>
        <time>2017-10-15T08:50:41.000Z</time>
      </trkpt>
      <trkpt lat="47.86455" lon="2.24822">
        <ele>127</ele>
        <time>2017-10-15T08:50:42.000Z</time>
      </trkpt>
      <trkpt lat="47.86438" lon="2.24889">
        <ele>126</ele>
        <time>2017-10-15T08:50:50.000Z</time>
      </trkpt>
      <trkpt lat="47.86436" lon="2.24897">
        <ele>126</ele>
        <time>2017-10-15T08:50:51.000Z</time>
      </trkpt>
      <trkpt lat="47.86419" lon="2.24964">
        <ele>125</ele>
        <time>2017-10-15T08:50:59.000Z</time>
      </trkpt>
      <trkpt lat="47.86417" lon="2.24973">
        <ele>125</ele>
        <time>2017-10-15T08:51:00.000Z</time>
      </trkpt>
      <trkpt lat="47.86398" lon="2.2504">
        <ele>124</ele>
        <time>2017-10-15T08:51:08.000Z</time>
      </trkpt>
      <trkpt lat="47.86395" lon="2.25048">
        <ele>124</ele>
        <time>2017-10-15T08:51:09.000Z</time>
      </trkpt>
      <trkpt lat="47.86372" lon="2.25111">
        <ele>124</ele>
        <time>2017-10-15T08:51:17.000Z</time>
      </trkpt>
      <trkpt lat="47.86369" lon="2.25119">
        <ele>124</ele>
        <time>2017-10-15T08:51:18.000Z</time>
      </trkpt>
      <trkpt lat="47.86358" lon="2.25144">
        <ele>124</ele>
        <time>2017-10-15T08:51:21.000Z</time>
      </trkpt>
      <trkpt lat="47.8633" lon="2.25204">
        <ele>124</ele>
        <time>2017-10-15T08:51:29.000Z</time>
      </trkpt>
      <trkpt lat="47.86326" lon="2.25211">
        <ele>124</ele>
        <time>2017-10-15T08:51:30.000Z</time>
      </trkpt>
      <trkpt lat="47.86314" lon="2.25233">
        <ele>125</ele>
        <time>2017-10-15T08:51:33.000Z</time>
      </trkpt>
      <trkpt lat="47.86283" lon="2.25285">
        <ele>125</ele>
        <time>2017-10-15T08:51:40.000Z</time>
      </trkpt>
      <trkpt lat="47.86279" lon="2.25292">
        <ele>125</ele>
        <time>2017-10-15T08:51:41.000Z</time>
      </trkpt>
      <trkpt lat="47.86247" lon="2.25344">
        <ele>124</ele>
        <time>2017-10-15T08:51:48.000Z</time>
      </trkpt>
      <trkpt lat="47.86243" lon="2.25352">
        <ele>124</ele>
        <time>2017-10-15T08:51:49.000Z</time>
      </trkpt>
      <trkpt lat="47.86219" lon="2.25393">
        <ele>124</ele>
        <time>2017-10-15T08:51:55.000Z</time>
      </trkpt>
      <trkpt lat="47.86223" lon="2.25406">
        <ele>124</ele>
        <time>2017-10-15T08:51:57.000Z</time>
      </trkpt>
      <trkpt lat="47.86235" lon="2.25422">
        <ele>124</ele>
        <time>2017-10-15T08:52:00.000Z</time>
      </trkpt>
      <trkpt lat="47.86262" lon="2.25479">
        <ele>124</ele>
        <time>2017-10-15T08:52:08.000Z</time>
      </trkpt>
      <trkpt lat="47.86264" lon="2.25486">
        <ele>123</ele>
        <time>2017-10-15T08:52:09.000Z</time>
      </trkpt>
      <trkpt lat="47.86285" lon="2.25546">
        <ele>123</ele>
        <time>2017-10-15T08:52:17.000Z</time>
      </trkpt>
      <trkpt lat="47.86287" lon="2.25554">
        <ele>123</ele>
        <time>2017-10-15T08:52:18.000Z</time>
      </trkpt>
      <trkpt lat="47.86292" lon="2.25577">
        <ele>122</ele>
        <time>2017-10-15T08:52:21.000Z</time>
      </trkpt>
      <trkpt lat="47.86289" lon="2.25592">
        <ele>122</ele>
        <time>2017-10-15T08:52:23.000Z</time>
      </trkpt>
      <trkpt lat="47.86269" lon="2.25661">
        <ele>123</ele>
        <time>2017-10-15T08:52:32.000Z</time>
      </trkpt>
      <trkpt lat="47.86267" lon="2.25669">
        <ele>123</ele>
        <time>2017-10-15T08:52:33.000Z</time>
      </trkpt>
      <trkpt lat="47.86257" lon="2.25714">
        <ele>123</ele>
        <time>2017-10-15T08:52:39.000Z</time>
      </trkpt>
      <trkpt lat="47.8624" lon="2.25783">
        <ele>123</ele>
        <time>2017-10-15T08:52:48.000Z</time>
      </trkpt>
      <trkpt lat="47.86238" lon="2.25791">
        <ele>123</ele>
        <time>2017-10-15T08:52:49.000Z</time>
      </trkpt>
      <trkpt lat="47.86235" lon="2.25799">
        <ele>123</ele>
        <time>2017-10-15T08:52:50.000Z</time>
      </trkpt>
      <trkpt lat="47.86219" lon="2.25857">
        <ele>123</ele>
        <time>2017-10-15T08:52:58.000Z</time>
      </trkpt>
      <trkpt lat="47.86217" lon="2.25862">
        <ele>123</ele>
        <time>2017-10-15T08:52:59.000Z</time>
      </trkpt>
      <trkpt lat="47.86217" lon="2.25866">
        <ele>124</ele>
        <time>2017-10-15T08:53:00.000Z</time>
      </trkpt>
      <trkpt lat="47.86224" lon="2.25874">
        <ele>124</ele>
        <time>2017-10-15T08:53:03.000Z</time>
      </trkpt>
      <trkpt lat="47.8624" lon="2.25891">
        <ele>124</ele>
        <time>2017-10-15T08:53:08.000Z</time>
      </trkpt>
      <trkpt lat="47.86238" lon="2.25905">
        <ele>123</ele>
        <time>2017-10-15T08:53:10.000Z</time>
      </trkpt>
      <trkpt lat="47.86213" lon="2.2597">
        <ele>124</ele>
        <time>2017-10-15T08:53:19.000Z</time>
      </trkpt>
      <trkpt lat="47.86211" lon="2.25978">
        <ele>124</ele>
        <time>2017-10-15T08:53:20.000Z</time>
      </trkpt>
      <trkpt lat="47.86206" lon="2.25993">
        <ele>124</ele>
        <time>2017-10-15T08:53:22.000Z</time>
      </trkpt>
      <trkpt lat="47.86189" lon="2.26058">
        <ele>125</ele>
        <time>2017-10-15T08:53:30.000Z</time>
      </trkpt>
      <trkpt lat="47.86187" lon="2.26066">
        <ele>126</ele>
        <time>2017-10-15T08:53:31.000Z</time>
      </trkpt>
      <trkpt lat="47.86168" lon="2.26135">
        <ele>126</ele>
        <time>2017-10-15T08:53:39.000Z</time>
      </trkpt>
      <trkpt lat="47.86166" lon="2.26144">
        <ele>126</ele>
        <time>2017-10-15T08:53:40.000Z</time>
      </trkpt>
      <trkpt lat="47.86149" lon="2.26207">
        <ele>126</ele>
        <time>2017-10-15T08:53:48.000Z</time>
      </trkpt>
      <trkpt lat="47.86148" lon="2.26215">
        <ele>126</ele>
        <time>2017-10-15T08:53:49.000Z</time>
      </trkpt>
      <trkpt lat="47.86153" lon="2.26225">
        <ele>126</ele>
        <time>2017-10-15T08:53:51.000Z</time>
      </trkpt>
      <trkpt lat="47.86198" lon="2.26254">
        <ele>124</ele>
        <time>2017-10-15T08:54:01.000Z</time>
      </trkpt>
      <trkpt lat="47.86203" lon="2.26257">
        <ele>124</ele>
        <time>2017-10-15T08:54:02.000Z</time>
      </trkpt>
      <trkpt lat="47.86251" lon="2.26283">
        <ele>123</ele>
        <time>2017-10-15T08:54:11.000Z</time>
      </trkpt>
      <trkpt lat="47.86256" lon="2.26285">
        <ele>123</ele>
        <time>2017-10-15T08:54:12.000Z</time>
      </trkpt>
      <trkpt lat="47.86301" lon="2.26306">
        <ele>122</ele>
        <time>2017-10-15T08:54:20.000Z</time>
      </trkpt>
      <trkpt lat="47.86307" lon="2.26308">
        <ele>122</ele>
        <time>2017-10-15T08:54:21.000Z</time>
      </trkpt>
      <trkpt lat="47.86323" lon="2.26314">
        <ele>122</ele>
        <time>2017-10-15T08:54:24.000Z</time>
      </trkpt>
      <trkpt lat="47.86333" lon="2.26311">
        <ele>122</ele>
        <time>2017-10-15T08:54:26.000Z</time>
      </trkpt>
      <trkpt lat="47.86349" lon="2.26293">
        <ele>122</ele>
        <time>2017-10-15T08:54:30.000Z</time>
      </trkpt>
      <trkpt lat="47.86366" lon="2.26256">
        <ele>122</ele>
        <time>2017-10-15T08:54:35.000Z</time>
      </trkpt>
      <trkpt lat="47.86385" lon="2.26197">
        <ele>122</ele>
        <time>2017-10-15T08:54:42.000Z</time>
      </trkpt>
      <trkpt lat="47.86387" lon="2.26189">
        <ele>122</ele>
        <time>2017-10-15T08:54:43.000Z</time>
      </trkpt>
      <trkpt lat="47.8639" lon="2.26186">
        <ele>122</ele>
        <time>2017-10-15T08:54:44.000Z</time>
      </trkpt>
      <trkpt lat="47.86398" lon="2.26187">
        <ele>121</ele>
        <time>2017-10-15T08:54:46.000Z</time>
      </trkpt>
      <trkpt lat="47.86442" lon="2.26215">
        <ele>119</ele>
        <time>2017-10-15T08:54:55.000Z</time>
      </trkpt>
      <trkpt lat="47.86448" lon="2.26218">
        <ele>119</ele>
        <time>2017-10-15T08:54:56.000Z</time>
      </trkpt>
      <trkpt lat="47.86495" lon="2.26247">
        <ele>121</ele>
        <time>2017-10-15T08:55:04.000Z</time>
      </trkpt>
      <trkpt lat="47.86501" lon="2.26251">
        <ele>121</ele>
        <time>2017-10-15T08:55:05.000Z</time>
      </trkpt>
      <trkpt lat="47.86544" lon="2.26278">
        <ele>120</ele>
        <time>2017-10-15T08:55:12.000Z</time>
      </trkpt>
      <trkpt lat="47.8655" lon="2.26281">
        <ele>120</ele>
        <time>2017-10-15T08:55:13.000Z</time>
      </trkpt>
      <trkpt lat="47.86594" lon="2.26306">
        <ele>119</ele>
        <time>2017-10-15T08:55:21.000Z</time>
      </trkpt>
      <trkpt lat="47.86598" lon="2.2631">
        <ele>119</ele>
        <time>2017-10-15T08:55:22.000Z</time>
      </trkpt>
      <trkpt lat="47.86601" lon="2.26316">
        <ele>118</ele>
        <time>2017-10-15T08:55:23.000Z</time>
      </trkpt>
      <trkpt lat="47.86609" lon="2.26349">
        <ele>118</ele>
        <time>2017-10-15T08:55:27.000Z</time>
      </trkpt>
      <trkpt lat="47.86623" lon="2.26416">
        <ele>118</ele>
        <time>2017-10-15T08:55:34.000Z</time>
      </trkpt>
      <trkpt lat="47.86626" lon="2.26426">
        <ele>118</ele>
        <time>2017-10-15T08:55:35.000Z</time>
      </trkpt>
      <trkpt lat="47.86639" lon="2.26494">
        <ele>119</ele>
        <time>2017-10-15T08:55:42.000Z</time>
      </trkpt>
      <trkpt lat="47.8664" lon="2.26503">
        <ele>119</ele>
        <time>2017-10-15T08:55:43.000Z</time>
      </trkpt>
      <trkpt lat="47.86652" lon="2.26571">
        <ele>120</ele>
        <time>2017-10-15T08:55:50.000Z</time>
      </trkpt>
      <trkpt lat="47.86653" lon="2.26582">
        <ele>120</ele>
        <time>2017-10-15T08:55:51.000Z</time>
      </trkpt>
      <trkpt lat="47.86665" lon="2.26651">
        <ele>121</ele>
        <time>2017-10-15T08:55:58.000Z</time>
      </trkpt>
      <trkpt lat="47.86665" lon="2.26659">
        <ele>121</ele>
        <time>2017-10-15T08:55:59.000Z</time>
      </trkpt>
      <trkpt lat="47.86658" lon="2.26685">
        <ele>121</ele>
        <time>2017-10-15T08:56:02.000Z</time>
      </trkpt>
      <trkpt lat="47.8663" lon="2.26748">
        <ele>122</ele>
        <time>2017-10-15T08:56:10.000Z</time>
      </trkpt>
      <trkpt lat="47.86626" lon="2.26757">
        <ele>122</ele>
        <time>2017-10-15T08:56:11.000Z</time>
      </trkpt>
      <trkpt lat="47.86601" lon="2.26814">
        <ele>124</ele>
        <time>2017-10-15T08:56:18.000Z</time>
      </trkpt>
      <trkpt lat="47.86597" lon="2.26822">
        <ele>124</ele>
        <time>2017-10-15T08:56:19.000Z</time>
      </trkpt>
      <trkpt lat="47.86584" lon="2.26846">
        <ele>124</ele>
        <time>2017-10-15T08:56:22.000Z</time>
      </trkpt>
      <trkpt lat="47.86545" lon="2.26896">
        <ele>124</ele>
        <time>2017-10-15T08:56:30.000Z</time>
      </trkpt>
      <trkpt lat="47.86541" lon="2.26902">
        <ele>124</ele>
        <time>2017-10-15T08:56:31.000Z</time>
      </trkpt>
      <trkpt lat="47.86502" lon="2.26951">
        <ele>123</ele>
        <time>2017-10-15T08:56:39.000Z</time>
      </trkpt>
      <trkpt lat="47.86497" lon="2.26958">
        <ele>123</ele>
        <time>2017-10-15T08:56:40.000Z</time>
      </trkpt>
      <trkpt lat="47.8646" lon="2.27006">
        <ele>122</ele>
        <time>2017-10-15T08:56:48.000Z</time>
      </trkpt>
      <trkpt lat="47.86457" lon="2.27012">
        <ele>122</ele>
        <time>2017-10-15T08:56:49.000Z</time>
      </trkpt>
      <trkpt lat="47.86454" lon="2.2702">
        <ele>122</ele>
        <time>2017-10-15T08:56:50.000Z</time>
      </trkpt>
      <trkpt lat="47.86456" lon="2.27037">
        <ele>122</ele>
        <time>2017-10-15T08:56:52.000Z</time>
      </trkpt>
      <trkpt lat="47.86475" lon="2.27102">
        <ele>121</ele>
        <time>2017-10-15T08:57:00.000Z</time>
      </trkpt>
      <trkpt lat="47.86477" lon="2.27111">
        <ele>121</ele>
        <time>2017-10-15T08:57:01.000Z</time>
      </trkpt>
      <trkpt lat="47.86477" lon="2.2712">
        <ele>121</ele>
        <time>2017-10-15T08:57:02.000Z</time>
      </trkpt>
      <trkpt lat="47.86475" lon="2.27158">
        <ele>120</ele>
        <time>2017-10-15T08:57:06.000Z</time>
      </trkpt>
      <trkpt lat="47.86462" lon="2.27204">
        <ele>121</ele>
        <time>2017-10-15T08:57:11.000Z</time>
      </trkpt>
      <trkpt lat="47.86439" lon="2.27259">
        <ele>123</ele>
        <time>2017-10-15T08:57:18.000Z</time>
      </trkpt>
      <trkpt lat="47.86435" lon="2.27266">
        <ele>123</ele>
        <time>2017-10-15T08:57:19.000Z</time>
      </trkpt>
      <trkpt lat="47.86417" lon="2.27299">
        <ele>124</ele>
        <time>2017-10-15T08:57:24.000Z</time>
      </trkpt>
      <trkpt lat="47.86412" lon="2.27326">
        <ele>125</ele>
        <time>2017-10-15T08:57:27.000Z</time>
      </trkpt>
      <trkpt lat="47.86405" lon="2.27394">
        <ele>125</ele>
        <time>2017-10-15T08:57:34.000Z</time>
      </trkpt>
      <trkpt lat="47.86404" lon="2.27404">
        <ele>125</ele>
        <time>2017-10-15T08:57:35.000Z</time>
      </trkpt>
      <trkpt lat="47.86397" lon="2.27475">
        <ele>125</ele>
        <time>2017-10-15T08:57:42.000Z</time>
      </trkpt>
      <trkpt lat="47.86396" lon="2.27485">
        <ele>125</ele>
        <time>2017-10-15T08:57:43.000Z</time>
      </trkpt>
      <trkpt lat="47.86388" lon="2.2756">
        <ele>126</ele>
        <time>2017-10-15T08:57:51.000Z</time>
      </trkpt>
      <trkpt lat="47.86387" lon="2.27569">
        <ele>126</ele>
        <time>2017-10-15T08:57:52.000Z</time>
      </trkpt>
      <trkpt lat="47.86374" lon="2.27638">
        <ele>126</ele>
        <time>2017-10-15T08:58:00.000Z</time>
      </trkpt>
      <trkpt lat="47.8637" lon="2.27642">
        <ele>126</ele>
        <time>2017-10-15T08:58:01.000Z</time>
      </trkpt>
      <trkpt lat="47.86365" lon="2.27643">
        <ele>126</ele>
        <time>2017-10-15T08:58:02.000Z</time>
      </trkpt>
      <trkpt lat="47.86355" lon="2.27638">
        <ele>126</ele>
        <time>2017-10-15T08:58:04.000Z</time>
      </trkpt>
      <trkpt lat="47.8631" lon="2.2761">
        <ele>125</ele>
        <time>2017-10-15T08:58:12.000Z</time>
      </trkpt>
      <trkpt lat="47.86304" lon="2.27606">
        <ele>125</ele>
        <time>2017-10-15T08:58:13.000Z</time>
      </trkpt>
      <trkpt lat="47.8626" lon="2.27576">
        <ele>124</ele>
        <time>2017-10-15T08:58:20.000Z</time>
      </trkpt>
      <trkpt lat="47.86254" lon="2.27572">
        <ele>124</ele>
        <time>2017-10-15T08:58:21.000Z</time>
      </trkpt>
      <trkpt lat="47.86212" lon="2.27544">
        <ele>123</ele>
        <time>2017-10-15T08:58:28.000Z</time>
      </trkpt>
      <trkpt lat="47.86206" lon="2.2754">
        <ele>123</ele>
        <time>2017-10-15T08:58:29.000Z</time>
      </trkpt>
      <trkpt lat="47.8616" lon="2.2751">
        <ele>123</ele>
        <time>2017-10-15T08:58:37.000Z</time>
      </trkpt>
      <trkpt lat="47.86154" lon="2.27506">
        <ele>123</ele>
        <time>2017-10-15T08:58:38.000Z</time>
      </trkpt>
      <trkpt lat="47.8611" lon="2.27477">
        <ele>123</ele>
        <time>2017-10-15T08:58:46.000Z</time>
      </trkpt>
      <trkpt lat="47.86105" lon="2.27474">
        <ele>123</ele>
        <time>2017-10-15T08:58:47.000Z</time>
      </trkpt>
      <trkpt lat="47.86088" lon="2.27465">
        <ele>123</ele>
        <time>2017-10-15T08:58:51.000Z</time>
      </trkpt>
      <trkpt lat="47.86065" lon="2.27474">
        <ele>123</ele>
        <time>2017-10-15T08:58:57.000Z</time>
      </trkpt>
      <trkpt lat="47.86029" lon="2.2747">
        <ele>123</ele>
        <time>2017-10-15T08:59:07.000Z</time>
      </trkpt>
      <trkpt lat="47.86006" lon="2.27459">
        <ele>124</ele>
        <time>2017-10-15T08:59:16.000Z</time>
      </trkpt>
      <trkpt lat="47.86009" lon="2.27454">
        <ele>126</ele>
        <time>2017-10-15T09:00:27.000Z</time>
      </trkpt>
      <trkpt lat="47.86008" lon="2.27454">
        <ele>126</ele>
        <time>2017-10-15T09:00:37.000Z</time>
      </trkpt>
    </trkseg>
  </trk>
</gpx>